[[{"header":{"parameterUnit":"m.s-1","parameterCategory":1,"la1":30.6,"la2":29.2853,"lo1":-89.7004,"lo2":-87.6739,"dy":0.0162,"dx":0.0183,"nx":112,"ny":82,"refTime":"2026-04-15T00:00:00:Z","depth":0,"parameterNumber":2,"parameterNumberName":"U-component_of_WINDS"},"data":[0.0,0.0,0.0,0.0,0.0,0.0,0.0,0.0,0.0,0.0,0.0,0.0,0.0,0.0,0.0,0.0,0.0,0.0,0.0,0.0,0.0,0.0,0.0,0.0,0.0,0.0,0.0,0.0,0.0,0.0,0.0,0.0,0.0,0.0,0.0,0.0,0.0,0.0,0.0,0.0,0.0,0.0,0.0,0.0,0.0,0.0,0.0,0.0,0.0,0.0,0.0,0.0,0.0,0.0,0.0,0.0,0.0,0.0,0.0,0.0,0.0,0.0,0.0,0.0,0.0,0.0,0.0,0.0,0.0,0.0,0.0,0.0,0.0,0.0,0.0,0.0,0.0,0.0,0.0,0.0,0.0,0.0,0.0,0.0,0.0,0.0,0.0,0.0,0.0,0.0,0.0,-4.9837,-5.4155,-5.6648,-5.6229,-5.4912,-5.192,-4.6732,0.0,0.0,0.0,0.0,0.0,0.0,0.0,0.0,0.0,0.0,0.0,0.0,0.0,0.0,0.0,0.0,0.0,0.0,0.0,0.0,0.0,0.0,0.0,0.0,0.0,0.0,0.0,0.0,0.0,0.0,0.0,0.0,0.0,0.0,0.0,0.0,0.0,0.0,0.0,0.0,0.0,0.0,0.0,0.0,0.0,0.0,0.0,0.0,0.0,0.0,0.0,0.0,0.0,0.0,0.0,0.0,0.0,0.0,0.0,0.0,0.0,0.0,0.0,0.0,0.0,0.0,0.0,0.0,0.0,0.0,0.0,0.0,0.0,0.0,0.0,0.0,0.0,0.0,0.0,0.0,0.0,0.0,0.0,0.0,0.0,0.0,0.0,0.0,0.0,0.0,0.0,0.0,0.0,0.0,0.0,0.0,0.0,0.0,0.0,0.0,0.0,0.0,0.0,0.0,-4.6105,-5.2991,-5.503,-5.5727,-5.5338,-5.349,-5.0399,-4.5786,0.0,0.0,0.0,0.0,0.0,0.0,0.0,0.0,0.0,0.0,0.0,0.0,0.0,0.0,0.0,0.0,0.0,0.0,0.0,0.0,0.0,0.0,0.0,0.0,0.0,0.0,0.0,0.0,0.0,0.0,0.0,0.0,0.0,0.0,0.0,0.0,0.0,0.0,0.0,0.0,0.0,0.0,0.0,0.0,0.0,0.0,0.0,0.0,0.0,0.0,0.0,0.0,0.0,0.0,0.0,0.0,0.0,0.0,0.0,0.0,0.0,0.0,0.0,0.0,0.0,0.0,0.0,0.0,0.0,0.0,0.0,0.0,0.0,0.0,0.0,0.0,0.0,0.0,0.0,0.0,0.0,0.0,0.0,0.0,0.0,0.0,0.0,0.0,0.0,0.0,0.0,0.0,0.0,0.0,0.0,0.0,0.0,0.0,0.0,0.0,0.0,0.0,0.0,-4.5047,-4.7855,-5.3222,-5.4549,-5.4976,-5.4802,-5.2672,-4.9541,-4.525,-4.2872,0.0,0.0,0.0,0.0,0.0,0.0,0.0,0.0,0.0,0.0,0.0,0.0,0.0,0.0,0.0,0.0,0.0,0.0,0.0,0.0,0.0,0.0,0.0,0.0,0.0,0.0,0.0,0.0,0.0,0.0,0.0,0.0,0.0,0.0,0.0,0.0,0.0,0.0,0.0,0.0,0.0,0.0,0.0,0.0,0.0,0.0,0.0,0.0,0.0,0.0,0.0,0.0,0.0,0.0,0.0,0.0,0.0,0.0,0.0,0.0,0.0,0.0,0.0,0.0,0.0,0.0,0.0,0.0,0.0,0.0,0.0,0.0,0.0,0.0,0.0,0.0,0.0,0.0,0.0,0.0,0.0,0.0,0.0,0.0,0.0,0.0,0.0,0.0,0.0,0.0,0.0,0.0,0.0,0.0,0.0,0.0,0.0,0.0,0.0,0.0,0.0,0.0,-4.7586,-4.9798,-5.2587,-5.3664,-5.4107,-5.3895,-5.1535,-4.8416,-4.4656,-4.1855,0.0,0.0,0.0,0.0,0.0,0.0,0.0,0.0,0.0,0.0,0.0,0.0,0.0,0.0,0.0,0.0,0.0,0.0,0.0,0.0,0.0,0.0,0.0,0.0,0.0,0.0,0.0,0.0,0.0,0.0,0.0,0.0,0.0,0.0,0.0,0.0,0.0,0.0,0.0,0.0,0.0,0.0,0.0,0.0,0.0,0.0,0.0,0.0,0.0,0.0,0.0,0.0,0.0,0.0,0.0,0.0,0.0,0.0,0.0,0.0,0.0,0.0,0.0,0.0,0.0,0.0,0.0,0.0,0.0,0.0,0.0,0.0,0.0,0.0,0.0,0.0,0.0,0.0,0.0,0.0,0.0,0.0,0.0,0.0,0.0,0.0,0.0,0.0,0.0,0.0,0.0,0.0,0.0,0.0,0.0,0.0,0.0,0.0,0.0,0.0,0.0,0.0,-4.7548,-5.0894,-5.1885,-5.2779,-5.2972,-5.2154,-4.948,-4.6616,-4.3748,-4.0145,0.0,0.0,0.0,0.0,0.0,0.0,0.0,0.0,0.0,0.0,0.0,0.0,0.0,0.0,0.0,0.0,0.0,0.0,0.0,0.0,0.0,0.0,0.0,0.0,0.0,0.0,0.0,0.0,0.0,0.0,0.0,0.0,0.0,0.0,0.0,0.0,0.0,0.0,0.0,0.0,0.0,0.0,0.0,0.0,0.0,0.0,0.0,0.0,0.0,0.0,0.0,0.0,0.0,0.0,0.0,0.0,0.0,0.0,0.0,0.0,0.0,0.0,0.0,0.0,0.0,0.0,0.0,0.0,0.0,0.0,0.0,0.0,0.0,0.0,0.0,0.0,0.0,0.0,0.0,0.0,0.0,0.0,0.0,0.0,0.0,0.0,0.0,0.0,0.0,0.0,0.0,0.0,0.0,0.0,0.0,0.0,0.0,0.0,0.0,0.0,0.0,0.0,-4.6163,-4.926,0.0,-5.1741,-5.151,-5.1183,-4.8936,-4.5936,-4.2188,0.0,0.0,0.0,0.0,0.0,0.0,0.0,0.0,0.0,0.0,0.0,0.0,0.0,0.0,0.0,0.0,0.0,0.0,0.0,0.0,0.0,0.0,0.0,0.0,0.0,0.0,0.0,0.0,0.0,0.0,0.0,0.0,0.0,0.0,0.0,0.0,0.0,0.0,0.0,0.0,0.0,0.0,0.0,0.0,0.0,0.0,0.0,0.0,0.0,0.0,0.0,0.0,0.0,0.0,0.0,0.0,0.0,0.0,0.0,0.0,0.0,0.0,0.0,0.0,0.0,0.0,0.0,0.0,0.0,0.0,0.0,0.0,0.0,0.0,0.0,0.0,0.0,0.0,0.0,0.0,0.0,0.0,0.0,0.0,0.0,0.0,0.0,0.0,0.0,0.0,0.0,0.0,0.0,0.0,0.0,0.0,0.0,0.0,0.0,0.0,0.0,0.0,-4.2316,-4.5163,-4.7865,0.0,-5.0202,-4.9875,-4.9875,-4.7566,-4.4565,-4.0935,0.0,0.0,0.0,0.0,0.0,0.0,0.0,0.0,0.0,0.0,0.0,0.0,0.0,0.0,0.0,0.0,0.0,0.0,0.0,0.0,0.0,0.0,0.0,0.0,0.0,0.0,0.0,0.0,0.0,0.0,0.0,0.0,0.0,0.0,0.0,0.0,0.0,0.0,0.0,0.0,0.0,0.0,0.0,0.0,0.0,0.0,0.0,0.0,0.0,0.0,0.0,0.0,0.0,0.0,0.0,0.0,0.0,0.0,0.0,0.0,0.0,0.0,0.0,0.0,0.0,0.0,0.0,0.0,0.0,0.0,0.0,0.0,0.0,0.0,0.0,0.0,0.0,0.0,0.0,0.0,0.0,0.0,0.0,0.0,0.0,0.0,0.0,0.0,0.0,0.0,0.0,0.0,0.0,0.0,0.0,0.0,0.0,0.0,0.0,0.0,0.0,0.0,-4.1577,-4.4788,-4.7212,-4.8009,-4.8086,-4.8086,-4.8086,-4.5028,-4.2251,0.0,0.0,0.0,0.0,0.0,0.0,0.0,0.0,0.0,0.0,0.0,0.0,0.0,0.0,0.0,0.0,0.0,0.0,0.0,0.0,0.0,0.0,0.0,0.0,0.0,0.0,0.0,0.0,0.0,0.0,0.0,0.0,0.0,0.0,0.0,0.0,0.0,0.0,0.0,0.0,0.0,0.0,0.0,0.0,0.0,0.0,0.0,0.0,0.0,0.0,0.0,0.0,0.0,0.0,0.0,0.0,0.0,0.0,0.0,0.0,0.0,0.0,0.0,0.0,0.0,0.0,0.0,0.0,0.0,0.0,0.0,0.0,0.0,0.0,0.0,0.0,0.0,0.0,0.0,0.0,0.0,0.0,0.0,0.0,0.0,0.0,0.0,0.0,0.0,0.0,0.0,0.0,0.0,0.0,0.0,0.0,0.0,0.0,0.0,0.0,0.0,0.0,0.0,-4.1577,-4.4788,-4.7212,-4.8009,-4.7586,-4.725,-4.725,-4.522,-4.2605,-3.9451,0.0,0.0,0.0,0.0,0.0,0.0,0.0,0.0,0.0,0.0,0.0,0.0,0.0,0.0,0.0,0.0,0.0,0.0,0.0,0.0,0.0,0.0,0.0,0.0,0.0,0.0,0.0,0.0,0.0,0.0,0.0,0.0,0.0,0.0,0.0,0.0,0.0,0.0,0.0,0.0,0.0,0.0,0.0,0.0,0.0,0.0,0.0,0.0,0.0,0.0,0.0,0.0,0.0,0.0,0.0,0.0,0.0,0.0,0.0,0.0,0.0,0.0,0.0,0.0,0.0,0.0,0.0,0.0,0.0,0.0,0.0,0.0,0.0,0.0,0.0,0.0,0.0,0.0,0.0,0.0,0.0,0.0,0.0,0.0,0.0,0.0,0.0,0.0,0.0,0.0,0.0,0.0,0.0,0.0,0.0,0.0,0.0,0.0,0.0,0.0,0.0,0.0,-4.0546,-4.3758,-4.6182,-4.7009,-4.6663,-4.6374,-4.6374,-4.4816,-4.2313,-3.8772,0.0,0.0,0.0,0.0,0.0,0.0,0.0,0.0,0.0,0.0,0.0,0.0,0.0,0.0,0.0,0.0,0.0,0.0,0.0,0.0,0.0,0.0,0.0,0.0,0.0,0.0,0.0,0.0,0.0,0.0,0.0,0.0,0.0,0.0,0.0,0.0,0.0,0.0,0.0,0.0,0.0,0.0,0.0,0.0,0.0,0.0,0.0,0.0,0.0,0.0,0.0,0.0,0.0,0.0,0.0,0.0,0.0,0.0,0.0,0.0,0.0,0.0,0.0,0.0,0.0,0.0,0.0,0.0,0.0,0.0,0.0,0.0,0.0,0.0,0.0,0.0,0.0,0.0,0.0,0.0,0.0,0.0,0.0,0.0,0.0,0.0,0.0,0.0,0.0,0.0,0.0,0.0,0.0,0.0,0.0,0.0,0.0,0.0,0.0,0.0,0.0,0.0,-3.8977,-4.222,-4.4624,-4.5518,-4.5594,-4.5575,-4.5498,-4.4008,-4.1643,-3.8219,0.0,0.0,0.0,0.0,0.0,0.0,0.0,0.0,0.0,0.0,0.0,0.0,0.0,0.0,0.0,0.0,0.0,0.0,0.0,0.0,0.0,0.0,0.0,0.0,0.0,0.0,0.0,0.0,0.0,0.0,0.0,0.0,0.0,0.0,0.0,0.0,0.0,0.0,0.0,0.0,0.0,0.0,0.0,0.0,0.0,0.0,0.0,0.0,0.0,0.0,0.0,0.0,0.0,0.0,0.0,0.0,0.0,0.0,0.0,0.0,-4.5156,0.0,0.0,0.0,0.0,0.0,0.0,0.0,0.0,0.0,0.0,0.0,0.0,0.0,0.0,0.0,0.0,0.0,0.0,0.0,0.0,0.0,0.0,0.0,0.0,0.0,0.0,0.0,0.0,0.0,0.0,0.0,0.0,0.0,0.0,0.0,0.0,0.0,0.0,0.0,0.0,0.0,-3.8977,-4.222,-4.4624,-4.5518,-4.5594,-4.5325,-4.4643,-4.3662,-4.1643,-3.8219,-3.5575,0.0,0.0,0.0,0.0,0.0,0.0,0.0,0.0,0.0,0.0,0.0,0.0,0.0,0.0,0.0,0.0,0.0,0.0,0.0,0.0,0.0,0.0,0.0,0.0,0.0,0.0,0.0,0.0,0.0,0.0,0.0,0.0,0.0,0.0,0.0,0.0,0.0,0.0,0.0,0.0,0.0,0.0,0.0,0.0,0.0,0.0,0.0,0.0,0.0,0.0,0.0,0.0,0.0,0.0,0.0,0.0,0.0,0.0,0.0,0.0,-4.5996,0.0,0.0,0.0,0.0,0.0,0.0,0.0,0.0,0.0,0.0,0.0,0.0,0.0,0.0,0.0,0.0,0.0,0.0,0.0,0.0,0.0,0.0,0.0,0.0,0.0,0.0,0.0,0.0,0.0,0.0,0.0,0.0,0.0,0.0,0.0,0.0,0.0,0.0,0.0,0.0,-3.7832,-4.1054,-4.3461,-4.4311,-4.4388,-4.4226,-4.3758,-4.297,-4.12,-3.818,-3.5603,0.0,0.0,0.0,0.0,0.0,0.0,0.0,0.0,0.0,0.0,0.0,0.0,0.0,0.0,0.0,0.0,0.0,0.0,0.0,0.0,0.0,0.0,0.0,0.0,0.0,0.0,0.0,0.0,0.0,0.0,0.0,0.0,0.0,0.0,0.0,0.0,0.0,0.0,0.0,0.0,0.0,0.0,0.0,0.0,0.0,0.0,0.0,0.0,0.0,0.0,0.0,0.0,0.0,-5.2932,-5.3849,-5.4262,-5.3816,-5.3612,-5.3437,-5.0469,-4.873,-4.8008,0.0,0.0,0.0,0.0,0.0,0.0,0.0,0.0,0.0,0.0,0.0,0.0,0.0,0.0,0.0,0.0,0.0,0.0,0.0,0.0,0.0,0.0,0.0,0.0,0.0,-4.0933,-4.0114,0.0,0.0,0.0,0.0,0.0,0.0,0.0,0.0,0.0,0.0,0.0,0.0,-3.6794,-3.9872,-4.2205,-4.3031,-4.3119,-4.3065,-4.2909,-4.2228,-4.0727,-3.8161,-3.5872,-3.3564,0.0,0.0,0.0,0.0,0.0,0.0,0.0,0.0,0.0,0.0,0.0,0.0,0.0,0.0,0.0,0.0,0.0,0.0,0.0,0.0,0.0,0.0,0.0,0.0,0.0,0.0,0.0,0.0,0.0,0.0,0.0,0.0,-4.7357,-4.7731,0.0,0.0,0.0,0.0,0.0,0.0,0.0,0.0,0.0,0.0,0.0,0.0,0.0,-5.0894,-5.2356,-5.4156,-5.4835,-5.4395,-5.6865,-5.7424,-5.6245,-5.6907,-5.7205,-5.7147,-5.5937,0.0,-4.9844,-4.9726,0.0,0.0,0.0,0.0,0.0,0.0,0.0,0.0,0.0,0.0,0.0,0.0,0.0,0.0,0.0,0.0,0.0,0.0,0.0,0.0,0.0,0.0,-4.3576,-4.2157,-4.1828,-4.15,0.0,-3.8292,-3.5841,-3.3172,0.0,0.0,0.0,0.0,0.0,0.0,0.0,0.0,-3.7617,-4.0253,-4.2232,-4.3081,-4.3196,-4.2873,-4.2129,-4.1948,-4.0777,-3.8161,-3.6969,-3.5565,-3.3782,-3.1468,0.0,0.0,0.0,0.0,0.0,0.0,0.0,0.0,0.0,0.0,0.0,0.0,0.0,0.0,0.0,0.0,0.0,0.0,0.0,0.0,0.0,0.0,0.0,0.0,0.0,0.0,0.0,0.0,0.0,-4.6216,-4.9064,-4.8656,-4.9163,-4.8567,0.0,0.0,0.0,0.0,0.0,0.0,0.0,0.0,0.0,-5.2202,-5.3068,-5.4087,-5.5318,-5.6606,-5.7332,-5.7495,-5.8781,-5.9296,-5.9077,-5.915,-5.8922,-5.8423,-5.765,-5.5702,-5.2986,-5.2011,-5.0098,-4.7676,0.0,0.0,0.0,0.0,0.0,-4.3476,-4.4453,-4.4473,0.0,0.0,0.0,0.0,0.0,0.0,0.0,0.0,0.0,0.0,0.0,0.0,0.0,-4.2802,-4.2725,-4.2492,-4.1661,-4.0539,-3.8974,0.0,-3.5929,-3.4797,-3.1262,0.0,0.0,0.0,0.0,0.0,-3.6548,-3.853,-3.9979,-4.0345,-4.0384,-4.0216,-3.9807,-3.9769,-3.9068,-3.7429,-3.651,-3.5483,-3.4251,-3.223,-3.0487,0.0,0.0,0.0,0.0,0.0,0.0,0.0,0.0,0.0,0.0,0.0,0.0,0.0,0.0,0.0,0.0,0.0,0.0,0.0,0.0,0.0,0.0,0.0,0.0,0.0,0.0,0.0,0.0,-4.7669,-5.0383,-4.9484,-5.0886,-5.0759,0.0,0.0,0.0,0.0,0.0,0.0,-5.1597,-5.2645,-5.3904,-5.5415,-5.6242,-5.7088,-5.7965,-5.8627,-5.9257,-5.989,-6.0036,-6.0332,-6.0735,-6.0336,-5.9696,-5.8858,-5.8156,-5.7138,-5.5833,-5.4081,-5.1992,-4.9785,-4.8906,-4.7656,-4.6387,-4.6816,-4.6543,-4.6172,-4.748,-4.7519,-4.6816,-4.5957,0.0,-4.3476,-4.2226,0.0,0.0,0.0,0.0,-4.0964,-4.2167,-4.2582,-4.2743,-4.2975,-4.2989,-4.2783,-4.2151,-4.1841,-4.1081,0.0,-3.8523,-3.7319,-3.3465,0.0,0.0,0.0,0.0,-3.5689,-3.5902,-3.7253,-3.8206,-3.8201,-3.8212,-3.8193,-3.8137,-3.8142,-3.7773,-3.6917,-3.6242,-3.54,-3.4318,-3.2844,-3.1331,-2.9827,0.0,0.0,0.0,0.0,0.0,0.0,0.0,0.0,0.0,0.0,0.0,0.0,0.0,0.0,0.0,0.0,0.0,0.0,0.0,0.0,0.0,0.0,0.0,0.0,0.0,0.0,0.0,0.0,0.0,-5.0583,-5.328,0.0,0.0,0.0,0.0,-5.0411,-5.2729,-5.4222,-5.4299,-5.5857,-5.7154,-5.8088,-5.8896,-5.9723,-6.0589,-6.0646,-6.0759,-6.0925,-6.0935,-6.0635,-6.0047,-6.0009,-5.961,-5.8862,-5.8065,-5.774,-5.7634,-5.5898,-5.4121,-5.242,-5.1543,-5.0683,-4.9844,-4.9062,-4.873,-4.8711,-4.8808,-4.8808,-4.8633,-4.7754,-4.5762,-4.3672,-4.3594,-4.2422,0.0,0.0,-4.2824,-4.3425,-4.3501,-4.4042,-4.4171,-4.2616,-4.2156,-4.2073,-4.2085,-4.1428,-4.0584,0.0,-3.9423,-3.8611,-3.5955,0.0,-3.5317,-3.435,-3.5046,-3.5974,-3.6742,-3.7632,-3.8193,-3.8193,-3.8253,-3.8277,-3.8205,-3.8248,-3.7918,-3.7047,-3.6946,-3.6184,-3.4554,-3.3557,-3.2598,-3.1674,-3.0008,0.0,0.0,0.0,0.0,0.0,0.0,0.0,0.0,0.0,0.0,0.0,0.0,0.0,0.0,0.0,0.0,0.0,0.0,0.0,0.0,0.0,0.0,0.0,0.0,0.0,0.0,0.0,0.0,-5.3129,-5.644,0.0,-5.3614,-5.4315,-5.4676,-5.3876,-5.5204,-5.6525,-5.7665,-5.828,-5.9011,-5.9877,-6.0185,-6.0492,-6.08,-6.08,-6.0827,-6.0847,-6.0288,-5.9917,-5.9669,-5.9235,-5.8627,-5.7918,-5.7723,-5.742,-5.7013,-5.6383,-5.5448,-5.4295,-5.3417,-5.2206,-5.0995,-5.125,-5.0664,-4.9805,-5.0332,-5.0176,-4.9492,-4.8066,-4.6582,-4.5273,-4.4707,-4.4121,-4.3711,-4.3984,-4.3841,-4.3604,-4.3593,-4.3356,-4.2801,-4.1637,-4.1324,-4.1299,-4.133,-4.107,-4.0614,-3.98,-3.9562,-3.8862,-3.6826,-3.6477,-3.5994,-3.4607,-3.5148,-3.5808,-3.6086,-3.6401,-3.6599,-3.6639,-3.6673,-3.6683,-3.6657,-3.6151,-3.5713,-3.5418,-3.4857,-3.4283,-3.3683,-3.2797,-3.1925,-3.1031,-2.9877,-2.802,0.0,0.0,0.0,0.0,0.0,0.0,0.0,0.0,0.0,0.0,0.0,0.0,0.0,0.0,0.0,0.0,0.0,0.0,0.0,0.0,0.0,0.0,0.0,0.0,0.0,0.0,-5.511,-5.52,-5.8358,-5.9434,-5.6569,-5.7111,-5.7397,-5.6894,-5.7666,-5.8692,-5.9877,-5.9935,-6.0204,-6.0781,-6.08,-6.08,-6.08,-6.08,-6.0646,-6.0339,-5.9781,-5.9204,-5.8638,-5.82,-5.7596,-5.6903,-5.7048,-5.6878,-5.6531,-5.6584,-5.6263,-5.564,-5.4782,-5.3551,-5.2301,-5.2597,-5.1816,-5.0683,-5.1211,-5.0879,-4.9961,-4.8516,-4.7441,-4.6582,-4.5703,-4.5449,-4.5449,-4.5449,-4.4783,-4.3995,-4.3708,-4.2932,-4.2026,-4.1179,-4.0935,-4.0901,-4.0935,-4.0694,-4.0335,-3.9797,-3.963,-3.901,-3.7264,-3.6968,-3.6474,-3.5049,-3.5345,-3.5726,-3.5693,-3.5722,-3.5742,-3.5808,-3.5827,-3.5836,-3.5836,-3.5069,-3.4569,-3.4569,-3.3743,-3.3015,-3.2448,-3.2136,-3.1415,-3.0228,-2.9022,-2.7454,-2.5489,0.0,0.0,0.0,0.0,0.0,0.0,0.0,0.0,0.0,0.0,0.0,0.0,0.0,0.0,0.0,0.0,0.0,0.0,0.0,0.0,0.0,0.0,0.0,-5.1128,-5.4154,-5.6402,-5.67,-5.8956,-5.9816,-5.8173,-5.8775,-5.9294,-5.9338,-6.0168,-6.0741,-6.08,-6.08,-6.08,-6.08,-6.08,-6.08,-6.08,-6.08,-6.0358,-5.9492,-5.9473,-5.8588,-5.7003,-5.6964,-5.6579,-5.5904,-5.601,-5.6186,-5.6406,-5.6511,-5.6579,-5.6515,-5.5679,-5.4781,-5.3899,-5.3043,-5.2166,-5.1405,-5.1406,-5.0879,-5.0058,-4.918,-4.8301,-4.7441,-4.6562,-4.6308,-4.6308,-4.6307,-4.5643,-4.4763,-4.392,-4.2988,-4.2066,-4.1287,-4.0998,-4.0912,-4.0998,-4.0325,-3.9692,-3.967,-3.965,-3.9081,-3.7383,-3.7072,-3.6758,-3.583,-3.5752,0.0,-3.5679,-3.5717,-3.5755,-3.5777,-3.5818,-3.5857,-3.5857,-3.5114,-3.4648,-3.457,-3.3769,-3.2559,-3.0937,-3.1613,-3.1199,-2.944,-2.763,-2.6304,-2.5501,0.0,0.0,0.0,0.0,0.0,0.0,0.0,0.0,0.0,0.0,0.0,0.0,0.0,0.0,0.0,0.0,0.0,0.0,0.0,0.0,0.0,-5.0303,-5.2416,-5.3377,-5.6071,-5.8422,-5.9703,-6.1251,-6.1784,-6.0695,-6.0804,-6.0731,-6.0219,-6.0438,-6.0667,-6.0722,-6.0757,-6.08,-6.08,-6.08,-6.08,-6.08,-6.08,-6.0358,-5.9492,-5.8915,-5.805,-5.6983,-5.6349,-5.6,-5.5857,-5.5421,-5.5644,-5.6289,-5.5836,-5.603,-5.6577,-5.6331,-5.5321,-5.3977,-5.3724,-5.2691,-5.1405,-5.1406,-5.0879,-5.0058,-4.918,-4.8301,-4.7441,-4.6562,-4.6308,-4.6307,-4.6307,-4.5211,-4.3998,-4.3759,-4.2571,-4.1362,-4.1143,-4.1069,-4.1053,-4.1073,-4.0429,-3.9668,-3.9023,-3.8398,-3.7785,-3.721,-3.6575,-3.6065,-3.5819,-3.5783,0.0,-3.4975,-3.4922,-3.4953,-3.4992,-3.5016,-3.5037,-3.5037,-3.4257,-3.3242,-3.2012,-3.1133,-3.0449,-2.998,-3.0175,-3.0032,-2.9481,-2.7738,-2.6409,0.0,0.0,0.0,0.0,0.0,0.0,0.0,0.0,0.0,0.0,0.0,0.0,0.0,0.0,0.0,0.0,0.0,0.0,0.0,0.0,0.0,0.0,-5.3478,-5.6042,-5.7251,-5.8543,-5.9985,-6.1644,-6.2158,-6.2166,-6.165,-6.1306,-6.0933,-6.0537,-6.0565,-6.0629,-6.0685,-6.0757,-6.08,-6.08,-6.08,-6.08,-6.08,-6.0435,-5.9838,-5.8992,-5.8146,-5.73,-5.6445,-5.5934,-5.5565,0.0,-5.4963,-5.5158,-5.5697,-5.5347,-5.576,0.0,0.0,0.0,0.0,0.0,-5.2278,-5.1403,-5.1404,-5.0878,-5.0058,-4.9179,-4.8301,-4.7441,-4.6562,-4.6308,-4.6307,-4.6305,-4.5033,-4.3699,-4.3695,-4.2403,-4.1094,-4.109,-4.1109,-4.0992,-4.0625,-3.9924,-3.9105,-3.8211,0.0,0.0,-3.6657,-3.6222,-3.5865,-3.5856,-3.5567,-3.5163,-3.4658,-3.431,-3.4119,-3.414,-3.416,-3.416,-3.416,-3.3379,0.0,0.0,0.0,-2.998,-2.9629,-2.9217,0.0,0.0,0.0,0.0,0.0,0.0,0.0,0.0,-2.5294,-2.5368,0.0,0.0,0.0,0.0,0.0,0.0,0.0,0.0,0.0,0.0,0.0,0.0,0.0,0.0,0.0,0.0,-5.6349,-5.9774,-6.1502,-6.1039,-6.1115,-6.272,-6.2051,-6.1459,-6.1459,-6.0809,-6.0417,-6.0485,-6.0565,-6.0629,-6.0692,0.0,0.0,0.0,0.0,-6.0742,-6.0646,-5.9896,-5.905,-5.8146,-5.7357,-5.6541,-5.5703,-5.5703,-5.5261,-5.4502,-5.4638,-5.4781,-5.4911,-5.5049,-5.563,-5.6444,-5.6348,-5.5366,-5.3795,-5.203,-5.1394,-5.1397,-5.1398,0.0,0.0,-4.9178,-4.83,-4.7441,-4.6562,-4.6308,-4.6306,-4.6302,-4.5048,-4.3695,-4.3707,-4.2417,-4.1109,-4.1109,-4.1012,-4.0738,-3.9976,-3.9097,-3.822,-3.7458,-3.6597,-3.5992,-3.5992,-3.6003,-3.5974,-3.5917,-3.5292,-3.4744,-3.4509,-3.3847,-3.3356,-3.326,0.0,0.0,-3.3242,-3.2598,-3.2109,-3.1914,-3.1172,-3.041,-2.9629,-2.878,-2.8367,-2.8437,-2.821,-2.8132,-2.8182,-2.8066,-2.8049,-2.8107,-2.6517,-2.6575,0.0,0.0,0.0,0.0,0.0,0.0,0.0,0.0,0.0,0.0,0.0,0.0,0.0,0.0,0.0,-5.3996,-5.7373,-6.0354,-6.2385,-6.1917,-6.1745,-6.2777,-6.1554,-6.0618,-6.0618,-6.0499,-6.0403,-6.0417,-6.0539,-6.0604,-6.0617,-6.0741,0.0,-6.08,-6.08,-6.0454,-5.9762,-5.9588,-5.8742,-5.7253,0.0,0.0,-5.5703,-5.5703,-5.5261,-5.4502,-5.4648,-5.4773,-5.4911,-5.504,-5.5285,-5.5478,-5.4783,-5.4293,-5.3795,-5.203,-5.139,-5.1393,-5.1397,-5.0874,-5.0057,-4.9178,-4.83,-4.7441,-4.6562,-4.6307,0.0,-4.6301,-4.5046,-4.3707,-4.3705,-4.2417,-4.1109,-4.1109,-4.0561,-4.0015,-3.9839,-3.8629,-3.7497,-3.7321,-3.6597,-3.5992,-3.5992,-3.5995,-3.5999,-3.5984,-3.5848,-3.5245,-3.3803,-3.3491,-3.312,-3.2438,-3.234,-3.234,-3.2341,-3.2205,-3.1542,-3.0194,-2.9941,-2.9785,-2.9609,-2.9366,-2.9259,-2.9264,-2.8503,-2.811,-2.8123,-2.804,-2.8358,-2.9016,-2.7991,-2.7681,0.0,0.0,0.0,0.0,0.0,0.0,0.0,0.0,0.0,0.0,0.0,-4.6757,-4.8918,0.0,-5.4194,-5.6901,-5.9585,-6.1869,-6.3335,-6.2796,-6.2414,-6.2853,-6.1421,-6.0403,-6.0403,-6.0403,-6.0403,-6.0403,-6.0525,-6.0604,-6.0604,-6.0729,-6.08,-6.08,-6.0377,-5.9935,-5.9492,-5.8665,-5.7819,-5.6983,-5.656,-5.6107,-5.5684,-5.528,-5.4645,-5.3837,-5.3928,-5.4056,-5.4296,-5.4937,-5.4981,-5.4556,-5.3684,-5.3352,-5.3192,-5.1888,-5.1402,-5.1345,-5.0899,-5.0202,-4.9367,-4.8528,-4.7652,-4.6873,-4.6424,-4.6304,-4.6297,-4.6297,-4.5042,-4.3705,-4.3705,-4.2417,-4.1109,-4.1109,-4.0424,-3.9683,-3.9292,-3.8199,-3.7165,-3.6735,-3.6305,-3.5992,-3.5992,-3.5992,-3.5856,-3.5428,-3.4981,-3.4222,-3.2914,-3.237,-3.1943,-3.1536,-3.1497,-3.1498,-3.15,-3.1501,-3.113,-3.029,-3.0252,-3.0058,-2.9628,-2.9546,-2.9495,-2.9491,-2.9002,-2.8955,-2.9347,-2.933,-2.9515,-2.994,-2.9495,-2.9306,0.0,0.0,0.0,0.0,0.0,0.0,0.0,0.0,-4.564,-4.6809,-4.8158,-4.9913,-5.2493,-5.4575,-5.6747,-5.9254,-6.1336,-6.2892,-6.3599,-6.3083,-6.2662,-6.2662,-6.1325,-6.0403,-6.0403,-6.0403,-6.0403,-6.0403,-6.0525,-6.0604,-6.0604,-6.0729,-6.0723,-6.055,-5.9877,-5.9338,-5.9011,-5.7676,-5.6926,-5.6753,-5.603,-5.5703,-5.5665,-5.4876,-5.403,-5.3203,-5.3254,-5.3506,-5.3932,-5.4902,-5.4693,-5.3678,-5.2975,-5.2607,-5.2351,-5.1668,-5.1394,-5.1277,-5.0397,-4.9526,-4.8675,-4.7853,-4.7019,-4.6301,-4.6301,-4.6297,-4.6254,-4.6097,-4.4902,-4.3666,-4.3489,-4.228,-4.1109,-4.1109,-4.0307,-3.939,-3.8747,-3.777,-3.6833,-3.6148,-3.5992,-3.5992,-3.5992,-3.5992,-3.5699,-3.4822,-3.41,-3.328,-3.2226,-3.1485,-3.1017,-3.0886,-3.0887,-3.0889,-3.0893,-3.0893,-3.0894,-3.0894,-3.0894,-3.0583,-2.9881,-2.978,-2.9747,-2.9745,-2.9669,-2.995,-3.0593,-3.0608,-3.0598,-3.0598,-3.0598,-3.0598,-4.5982,-4.5149,-4.482,-4.6058,-4.5911,-4.6485,0.0,0.0,-4.9898,-5.2152,-5.3315,-5.4197,-5.5142,-5.6671,-5.8117,-5.9026,-6.0609,-6.1784,-6.1879,-6.1803,-6.1745,-6.1745,-6.0943,-6.0403,-6.0403,-6.0403,-6.0403,-6.0403,-6.0525,-6.0604,-6.0604,-6.0729,-6.0454,-5.9665,-5.955,-5.8781,-5.7291,-5.7099,-5.6618,-5.5838,-5.5742,-5.5703,-5.5665,-5.4876,-5.403,-5.3204,-5.346,-5.4013,-5.4789,-5.5152,-5.4324,-5.2841,-5.2743,-5.2234,-5.1531,-5.1433,-5.1394,-5.1277,-5.0397,-4.9526,-4.8675,-4.7853,-4.7019,-4.6301,-4.6301,-4.6297,-4.6136,-4.5355,-4.4452,-4.3528,-4.2747,-4.183,-4.1109,-4.1109,-3.9899,-3.8708,-3.8611,-3.7301,-3.6129,-3.6012,-3.5992,-3.5992,-3.5992,-3.5992,-3.5699,-3.4822,-3.4627,-3.3964,-3.2306,-3.2013,-3.166,-3.0899,-3.0801,-3.0844,-3.0889,-3.0908,-3.0891,-3.0894,-3.0894,-3.0856,-3.076,-3.0627,-3.0585,-3.0644,-3.0522,-3.052,-3.0593,-3.0608,-3.0598,-3.0598,-3.0598,-3.0598,-4.7751,-4.7706,-4.8013,-4.8999,-4.998,-5.1157,-5.3026,-5.3163,-5.3143,-5.4164,-5.5388,-5.6398,-5.678,-5.7989,-5.9211,0.0,-6.0999,-6.1784,-6.2299,-6.1917,-6.144,-6.0962,-6.0599,-6.0403,-6.0403,-6.0403,-6.0403,-6.0403,-6.0525,-6.0604,-6.0604,-6.0248,-5.9877,-5.9511,-5.855,-5.7715,-5.7003,-5.6503,-5.6049,-5.5703,-5.5703,-5.5453,-5.4972,-5.4126,-5.3549,-5.3174,-5.2856,-5.3268,-5.4116,-5.3798,-5.2988,-5.1941,-5.1941,-5.1726,-5.1394,-5.1394,-5.1394,-5.1199,-4.9813,-4.9093,-4.8589,-4.7261,-4.6601,-4.6291,-4.6291,-4.6308,-4.6111,-4.5251,-4.4371,-4.3509,-4.263,-4.1752,-4.1109,-4.1109,-3.9821,-3.8591,-3.8591,-3.7223,-3.5992,-3.5992,-3.5992,-3.5992,-3.5992,-3.5582,-3.4942,-3.4073,-3.3931,-3.3319,-3.1563,-3.1348,-3.1192,-3.0839,-3.08,-3.0801,-3.0844,-3.0844,-3.0845,-3.0848,-3.0834,-3.0857,-3.0896,-3.0809,-3.0768,-3.08,-3.0675,-3.0599,-3.0593,-3.0608,-3.0598,-3.0598,-3.0598,-3.0598,-4.8471,-4.9424,-5.0718,-5.1249,-5.3122,-5.4882,-5.502,-5.5505,-5.594,-5.594,-5.6855,-5.7659,-5.7657,-5.8564,-5.9557,-6.0358,-6.0932,-6.1497,-6.2128,-6.1459,-6.0695,-6.0102,-5.9854,-5.9797,-6.0007,-6.0255,-6.0403,-6.0403,-6.0525,-6.0604,-6.0604,-5.9903,-5.9396,-5.9184,-5.7761,-5.6887,-5.6637,-5.6011,-5.5703,-5.5703,-5.5472,-5.5049,-5.4472,-5.3606,-5.3203,-5.3174,-5.2708,-5.2937,-5.3546,-5.2847,-5.2102,-5.1394,-5.1394,-5.1394,-5.1394,-5.1394,-5.1258,-5.0828,-4.9325,-4.8642,-4.8232,-4.6768,-4.6302,-4.6305,-4.6305,-4.6129,-4.576,-4.4881,-4.4003,-4.3144,-4.2265,-4.1564,-4.1095,-4.1093,-3.9824,-3.8594,-3.8591,-3.7223,-3.5992,-3.5992,-3.5998,-3.6001,-3.6001,-3.5283,-3.4409,-3.3535,-3.3198,-3.2506,-3.0984,-3.0804,-3.0803,-3.0807,-3.0808,-3.081,-3.0793,-3.0793,-3.0793,-3.0793,-3.0799,-3.082,-3.0879,-3.0831,-3.0795,-3.0795,-3.0661,-3.06,-3.0593,-3.0608,-3.0598,-3.0598,-3.0598,-3.0714,-4.787,-4.9822,-5.2329,-5.2347,-5.4163,-5.6163,-5.6995,-5.776,-5.8297,-5.8298,-5.8336,-5.8195,-5.7601,-5.8232,-5.8912,-5.913,-5.9892,-6.046,-6.0465,-5.9739,-5.9185,-5.9133,-5.8459,-5.8288,0.0,-5.9892,-6.0403,-6.0403,-6.0525,-6.0604,-6.0604,-5.9903,-5.9146,-5.8357,-5.7473,-5.6599,-5.5742,-5.5703,-5.5703,-5.5684,-5.4914,-5.4511,-5.4472,-5.3606,-5.3203,-5.3204,-5.3444,-5.3566,-5.3559,-5.2945,-5.2175,-5.1394,-5.1394,-5.1394,-5.1394,-5.1394,-5.0867,-5.0007,-4.9111,-4.8291,-4.7489,-4.6593,-4.6306,-4.6293,-4.6293,-4.5711,-4.4855,-4.3977,-4.3117,-4.2239,-4.1361,-4.1126,-4.1105,-4.11,-3.983,-3.8599,-3.8593,-3.7223,-3.5992,-3.5992,-3.6007,-3.5995,-3.5995,-3.5273,-3.4391,-3.3531,-3.2676,-3.1815,-3.0916,-3.0791,-3.0807,-3.0798,-3.0799,-3.0801,-3.0798,-3.0798,-3.0798,-3.0798,-3.0797,-3.0795,-3.0792,-3.0805,-3.0795,-3.0799,-3.0678,-3.0607,-3.0593,-3.0608,-3.0598,-3.0598,-3.0598,-3.1023,-4.9774,-5.1802,-5.38,-5.5488,-5.6865,-5.8015,-5.8849,-5.8797,-5.8592,-5.8611,-5.7705,-5.6898,-5.6791,-5.7025,-5.7463,-5.8184,-5.8994,-5.9739,-6.0313,-6.0141,-5.9548,-5.844,-5.9052,0.0,0.0,0.0,0.0,-6.0365,-6.0525,-6.0355,-5.9767,-5.9077,-5.8319,-5.7453,-5.6588,-5.5992,-5.5703,-5.5703,-5.5703,-5.5684,-5.4299,-5.3645,-5.3587,-5.2183,-5.2145,-5.3155,-5.2213,-5.2168,-5.2678,-5.1994,-5.1578,-5.1394,-5.1394,-5.1394,-5.1336,-5.0748,-4.9989,-4.9208,-4.8896,-4.8271,-4.745,-4.6573,-4.6303,-4.6306,-4.6291,-4.5689,-4.4812,-4.3956,-4.3078,-4.22,-4.1322,-4.1107,-4.1107,-4.1105,-4.0265,-3.9307,-3.8716,-3.768,-3.6687,-3.6107,-3.5993,-3.5996,-3.5935,-3.5208,-3.4153,-3.2752,-3.1797,-3.113,-3.085,-3.0805,-3.0807,-3.0798,-3.08,-3.0801,-3.0794,-3.081,-3.0807,-3.0807,-3.0795,-3.0791,-3.0799,-3.0806,-3.0798,-3.0798,-3.0718,-3.0664,-3.0665,-3.0618,-3.0606,-3.0606,-3.0606,-3.1051,-5.1811,-5.3798,-5.5503,-5.7743,-5.8811,-5.9361,-5.957,-5.8943,-5.8125,-5.7506,-5.6292,-5.5293,-5.508,-5.5303,-5.593,-5.7243,-5.8135,-5.9071,-6.025,-6.0122,-5.9529,-5.8459,-5.9033,-5.9205,0.0,0.0,0.0,-5.9873,-6.0039,-5.9735,-5.8923,-5.8189,-5.7547,-5.7022,-5.6145,-5.5703,-5.5703,-5.5703,-5.5395,-5.478,-5.3703,-5.2895,-5.2279,-5.1491,-5.1722,-5.2693,-5.178,-5.1741,-5.2251,-5.1569,-5.1325,-5.1394,-5.1394,-5.1394,-5.1297,-5.0416,-4.9558,-4.8759,-4.8466,-4.7822,-4.7042,-4.6475,-4.6303,-4.6248,-4.5923,-4.5224,-4.4347,-4.3473,-4.2614,-4.1833,-4.1287,-4.113,-4.113,-4.1109,-4.025,-3.9272,-3.8719,-3.7664,-3.667,-3.6107,-3.5993,-3.5996,-3.5935,-3.4954,-3.3704,-3.2305,-3.1366,-3.0797,-3.0803,-3.0806,-3.0795,-3.0801,-3.0799,-3.0791,-3.0792,-3.0781,-3.0755,-3.0755,-3.0756,-3.075,-3.0767,-3.0784,-3.0795,-3.0762,-3.0714,-3.0689,-3.0665,-3.0622,-3.0608,-3.0608,-3.0918,-3.1538,-5.3793,-5.5747,-5.7439,-5.9064,-5.9912,-6.011,-5.9249,-5.8233,-5.6987,-5.5242,-5.4216,-5.3337,-5.2505,-5.3128,-5.4362,-5.6116,-5.7237,-5.8479,-6.0174,-5.9682,-5.9153,0.0,0.0,0.0,0.0,0.0,0.0,-5.8994,0.0,-5.8815,-5.8073,-5.7309,-5.6898,-5.6926,-5.6126,-5.5703,-5.5703,-5.5665,-5.4818,-5.3203,-5.3145,-5.2299,-5.0789,-5.151,-5.1865,-5.1914,-5.2138,-5.222,-5.2185,-5.1619,-5.1394,-5.1394,-5.1394,-5.1375,-5.1238,-5.0358,-4.948,-4.8623,-4.7801,-4.6983,-4.63,-4.63,-4.6306,-4.6138,-4.5265,-4.439,-4.3514,-4.2656,-4.1816,-4.1191,-4.1191,-4.1191,-4.1172,-4.1112,-3.9862,-3.865,-3.8603,-3.7274,-3.6042,-3.6016,-3.6009,-3.5976,-3.5937,-3.4511,-3.3103,-3.2226,-3.1366,-3.0796,-3.0803,-3.0793,-3.08,-3.0798,-3.08,-3.0808,-3.0791,-3.0731,-3.07,-3.07,-3.0703,-3.0703,-3.07,-3.0762,-3.0772,-3.0697,-3.0703,-3.0665,-3.061,-3.0606,-3.0606,-3.0625,-3.1443,-3.2296,-5.5249,-5.7395,-5.9301,-6.0335,-6.0119,-5.9407,-5.8431,-5.7054,-5.544,-5.359,-5.2047,-5.0609,-4.9217,-5.0678,0.0,-5.3594,-5.6091,0.0,-6.0174,-6.0198,0.0,-5.9185,0.0,-5.9587,-5.9147,-5.8918,0.0,0.0,-5.8278,-5.796,-5.7179,-5.6982,-5.6629,-5.6049,-5.5818,-5.5703,-5.5703,-5.5107,-5.426,-5.3203,-5.2538,-5.2,-5.1587,-5.1183,-5.1337,-5.1876,-5.1499,-5.1332,-5.133,-5.1388,-5.1394,-5.1394,-5.1394,-5.1004,-5.0338,-4.9442,-4.8603,-4.7783,-4.6924,-4.6495,-4.63,-4.63,-4.6302,-4.6149,-4.5258,-4.4382,-4.3526,-4.2654,-4.1776,-4.1132,-4.1191,-4.1191,-4.1191,-4.1172,-4.0351,-3.9394,-3.8748,-3.7732,-3.6775,-3.6132,-3.5953,-3.5744,-3.5139,-3.4113,-3.3103,-3.2226,-3.1364,-3.0806,-3.0801,-3.0805,-3.0793,-3.08,-3.0795,-3.0794,-3.0795,-3.0731,-3.0698,-3.0707,-3.0689,-3.0698,-3.0701,-3.0757,-3.0777,-3.0711,-3.0701,-3.0691,-3.0676,-3.068,-3.0673,-3.0673,-3.0905,-3.1449,-5.7423,-5.8959,-6.0075,-6.0534,-5.9861,-5.8617,-5.6855,-5.508,-5.3177,-5.0919,-4.9402,-4.81,-4.6839,-4.8669,-5.0822,0.0,0.0,0.0,-5.9587,-6.016,-6.0217,0.0,-6.0102,0.0,-5.972,-5.9014,-5.8383,0.0,-5.7582,-5.7054,-5.6278,-5.6268,-5.6115,-5.5703,-5.5703,-5.553,-5.5184,-5.4722,-5.3876,-5.2615,-5.2135,-5.1712,-5.1356,-5.0914,-5.0952,-5.1356,0.0,-5.0972,-5.102,-5.1238,-5.1355,-5.1355,-5.0984,-5.0534,-4.9948,-4.872,-4.7998,-4.7489,-4.6593,-4.63,-4.63,-4.63,-4.63,-4.6067,-4.4806,-4.4088,-4.3447,-4.2184,-4.1503,-4.1152,-4.1191,-4.1191,-4.1191,-4.1191,-4.0234,-3.9199,-3.871,-3.7616,-3.6581,-3.6093,-3.5975,-3.5678,-3.4838,-3.3984,-3.3105,-3.2226,-3.136,-3.08,-3.08,-3.0807,-3.0794,-3.0799,-3.0795,-3.0791,-3.0804,-3.0731,-3.0701,-3.0694,-3.0706,-3.0716,-3.0737,-3.074,-3.073,-3.0695,-3.0707,-3.0701,-3.0694,-3.0699,-3.0695,-3.0715,-3.108,-3.1507,-5.9619,-6.03,-6.0358,-6.0236,-5.9387,-5.7841,-5.5086,-5.2924,-5.072,-4.7963,-4.6702,-4.5802,-4.4887,-4.687,-4.9239,-5.0978,0.0,-5.6931,-5.8828,-5.9759,-6.0255,-6.0403,-6.0403,-6.0365,-6.0236,-5.8822,-5.7848,-5.7734,-5.6931,-5.6174,-5.5531,-5.5504,-5.5562,-5.5703,-5.5588,-5.5203,-5.4511,-5.426,-5.3395,-5.1904,-5.1788,-5.1375,-5.0712,-5.0712,-5.0712,-5.0702,0.0,0.0,-5.099,-5.1141,-5.1262,-5.1288,-5.0434,-5.0026,-4.9733,-4.8172,-4.7528,-4.7315,-4.6554,-4.63,-4.63,-4.63,-4.63,-4.597,-4.4239,-4.3697,-4.3331,-4.1597,-4.1132,-4.1191,-4.1191,-4.1191,-4.1191,-4.1191,-3.9863,-3.8594,-3.8593,-3.7226,-3.5995,-3.5993,-3.5992,-3.5699,-3.4702,-3.3899,-3.3075,-3.2097,-3.1292,-3.08,-3.08,-3.0793,-3.0798,-3.0798,-3.0794,-3.0806,-3.0792,-3.075,-3.0714,-3.0704,-3.0711,-3.0739,-3.081,-3.0737,-3.0711,-3.0707,-3.0707,-3.0694,-3.0694,-3.0694,-3.0694,-3.0713,-3.1487,-3.1833,-6.0159,-6.0807,-6.1177,-6.0456,-5.9065,-5.7141,-5.4401,-5.1765,0.0,-4.6436,-4.5111,-4.3958,-4.2411,-4.476,-4.7502,-4.9251,-5.2346,-5.5594,-5.867,-5.9243,-5.9587,0.0,-6.0403,-6.0122,-5.9396,0.0,0.0,0.0,0.0,-5.5568,-5.5492,-5.5504,-5.5562,-5.5703,-5.5049,-5.4645,-5.4491,-5.3068,-5.2192,-5.1885,-5.1221,-5.0846,-5.0712,-5.0712,-5.0712,-5.0702,0.0,0.0,-5.0935,-5.1113,-5.1211,-5.1151,-5.0401,-4.9655,-4.8915,-4.7957,-4.7139,-4.6495,-4.6358,-4.63,-4.63,-4.63,-4.63,-4.5968,-4.4232,-4.3707,-4.3339,-4.1588,-4.1102,-4.1125,-4.1111,-4.1112,-4.1132,-4.1191,-3.9863,-3.8594,-3.8594,-3.7226,-3.5996,-3.5996,-3.5996,-3.5488,-3.3905,-3.3493,-3.2885,-3.1338,-3.0922,-3.08,-3.08,-3.0804,-3.0805,-3.0805,-3.0798,-3.0799,-3.0806,-3.0781,-3.0788,-3.078,-3.0789,-3.0783,-3.0804,-3.0786,-3.0786,-3.0789,-3.0719,-3.0704,-3.0694,-3.0694,-3.0694,-3.0694,-3.0869,-3.0923,-6.0859,-6.128,-6.1284,-5.995,-5.834,-5.6128,-5.2455,0.0,0.0,-4.4188,-4.3146,-4.2422,-4.1103,-4.3252,-4.5621,-4.6901,-4.9939,-5.3148,-5.6091,-5.7256,-5.8288,-5.9568,-6.0122,-6.0064,0.0,0.0,0.0,0.0,0.0,-5.5434,-5.5492,-5.5562,-5.5437,-5.5088,-5.4703,-5.4068,-5.3164,-5.2308,-5.1692,-5.1279,-5.0875,-5.0712,-5.0712,-5.0712,-5.0712,-5.0693,-5.0776,0.0,-5.091,-5.1039,-5.0864,-5.0451,-4.9716,-4.8915,-4.8076,-4.7237,-4.6651,-4.63,-4.63,-4.63,-4.63,-4.63,-4.5987,-4.5382,-4.4094,-4.3375,-4.2755,-4.1469,-4.1101,-4.1104,-4.1108,-4.111,-4.111,-4.1132,-3.9844,-3.8359,-3.7441,-3.6582,-3.5996,-3.5996,-3.5996,-3.5449,-3.371,-3.3394,-3.2824,-3.1142,-3.0844,-3.08,-3.08,-3.08,-3.08,-3.08,-3.0795,-3.0801,-3.0799,-3.0794,-3.0809,-3.0807,-3.0795,-3.0799,-3.08,-3.0795,-3.0801,-3.0792,-3.0735,-3.0697,-3.0704,-3.0697,-3.0694,-3.0694,-3.0694,-3.0694,-6.1109,-6.1471,-6.1208,-5.9459,-5.7755,-5.5334,-5.0855,-4.8338,-4.5956,-4.2456,-4.1569,-4.1217,-4.0444,-4.202,-4.3883,-4.5086,-4.7646,-5.0493,-5.3416,-5.5116,-5.6759,0.0,-5.9453,0.0,0.0,0.0,0.0,0.0,0.0,0.0,-5.5492,-5.5465,-5.5145,-5.4511,-5.4145,-5.3299,-5.1904,-5.1731,-5.1337,-5.0712,-5.0712,-5.0712,-5.0712,-5.0712,-5.0712,-5.0712,-5.0712,0.0,0.0,-5.0674,-5.0259,-4.9527,-4.8783,-4.8127,-4.7489,-4.6612,-4.63,-4.63,-4.63,-4.63,-4.6261,-4.6085,-4.5558,-4.4836,-4.3957,-4.3084,-4.2229,-4.135,-4.11,-4.1104,-4.1105,-4.1105,-4.1009,-4.0641,-3.9569,-3.8125,-3.6386,-3.5996,-3.5996,-3.5996,-3.5995,-3.5447,-3.3708,-3.3391,-3.2839,-3.112,-3.0823,-3.08,-3.08,-3.08,-3.08,-3.08,-3.0792,-3.0798,-3.0801,-3.0644,-3.0545,-3.0527,-3.0351,-3.0332,-3.0507,-3.0527,-3.0614,-3.0799,-3.073,-3.0695,-3.0695,-3.0701,-3.0694,-3.0694,-3.0706,-3.071,-6.0269,-6.1091,-6.1267,-5.9527,-5.7782,-5.5363,-5.0977,0.0,-4.5304,-4.2473,-4.1207,-4.0548,-4.0338,-4.1074,-4.2507,-4.4906,-4.6175,-4.8277,-5.2346,-5.3722,-5.525,-5.7714,0.0,0.0,0.0,0.0,0.0,0.0,0.0,0.0,-5.5466,-5.4927,-5.4587,-5.4491,-5.2972,-5.2058,-5.1904,-5.1183,-5.077,-5.0712,-5.0712,-5.0712,-5.0712,-5.0712,-5.0712,-5.0712,0.0,0.0,0.0,-4.9687,-4.9298,-4.8568,-4.7813,-4.7569,-4.7489,-4.6612,-4.63,-4.63,-4.63,-4.63,-4.6163,-4.5382,-4.5068,-4.4836,-4.3957,-4.3099,-4.2222,-4.1343,-4.1091,-4.1093,-4.1098,-4.1099,-4.0711,-3.9192,-3.8706,-3.812,-3.6382,-3.5992,-3.5992,-3.5992,-3.5992,-3.5444,-3.3701,-3.3406,-3.2819,-3.1076,-3.0801,-3.08,-3.08,-3.08,-3.08,-3.08,-3.0803,-3.081,-3.0799,-3.013,-2.968,-2.9628,-2.8925,-2.8866,-2.9589,-2.9626,-2.9985,-3.0778,-3.0735,-3.0697,-3.0695,-3.0701,-3.0694,-3.0694,-3.0692,-3.0695,-5.9884,-6.0654,-6.0617,-5.9399,-5.7398,-5.4593,-5.0258,-4.7638,-4.5191,-4.1903,-4.0931,-4.0615,-4.0411,-4.0628,-4.131,-4.2775,-4.3271,-4.4781,-4.8487,-5.0206,-5.2212,-5.525,-5.6492,0.0,0.0,0.0,0.0,0.0,0.0,0.0,-5.3924,-5.3769,-5.343,-5.2882,-5.224,-5.1673,-5.1183,-5.0856,-5.0712,-5.0712,-5.0712,-5.0712,-5.0712,-5.0712,-5.0712,-5.0712,0.0,0.0,0.0,-4.9547,-4.8864,-4.7711,-4.7486,-4.7153,-4.6788,-4.6436,-4.63,-4.63,-4.63,-4.5968,-4.546,-4.5107,-4.4288,-4.3372,-4.3021,-4.2318,-4.1557,-4.1207,-4.1109,-4.1109,-4.1093,-4.1095,-4.0689,-3.8993,-3.8605,-3.8119,-3.6382,-3.5991,-3.5991,-3.5991,-3.6009,-3.5616,-3.4383,-3.3755,-3.299,-3.1777,-3.1133,-3.08,-3.08,-3.08,-3.08,-3.08,-3.08,-3.0609,-3.0127,-2.9772,-2.9364,-2.8807,-2.8926,-2.9179,-2.949,-2.9497,-2.9655,-3.0012,-2.9988,-2.9955,-2.992,-3.0448,-3.0694,-3.0694,-3.0703,-3.0706,-5.8504,-5.9449,-5.9434,-5.8565,-5.6562,-5.3699,-4.9396,-4.7063,-4.4873,-4.1529,-4.0829,-4.0754,-4.0503,-4.0458,-4.0699,-4.1435,-4.1561,-4.2632,-4.5708,-4.7417,-4.948,0.0,0.0,0.0,0.0,0.0,0.0,0.0,0.0,0.0,0.0,-5.2398,-5.2167,-5.1813,-5.1634,-5.1279,-5.0712,-5.0712,-5.0712,-5.0712,-5.0712,-5.0712,-5.0712,-5.0712,-5.0712,-5.0693,0.0,0.0,0.0,-4.8853,-4.8007,-4.6801,-4.6901,-4.6658,-4.6245,-4.6296,-4.63,-4.6261,-4.6007,-4.5519,-4.4912,-4.4405,-4.3391,-4.2357,-4.2084,-4.1596,-4.1109,-4.1109,-4.1109,-4.1109,-4.1109,-4.1093,-4.0687,-3.9008,-3.8601,-3.8115,-3.6377,-3.6006,-3.6006,-3.6006,-3.6004,-3.5728,-3.4849,-3.3986,-3.3103,-3.2226,-3.1368,-3.08,-3.08,-3.08,-3.08,-3.08,-3.059,-3.0318,-2.9983,-2.9749,-2.9325,-2.869,-2.8691,-2.8846,-2.9106,-2.8866,-2.8969,-2.9485,-2.9472,-2.9566,-2.9784,-3.039,-3.0694,-3.0694,-3.0706,-3.0703,-5.5689,-5.7211,-5.7621,-5.684,-5.5262,-5.2785,-4.8493,-4.6167,-4.4152,-4.1455,-4.0907,-4.0844,-4.0649,-4.0597,-4.0839,-4.1574,-4.1694,-4.2533,-4.4973,-4.6003,0.0,0.0,0.0,0.0,0.0,0.0,0.0,0.0,0.0,0.0,0.0,-5.0913,-5.0916,-5.1774,-5.1086,-5.0712,-5.0712,-5.0712,-5.0712,-5.0712,-5.0712,-5.0712,-5.0712,-5.0712,-5.0712,0.0,0.0,0.0,0.0,-4.7259,-4.6486,-4.5821,-4.5894,-4.5987,-4.6128,-4.6247,-4.63,-4.6183,-4.5304,-4.501,-4.4717,-4.2982,-4.2415,-4.224,-4.1382,-4.1109,-4.1109,-4.1109,-4.1109,-4.1109,-4.1109,-4.1109,-4.068,-3.9001,-3.8591,-3.8123,-3.6383,-3.5992,-3.5992,-3.5992,-3.5992,-3.5719,-3.4842,-3.3983,-3.3103,-3.2226,-3.1368,-3.08,-3.08,-3.08,-3.08,-3.08,-3.009,-2.9936,-3.0723,-3.006,-2.956,-2.9491,-2.7889,-2.731,-2.8184,-2.7388,-2.7751,-2.9477,-2.9424,-2.9823,-3.0695,-3.0701,-3.0694,-3.0694,-3.0692,-3.07,-5.3307,-5.4127,-5.4246,-5.399,-5.2608,-5.048,-4.7323,-4.5718,-4.4143,-4.1513,-4.098,-4.0913,-4.0765,-4.0738,-4.1151,-4.2401,-4.2091,-4.253,0.0,0.0,0.0,0.0,0.0,0.0,0.0,0.0,0.0,0.0,0.0,0.0,0.0,-5.1109,-5.1196,-5.0916,-5.0778,-5.0712,-5.0712,-5.0712,-5.0712,-5.0712,-5.0712,-5.0712,-5.0712,-5.0712,0.0,0.0,0.0,0.0,0.0,-4.7231,-4.6458,-4.5801,-4.5875,-4.5987,-4.6128,-4.6245,-4.63,-4.6183,-4.5304,-4.4602,-4.3918,-4.2767,-4.2006,-4.1459,-4.1187,-4.1109,-4.1109,-4.1109,-4.1109,-4.1109,-4.1109,-4.1109,-4.068,-3.9001,-3.8591,-3.8123,-3.6383,-3.5992,-3.5992,-3.5992,-3.5992,-3.5914,-3.5641,-3.4861,-3.3983,-3.3124,-3.2246,-3.1465,-3.0878,-3.08,-3.08,-3.08,-3.0571,-3.0298,-3.0002,-2.9197,-2.8691,-2.867,-2.8676,-2.8801,-2.9075,-2.8777,-2.8873,-2.9425,-2.9418,-2.9531,-2.9804,-3.0402,-3.0694,-3.0694,-3.0706,-3.0703,-5.0984,-5.1726,-5.1726,-5.1722,-5.0418,-4.853,-4.6223,-4.4776,-4.3367,-4.1448,-4.1036,-4.1002,-4.0904,-4.0887,-4.1159,-4.2032,-4.1714,-4.2063,0.0,0.0,0.0,-4.906,0.0,0.0,0.0,0.0,0.0,0.0,0.0,0.0,0.0,-5.0876,-5.099,-5.0519,-5.0901,-5.0971,-5.0712,-5.0712,-5.0712,-5.0712,-5.0712,-5.0712,-5.0712,-5.0712,0.0,0.0,0.0,0.0,0.0,-4.6874,-4.6177,-4.5801,-4.5875,-4.5987,-4.6128,-4.6245,-4.6085,-4.5675,-4.4816,-4.3938,-4.3079,-4.2181,-4.1537,-4.1109,-4.1109,-4.1109,-4.1109,-4.1109,-4.1109,-4.1109,-4.1109,-4.0855,-4.027,-3.8923,-3.8357,-3.7711,-3.6305,-3.5992,-3.5992,-3.5992,-3.5992,-3.5992,-3.5992,-3.4997,-3.4022,-3.3474,-3.2383,-3.1407,-3.0878,-3.08,-3.08,-3.08,-3.0533,-3.0263,-3.0069,-2.955,-2.9235,-2.9244,-2.94,-2.9483,-2.9452,-2.9104,-2.9049,-2.9389,-2.9408,-2.9564,-2.9894,-3.0441,-3.0694,-3.0694,-3.0694,-3.0694,0.0,-4.9636,-4.9634,-4.9642,-4.8423,-4.6791,-4.5117,-4.3461,0.0,-4.1263,-4.1107,-4.1104,-4.1091,-4.1048,-4.1015,-4.1066,-4.1025,-4.1486,0.0,-4.394,0.0,0.0,0.0,0.0,0.0,0.0,0.0,0.0,0.0,0.0,0.0,-5.0425,-5.0481,-5.0489,-5.134,-5.143,-5.0712,-5.0712,-5.0712,-5.0712,-5.0712,-5.0712,-5.0712,-5.0712,0.0,0.0,0.0,0.0,0.0,-4.6259,-4.5676,-4.5801,-4.5875,-4.5987,-4.6128,-4.6245,-4.5753,-4.4875,-4.3997,-4.3138,-4.2259,-4.1382,-4.1109,-4.1109,-4.1109,-4.1109,-4.1109,-4.1109,-4.1109,-4.1109,-4.1109,-4.0444,-3.9605,-3.8786,-3.7927,-3.7067,-3.6187,-3.5992,-3.5992,-3.5992,-3.5992,-3.5992,-3.5992,-3.4665,-3.3533,-3.3416,-3.201,-3.0937,-3.082,-3.08,-3.08,-3.08,-3.0128,-2.9997,-3.0741,-3.0741,-3.0721,-3.0803,-3.0049,-2.9554,-2.9499,-2.8716,-2.8667,-2.9486,-2.9486,-2.9894,-3.0694,-3.0694,-3.0694,-3.0694,-3.0694,-3.0694,-4.4933,0.0,-4.5205,-4.5193,-4.4909,-4.4312,0.0,-4.262,-4.2062,-4.1263,-4.1107,-4.1283,-4.1883,-4.1494,-4.1676,-4.3495,-4.3213,-4.3284,-4.469,0.0,0.0,-5.0493,0.0,0.0,0.0,0.0,0.0,0.0,0.0,0.0,0.0,-5.0944,-5.1036,-5.0443,-5.1275,-5.1389,-5.0712,-5.0712,-5.0712,-5.0712,-5.0712,-5.0712,-5.0712,-5.0712,0.0,0.0,0.0,0.0,-4.7105,-4.6028,-4.5676,-4.5801,-4.5875,-4.5987,-4.6128,-4.6245,-4.5753,-4.4875,-4.3997,-4.3138,-4.2259,-4.1382,-4.1109,-4.1109,-4.1109,-4.1109,-4.1109,-4.1109,-4.1109,-4.1109,-4.1109,-4.0444,-3.9605,-3.8786,-3.7927,-3.7067,-3.6187,-3.5992,-3.5992,-3.5992,-3.5992,-3.5992,-3.5992,-3.566,-3.4938,-3.3591,-3.3045,-3.2303,-3.0976,-3.08,-3.08,-3.08,-3.0628,-3.0596,-3.0779,-3.019,-3.0093,-3.076,-3.0558,-3.0402,-3.0403,-3.0195,-3.0185,-3.0383,-3.0383,-3.0499,-3.0694,-3.0694,-3.0694,-3.0694,-3.0694,-3.0694,-4.2508,-4.3384,-4.43,-4.4268,-4.3943,-4.3521,-4.3055,-4.2322,-4.1516,-4.0679,-4.0815,-4.1107,-4.1146,-4.1438,-4.2084,-4.3387,-4.3538,0.0,0.0,0.0,-4.9137,0.0,0.0,0.0,0.0,0.0,0.0,0.0,0.0,0.0,0.0,-5.076,-5.0822,-5.0401,-5.0856,-5.0952,-5.0663,-5.0673,-5.0712,-5.0712,-5.0712,-5.0712,-5.0693,-5.0289,-4.9856,0.0,0.0,0.0,-4.6827,-4.5951,-4.5676,-4.5801,-4.5875,-4.5987,-4.607,-4.5796,-4.5148,-4.4289,-4.3411,-4.2533,-4.1732,-4.1246,-4.1109,-4.1109,-4.1109,-4.1109,-4.1109,-4.1109,-4.0816,-4.0503,-4.0503,-3.9585,-3.8531,-3.8103,-3.734,-3.6578,-3.6109,-3.5992,-3.5992,-3.5992,-3.5992,-3.5992,-3.5992,-3.566,-3.4958,-3.3591,-3.3064,-3.2324,-3.0976,-3.08,-3.08,-3.08,-3.08,-3.0808,-3.0799,-3.0368,-3.0295,-3.076,-3.0765,-3.0725,-3.0695,-3.0701,-3.0694,-3.0694,-3.0694,-3.0694,-3.0694,-3.0694,-3.0694,-3.0694,-3.0694,-3.0694,-4.1427,-4.3199,-4.4872,-4.4429,-4.3855,-4.3373,-4.3257,-4.212,-4.0893,-4.0156,-4.0584,-4.0951,-4.0467,-4.1438,-4.2429,-4.2824,0.0,0.0,-4.7001,-4.7703,0.0,0.0,0.0,0.0,0.0,0.0,0.0,0.0,0.0,0.0,0.0,-5.0302,-5.0325,-5.039,-5.0401,-5.0457,-5.0582,-5.0643,-5.0683,-5.0712,-5.0712,-5.0635,-5.0481,-4.974,-4.926,0.0,0.0,0.0,-4.6644,-4.5893,-4.5676,-4.5801,-4.5875,-4.5905,-4.5836,-4.523,-4.4367,-4.3372,-4.2494,-4.1713,-4.1109,-4.1109,-4.1109,-4.1109,-4.1109,-4.1109,-4.107,-4.0934,-4.0366,-3.9761,-3.9644,-3.8453,-3.7301,-3.7301,-3.6636,-3.5992,-3.5992,-3.5992,-3.5992,-3.5992,-3.5992,-3.5992,-3.5994,-3.5389,-3.4569,-3.3554,-3.2773,-3.1934,-3.0937,-3.08,-3.08,-3.08,-3.08,-3.0807,-3.0797,-3.08,-3.08,-3.0794,-3.0796,-3.0767,-3.0727,-3.0714,-3.0704,-3.0697,-3.0694,-3.0694,-3.0694,-3.0694,-3.0694,-3.0694,-3.0694,-3.0694,-4.2908,-4.4087,-4.439,-4.2214,-4.2131,-4.2398,-4.1659,-4.1283,-4.1049,-4.0932,-4.101,-4.1497,-4.2783,-4.2627,-4.3017,0.0,0.0,-4.7085,0.0,0.0,0.0,0.0,0.0,0.0,0.0,0.0,0.0,0.0,0.0,0.0,0.0,0.0,-5.0302,-5.0314,-5.0379,-5.0435,-5.0511,-5.0582,-5.0643,-5.0712,-5.0712,-5.0308,-4.9606,-4.9452,-4.8625,0.0,0.0,-4.649,-4.5787,-4.5671,-4.5676,-4.5801,-4.5875,-4.5535,-4.4994,-4.4994,-4.3977,-4.2474,-4.1596,-4.1207,-4.1109,-4.1109,-4.1109,-4.1109,-4.1109,-4.1109,-4.0953,-4.021,-3.9897,-3.9644,-3.8962,-3.8043,-3.7301,-3.7301,-3.6636,-3.5992,-3.5992,-3.5992,-3.5992,-3.5992,-3.5992,-3.5995,-3.6002,-3.588,-3.5253,-3.3638,-3.3283,-3.2616,-3.1015,-3.08,-3.08,-3.08,-3.08,-3.0801,-3.0805,-3.0806,-3.0795,-3.08,-3.0805,-3.0794,-3.0794,-3.0723,-3.0703,-3.0691,-3.0701,-3.0694,-3.0694,-3.0694,-3.0694,-3.0694,-3.0694,-3.0694,-4.1361,-4.221,-4.2571,-4.1379,-4.2799,-4.4238,-4.3354,-4.2786,-4.2315,-4.1848,-4.212,-4.2549,-4.2841,0.0,-4.4396,-4.6516,0.0,0.0,0.0,0.0,0.0,0.0,0.0,0.0,0.0,0.0,0.0,0.0,0.0,0.0,0.0,0.0,-5.0302,-5.0302,-5.0325,-5.0401,-5.05,-5.0532,-5.0603,-5.0712,-5.0712,-5.025,-4.9375,-4.8913,-4.8048,-4.6865,0.0,-4.597,-4.5594,-4.5594,-4.5646,-4.5696,-4.5809,-4.5368,-4.4599,-4.3873,-4.2786,-4.1635,-4.1246,-4.1109,-4.1109,-4.1109,-4.1109,-4.1109,-4.1109,-4.1109,-4.0836,-3.9528,-3.9468,-3.9507,-3.8238,-3.7594,-3.7184,-3.6716,-3.6285,-3.5992,-3.5992,-3.5992,-3.5992,-3.5992,-3.5992,-3.5995,-3.6003,-3.5998,-3.5409,-3.3658,-3.3401,-3.2772,-3.1015,-3.08,-3.08,-3.08,-3.08,-3.08,-3.08,-3.0823,-3.0833,-3.0801,-3.0808,-3.0799,-3.0801,-3.0733,-3.0692,-3.0695,-3.0701,-3.0694,-3.0694,-3.0694,-3.0694,-3.0694,-3.0694,-3.0694,-4.0303,-4.0742,-4.1184,-4.1584,-4.3507,-4.5222,-4.4952,-4.4228,-4.3465,-4.2997,-4.3445,-4.3698,-4.3036,-4.4494,0.0,-4.7494,-4.8179,0.0,0.0,0.0,0.0,0.0,0.0,0.0,0.0,0.0,0.0,0.0,0.0,0.0,0.0,0.0,-5.0302,-5.0302,-5.0302,-5.0359,-5.05,-5.05,-5.0563,-5.0712,-5.05,-4.9933,-4.9067,-4.8221,-4.7375,-4.6567,-4.5893,-4.5594,-4.5594,-4.5594,-4.5594,-4.5593,-4.551,-4.4916,-4.3908,-4.2581,-4.1674,-4.1109,-4.1109,-4.1109,-4.1109,-4.1109,-4.1109,-4.1109,-4.1109,-4.1109,-4.0797,-3.9294,-3.9312,-3.937,-3.7477,-3.7009,-3.6833,-3.6168,-3.5992,-3.5992,-3.5992,-3.5992,-3.5992,-3.5992,-3.5992,-3.5995,-3.6003,-3.5823,-3.5234,-3.3913,-3.3362,-3.2616,-3.1289,-3.0937,-3.08,-3.08,-3.08,-3.0801,-3.0822,-3.0868,-3.0876,-3.0839,-3.0814,-3.0815,-3.08,-3.0747,-3.0723,-3.0701,-3.0704,-3.0694,-3.0694,-3.0694,-3.0694,-3.0694,-3.0694,-3.069,-4.1766,-4.1661,-4.1476,-4.3026,-4.2997,-4.3,-4.4543,-4.4228,-4.3815,-4.4559,-4.4757,-4.4796,-4.4718,-4.6746,-4.8467,-4.8579,0.0,0.0,0.0,0.0,0.0,0.0,0.0,0.0,0.0,0.0,0.0,0.0,0.0,0.0,0.0,0.0,0.0,-5.0302,-5.0302,-5.0359,-5.05,-5.05,-5.0563,-5.0693,-4.9875,-4.9048,-4.8163,-4.7355,-4.6509,-4.5691,-4.5633,-4.5594,-4.5594,-4.5594,-4.5594,-4.5535,-4.4853,-4.3726,-4.2361,-4.1503,-4.1148,-4.1109,-4.1109,-4.1109,-4.1109,-4.1109,-4.1109,-4.1109,-4.1109,-4.1109,-4.0914,-3.9976,-3.9761,-3.9234,-3.6734,-3.609,-3.607,-3.6012,-3.5992,-3.5992,-3.5992,-3.5992,-3.5992,-3.5992,-3.5992,-3.5995,-3.6003,-3.5335,-3.4747,-3.4635,-3.3227,-3.215,-3.2012,-3.1309,-3.08,-3.08,-3.08,-3.0823,-3.0887,-3.0894,-3.0897,-3.0897,-3.0898,-3.0858,-3.0799,-3.0804,-3.0756,-3.07,-3.0711,-3.0694,-3.0694,-3.0694,-3.0694,-3.0694,-3.0694,-3.0703,-3.9815,-4.0138,-4.0443,-4.1078,-4.2179,-4.3562,-4.5299,-4.5864,-4.6266,-4.7096,-4.7267,-4.7084,-4.6508,0.0,-4.7843,-4.8468,0.0,0.0,0.0,0.0,0.0,0.0,0.0,0.0,0.0,0.0,0.0,0.0,0.0,0.0,0.0,0.0,0.0,-4.8774,-4.927,-4.9606,-4.9686,-4.9695,-4.9766,-4.9894,-4.9548,-4.8682,-4.7327,-4.7038,-4.6413,-4.5594,-4.5594,-4.5594,-4.5594,-4.5594,-4.5287,-4.4677,-4.3473,-4.2618,-4.1966,-4.1347,-4.1074,-4.1033,-4.1081,-4.1109,-4.1109,-4.1109,-4.1109,-4.1109,-4.1109,-4.1109,-4.0816,-3.945,-3.906,-3.8707,-3.7204,-3.6813,-3.6677,-3.6129,-3.5992,-3.5992,-3.5992,-3.5992,-3.5992,-3.5992,-3.5992,-3.5995,-3.6003,-3.5725,-3.5312,-3.4772,-3.4144,-3.3339,-3.2247,-3.1816,-3.1407,-3.0859,-3.0844,-3.0867,-3.0892,-3.0896,-3.0897,-3.0898,-3.0898,-3.0877,-3.0809,-3.0801,-3.0772,-3.0695,-3.0706,-3.0699,-3.0694,-3.0665,-3.0661,-3.0692,-3.0657,-3.0645,-3.8586,-3.8948,-3.9526,-4.0064,-4.1711,-4.3796,-4.6098,-4.7072,-4.7805,-4.8894,-4.8657,-4.8069,-4.742,0.0,0.0,0.0,0.0,0.0,0.0,0.0,0.0,0.0,0.0,0.0,0.0,0.0,0.0,0.0,0.0,0.0,0.0,0.0,0.0,0.0,-4.8372,-4.8715,-4.8792,-4.8802,-4.8739,-4.8587,-4.8596,-4.8009,-4.6885,-4.6624,-4.6163,-4.5594,-4.5594,-4.5594,-4.5575,-4.5306,-4.4528,-4.3426,-4.2482,-4.1865,-4.1497,-4.1195,-4.1064,-4.1,-4.1076,-4.1109,-4.1109,-4.1109,-4.1109,-4.1109,-4.1109,-4.1109,-4.0797,-3.9372,-3.8806,-3.8396,-3.7536,-3.7106,-3.6735,-3.6148,-3.5992,-3.5992,-3.5992,-3.5992,-3.5992,-3.5992,-3.5992,-3.5994,-3.6,-3.5762,-3.5487,-3.516,-3.4649,-3.3964,-3.3046,-3.2442,-3.1779,-3.0921,-3.0869,-3.0893,-3.0895,-3.0897,-3.0898,-3.0898,-3.0898,-3.0875,-3.0801,-3.0786,-3.075,-3.0694,-3.0692,-3.0707,-3.0703,-3.0626,-3.0614,-3.0669,-3.0614,-3.0602,-3.8723,-3.8502,-3.8926,-4.0668,-4.1711,-4.3231,-4.6702,-4.7501,-4.7984,-4.9679,-4.8579,-4.7324,-4.7317,-4.7328,0.0,0.0,0.0,0.0,0.0,0.0,0.0,0.0,0.0,0.0,0.0,0.0,0.0,0.0,0.0,0.0,0.0,0.0,0.0,0.0,-4.7769,-4.7821,-4.7897,-4.7949,-4.7597,-4.6801,-4.6866,-4.6885,-4.6846,-4.599,-4.5594,-4.5594,-4.5594,-4.5594,-4.5518,-4.4643,-4.3297,-4.1828,-4.2017,-4.1516,-4.0723,-4.1,-4.1061,-4.1,-4.1076,-4.1109,-4.1109,-4.1109,-4.1109,-4.1109,-4.1109,-4.109,-4.0914,-4.0034,-3.9214,-3.8396,-3.7516,-3.6656,-3.5992,-3.5992,-3.5992,-3.5992,-3.5992,-3.5992,-3.5992,-3.5992,-3.5992,-3.5992,-3.5992,-3.5271,-3.5018,-3.5875,-3.4528,-3.3728,-3.4588,-3.3165,-3.1781,-3.0985,-3.0894,-3.0897,-3.0897,-3.0898,-3.0898,-3.0898,-3.0898,-3.0875,-3.0801,-3.0733,-3.0707,-3.0694,-3.0692,-3.07,-3.07,-3.0637,-3.0606,-3.0606,-3.0606,-3.0597,-3.7847,-3.8482,-3.9546,-4.0064,-4.263,-4.5475,-4.7111,-4.7969,-4.8873,-5.051,-4.989,-4.9031,-4.8994,0.0,0.0,0.0,0.0,0.0,0.0,0.0,0.0,0.0,0.0,0.0,0.0,0.0,0.0,0.0,0.0,0.0,0.0,0.0,0.0,0.0,-4.6596,-4.6923,-4.6987,-4.7038,-4.6992,-4.6801,-4.626,-4.599,-4.597,-4.5729,-4.5594,-4.5594,-4.5594,-4.5248,-4.4566,-4.3124,-4.2258,-4.1755,-4.1281,-4.0887,-4.0602,-4.0906,-4.0961,-4.0871,-4.1046,-4.1109,-4.1109,-4.1109,-4.1109,-4.1109,-4.1109,-4.0678,-4.0015,-3.9196,-3.8337,-3.7477,-3.6617,-3.6187,-3.5992,-3.5992,-3.5992,-3.5992,-3.5992,-3.5992,-3.5992,-3.5992,-3.5992,-3.5992,-3.5992,-3.5797,-3.5699,-3.5953,-3.5563,-3.488,-3.3904,-3.2795,-3.1784,-3.0985,-3.0894,-3.0897,-3.0897,-3.0898,-3.0898,-3.0898,-3.0856,-3.0799,-3.0722,-3.0711,-3.0686,-3.0633,-3.0621,-3.0625,-3.0633,-3.0619,-3.061,-3.0604,-3.0606,-3.0606,-3.8807,-3.9772,-4.0991,-4.1652,-4.404,-4.6608,-4.8144,-4.9173,-5.0068,0.0,-5.0473,-4.9825,-4.975,-4.88,0.0,0.0,0.0,0.0,0.0,0.0,0.0,0.0,0.0,0.0,0.0,0.0,0.0,0.0,0.0,0.0,0.0,0.0,0.0,0.0,-4.5774,-4.6044,-4.6075,-4.6146,-4.6205,-4.6234,-4.5791,-4.5577,-4.5594,-4.5594,-4.5594,-4.5575,-4.5229,-4.4412,-4.3239,-4.222,-4.1604,-4.1235,-4.0855,-4.0615,-4.053,-4.0825,-4.0878,-4.0814,-4.0995,-4.1076,-4.1109,-4.1109,-4.1109,-4.1031,-4.0698,-4.0229,-3.9566,-3.8415,-3.7711,-3.7106,-3.6226,-3.5992,-3.5992,-3.5992,-3.5992,-3.5992,-3.5992,-3.5992,-3.5992,-3.5992,-3.5992,-3.5992,-3.5992,-3.5992,-3.5992,-3.5992,-3.5995,-3.5373,-3.3615,-3.2939,-3.2181,-3.1029,-3.0897,-3.0898,-3.0898,-3.0898,-3.0898,-3.0898,-3.0857,-3.0805,-3.0735,-3.0709,-3.0668,-3.06,-3.06,-3.0604,-3.0593,-3.0606,-3.0601,-3.06,-3.061,-3.0595,-4.0647,-4.1556,-4.2676,-4.4356,-4.5569,-4.6956,-4.9333,-5.0505,-5.1072,-5.1084,0.0,-4.9867,-4.9728,0.0,0.0,0.0,0.0,0.0,0.0,0.0,0.0,0.0,0.0,0.0,0.0,0.0,0.0,0.0,0.0,0.0,0.0,0.0,0.0,0.0,-4.5307,-4.5307,-4.5307,-4.5378,-4.5351,0.0,-4.5438,-4.5464,-4.5383,-4.5537,-4.5556,-4.5441,-4.447,-4.322,-4.1788,-4.1712,-4.12,-4.0512,-4.0629,-4.0602,-4.0515,-4.0718,-4.0781,-4.0824,-4.0948,-4.1033,-4.1109,-4.1109,-4.1109,-4.0934,-4.0054,-3.9741,-3.9351,-3.775,-3.7243,-3.7009,-3.6207,-3.5992,-3.5992,-3.5992,-3.5992,-3.5992,-3.5992,-3.5992,-3.5992,-3.5992,-3.5992,-3.5992,-3.5992,-3.5992,-3.5992,-3.5992,-3.6,-3.5399,-3.3738,-3.3452,-3.2792,-3.117,-3.0937,-3.0898,-3.0898,-3.0898,-3.0898,-3.0898,-3.0898,-3.0877,-3.0801,-3.0735,-3.0671,-3.0589,-3.06,-3.0595,-3.0595,-3.06,-3.06,-3.06,-3.0597,-3.0606,-3.9029,-4.0194,-4.1788,-4.3462,-4.5569,-4.754,-4.8787,-4.9192,-4.9516,-5.0138,-5.011,-4.9741,0.0,0.0,0.0,0.0,0.0,0.0,0.0,0.0,0.0,0.0,0.0,0.0,0.0,0.0,0.0,0.0,0.0,0.0,0.0,0.0,0.0,-4.5307,-4.5307,-4.5307,-4.5307,-4.5378,-4.5083,0.0,-4.5169,-4.4849,-4.3682,-4.4998,-4.5229,-4.4489,-4.2989,-4.2135,-4.175,-4.1066,-4.0669,-4.0496,-4.0534,-4.0527,-4.0519,-4.0681,-4.0759,-4.0824,-4.0948,-4.1033,-4.1109,-4.1109,-4.1109,-4.0934,-4.0054,-3.9351,-3.865,-3.7594,-3.6813,-3.6246,-3.6051,-3.5992,-3.5992,-3.5992,-3.5992,-3.5992,-3.5992,-3.5992,-3.5992,-3.5992,-3.5992,-3.5992,-3.5992,-3.5992,-3.5992,-3.5992,-3.6,-3.5614,-3.4558,-3.3824,-3.3006,-3.1952,-3.1289,-3.0898,-3.0898,-3.0898,-3.0898,-3.0898,-3.0898,-3.0877,-3.0801,-3.0743,-3.0667,-3.0598,-3.0608,-3.0607,-3.0607,-3.061,-3.06,-3.06,-3.0597,-3.0633,-3.9426,-4.0707,-4.2336,-4.4847,0.0,-4.7726,-4.8596,-4.8806,-4.8803,-4.8795,-4.9122,0.0,0.0,0.0,0.0,0.0,0.0,0.0,0.0,0.0,0.0,0.0,0.0,0.0,0.0,0.0,0.0,0.0,0.0,0.0,0.0,-4.5307,-4.5307,-4.5307,-4.5307,-4.5105,-4.4685,-4.4716,-4.4335,-4.3541,-4.4019,-4.3852,-4.3124,-4.3989,-4.3932,-4.3047,-4.2181,-4.1566,-4.1143,-4.0689,-4.0496,-4.0496,-4.0496,-4.0496,-4.0504,-4.0586,-4.0668,-4.077,-4.087,-4.0968,-4.1064,-4.1083,-4.0816,-4.0327,-3.9488,-3.865,-3.7809,-3.6911,-3.6344,-3.5992,-3.5992,-3.5981,-3.5953,-3.5989,-3.5992,-3.5992,-3.5992,-3.5992,-3.5992,-3.5992,-3.5992,-3.5992,-3.5992,-3.5992,-3.5992,-3.5992,-3.6,-3.5693,-3.4816,-3.3942,-3.3085,-3.2246,-3.1406,-3.0898,-3.0898,-3.0898,-3.0898,-3.0898,-3.0898,-3.0878,-3.0854,-3.0776,-3.072,-3.0647,-3.0614,-3.061,-3.061,-3.0608,-3.0604,-3.0593,-3.0633,-3.0673,-3.9863,-4.1296,-4.296,-4.6256,-4.7067,0.0,-4.8155,-4.8346,-4.8148,-4.7427,0.0,0.0,0.0,0.0,0.0,0.0,0.0,0.0,0.0,0.0,0.0,0.0,0.0,0.0,0.0,0.0,0.0,0.0,0.0,0.0,-4.5307,-4.5163,-4.5067,-4.5067,-4.4934,-4.4513,-4.3796,-4.3796,-4.3387,-4.2585,-4.2515,-4.2625,-4.2874,-4.272,-4.2335,-4.1788,-4.1643,-4.1162,-4.0496,-4.0496,-4.0496,-4.0496,-4.0496,-4.0496,-4.0496,-4.0496,-4.0574,-4.0712,-4.0751,-4.0866,-4.0984,-4.1066,-4.0494,-3.9636,-3.8843,-3.7986,-3.7126,-3.6246,-3.5992,-3.5992,-3.5992,-3.5951,-3.5934,-3.5986,-3.5992,-3.5992,-3.5992,-3.5992,-3.5992,-3.5992,-3.5992,-3.5992,-3.5992,-3.5992,-3.5992,-3.5992,-3.6,-3.5732,-3.5013,-3.4157,-3.3319,-3.248,-3.1621,-3.1054,-3.0918,-3.0898,-3.0898,-3.0898,-3.0898,-3.0898,-3.0898,-3.0855,-3.0781,-3.0735,-3.0656,-3.0617,-3.0617,-3.0626,-3.0626,-3.0614,-3.0665,-3.0699,-3.7721,0.0,-4.1931,0.0,-4.5294,-4.5476,0.0,0.0,-4.6508,0.0,0.0,0.0,0.0,0.0,0.0,0.0,0.0,0.0,0.0,0.0,0.0,0.0,0.0,0.0,0.0,0.0,0.0,0.0,0.0,0.0,-4.5307,-4.459,-4.4159,-4.4159,-4.3501,-4.308,-4.2966,-4.2966,-4.2565,-4.1752,-4.1123,-4.1229,-4.1942,-4.1181,-4.12,-4.175,-4.0989,-4.0612,-4.0496,-4.0496,-4.0496,-4.0496,-4.0496,-4.0496,-4.0496,-4.0496,-4.0574,-4.07,-4.0718,-4.0759,-4.0842,-4.0964,-4.0421,-3.9572,-3.8835,-3.7986,-3.7126,-3.6246,-3.5992,-3.5992,-3.5992,-3.5989,-3.5988,-3.5991,-3.5992,-3.5992,-3.5992,-3.5992,-3.5992,-3.5992,-3.5992,-3.5992,-3.5992,-3.5992,-3.5992,-3.5992,-3.6,-3.5965,-3.5849,-3.5071,-3.4195,-3.3336,-3.2457,-3.1657,-3.0956,-3.0897,-3.0898,-3.0898,-3.0898,-3.0898,-3.0898,-3.0898,-3.0879,-3.0879,-3.075,-3.0691,-3.0691,-3.0699,-3.0684,-3.0692,-3.0701,-3.0701,-3.7625,-3.953,-4.1608,0.0,-4.425,-4.4458,-4.5281,0.0,0.0,0.0,0.0,0.0,0.0,0.0,0.0,0.0,0.0,0.0,0.0,0.0,0.0,0.0,0.0,0.0,0.0,0.0,0.0,0.0,0.0,-4.3902,-4.3902,-4.3539,-4.3329,-4.3329,-4.2985,-4.2565,-4.2087,-4.2068,-4.1676,-4.0881,-4.0579,-4.0658,-4.1064,-4.0673,-4.0708,-4.1046,-4.0669,-4.0496,-4.0496,-4.0496,-4.0496,-4.0496,-4.0496,-4.0496,-4.0496,-4.0496,-4.0542,-4.0588,-4.0668,-4.0711,-4.0759,-4.0861,-3.9996,-3.8855,-3.852,-3.7478,-3.6326,-3.5933,-3.5836,-3.5836,-3.5836,-3.5807,-3.579,-3.5827,-3.5836,-3.5844,-3.5936,-3.598,-3.5992,-3.5992,-3.5992,-3.5992,-3.5992,-3.5992,-3.5992,-3.5992,-3.5995,-3.6,-3.6004,-3.5245,-3.4543,-3.4174,-3.2904,-3.1968,-3.1598,-3.1169,-3.0896,-3.0897,-3.0897,-3.0897,-3.0897,-3.0896,-3.0896,-3.0896,-3.0814,-3.0761,-3.0761,-3.0721,-3.0708,-3.0708,-3.0697,-3.0695,0.0,0.0,-4.0055,-4.2449,-4.3207,-4.3572,0.0,0.0,0.0,0.0,0.0,0.0,0.0,0.0,0.0,0.0,0.0,0.0,0.0,0.0,0.0,0.0,0.0,0.0,0.0,0.0,0.0,0.0,0.0,-4.2794,-4.2794,-4.2584,-4.2469,-4.2469,-4.2278,-4.1858,-4.1189,-4.1189,-4.0893,-4.0325,-4.0362,-4.0413,-4.0499,-4.0503,-4.0508,-4.0496,-4.0496,-4.0496,-4.0496,-4.0496,-4.0496,-4.0496,-4.0496,-4.0496,-4.0496,-4.0496,-4.0496,-4.0512,-4.0609,-4.0642,-4.0668,-4.0754,-3.9782,-3.8578,-3.8606,-3.7543,-3.6315,-3.6082,-3.6024,-3.5985,-3.5756,-3.5664,-3.565,-3.5681,-3.5698,-3.5745,-3.5894,-3.5955,-3.5992,-3.5992,-3.5992,-3.5992,-3.5992,-3.5992,-3.5992,-3.5992,-3.5992,-3.5995,-3.6001,-3.5435,-3.4948,-3.4718,-3.3331,-3.2335,-3.2122,-3.1361,-3.0894,-3.0894,-3.0894,-3.0894,-3.0894,-3.0894,-3.0893,-3.0893,-3.0839,-3.08,-3.0839,-3.0751,-3.0723,-3.0727,-3.0725,-3.0722,0.0,-3.5596,0.0,-4.02,-4.1854,0.0,0.0,0.0,0.0,0.0,0.0,0.0,0.0,0.0,0.0,0.0,0.0,0.0,0.0,0.0,0.0,0.0,0.0,0.0,0.0,0.0,0.0,0.0,0.0,-4.2794,-4.2794,-4.2011,-4.1571,-4.1571,-4.0826,-4.0416,-4.0358,-4.0358,-4.0366,-4.0388,-4.0325,-4.0366,-4.0489,-4.0507,-4.0495,-4.0496,-4.0496,-4.0496,-4.0496,-4.0496,-4.0496,-4.0496,-4.0496,-4.0496,-4.0496,-4.0496,-4.0496,-4.0496,-4.0504,-4.0512,-4.0534,-4.0662,-4.0094,-3.9352,-3.9413,-3.8839,-3.7995,-3.7165,-3.6932,-3.6742,-3.5911,-3.5693,-3.5689,-3.5698,-3.5698,-3.5741,-3.5955,-3.5991,-3.5992,-3.5992,-3.5992,-3.5992,-3.5992,-3.5992,-3.5992,-3.5992,-3.5992,-3.5992,-3.5992,-3.5953,-3.5623,-3.4785,-3.3886,-3.301,-3.2174,-3.1356,-3.089,-3.0894,-3.0894,-3.0894,-3.0894,-3.0891,-3.0908,-3.0908,-3.0825,-3.0826,-3.0889,-3.0838,-3.0781,-3.0781,-3.0795,-3.0795,0.0,0.0,0.0,-3.8286,-3.9707,-4.095,0.0,0.0,0.0,0.0,0.0,0.0,0.0,0.0,0.0,0.0,0.0,0.0,0.0,0.0,0.0,0.0,0.0,0.0,0.0,0.0,0.0,0.0,0.0,0.0,-4.1208,-4.0903,-4.0731,-4.0731,-4.0454,-4.0301,-4.0301,-4.0301,-4.0319,-4.0353,-4.0362,-4.0413,-4.0507,-4.0503,-4.05,-4.0496,-4.0496,-4.0496,-4.0496,-4.0496,-4.0496,-4.0496,-4.0496,-4.0496,-4.0496,-4.0496,-4.0496,-4.0496,-4.0496,-4.0496,-4.0504,-4.0564,-4.0012,-3.9345,-3.9361,-3.8775,-3.7919,-3.705,-3.6799,-3.6632,-3.5782,-3.557,-3.5587,-3.563,-3.5674,-3.5749,-3.5902,-3.5978,-3.5992,-3.5992,-3.5992,-3.5992,-3.5992,-3.5992,-3.5992,-3.5992,-3.5992,-3.5992,-3.5992,-3.5992,-3.5875,-3.5563,-3.4255,-3.3261,-3.295,-3.1643,-3.0844,-3.0847,-3.0847,-3.0847,-3.0847,-3.0845,-3.0844,-3.0844,-3.0801,-3.0801,-3.0844,-3.0808,-3.0791,-3.0793,-3.08,-3.0799,-3.2935,0.0,0.0,0.0,0.0,-3.9331,0.0,0.0,0.0,0.0,0.0,0.0,0.0,0.0,0.0,0.0,0.0,0.0,0.0,0.0,0.0,0.0,0.0,0.0,0.0,0.0,0.0,0.0,0.0,0.0,-4.0301,-4.0301,-4.0301,-4.0301,-4.0301,-4.0301,-4.0301,-4.0301,-4.0291,-4.0307,-4.0353,-4.0405,-4.0502,-4.0495,-4.05,-4.0496,-4.0496,-4.0496,-4.0496,-4.0496,-4.0496,-4.0496,-4.0496,-4.0496,-4.0496,-4.0496,-4.0323,-4.0092,-4.0092,-4.0092,-4.0092,-4.0092,-3.9919,-3.9708,-3.9708,-3.9304,-3.8604,-3.7469,-3.7142,-3.6885,-3.5788,-3.55,-3.5521,-3.5579,-3.565,-3.5741,-3.5875,-3.5947,-3.5992,-3.5992,-3.5992,-3.5992,-3.5992,-3.5992,-3.5992,-3.5992,-3.5992,-3.5992,-3.5992,-3.5992,-3.5992,-3.5992,-3.4704,-3.3728,-3.3416,-3.2342,-3.1425,-3.0839,-3.1075,-3.1114,-3.08,-3.0822,-3.0823,-3.0823,-3.0825,-3.0825,-3.0823,-3.0801,-3.08,-3.0801,-3.0792,-3.08,0.0,0.0,0.0,0.0,0.0,0.0,0.0,0.0,0.0,0.0,0.0,0.0,0.0,0.0,0.0,0.0,0.0,0.0,0.0,0.0,0.0,0.0,0.0,0.0,0.0,0.0,0.0,0.0,0.0,-4.0301,-4.0301,-4.0301,-4.0301,-4.0301,-4.0301,-4.0301,-4.0301,-4.0301,-4.0291,-4.0307,-4.0307,-4.0379,-4.0502,-4.0502,-4.0507,-4.0496,-4.0496,-4.0496,-4.0496,-4.0496,-4.0496,-4.0496,-4.0496,-4.0496,-4.0496,-4.0477,-3.9977,-3.9304,-3.9304,-3.9304,-3.9304,-3.9323,-3.9861,-4.0496,-4.0496,-4.0477,-4.0131,-3.8507,-3.8027,-3.7623,-3.5962,-3.5519,-3.5515,-3.5574,-3.5645,-3.5741,-3.5875,-3.5947,-3.5992,-3.5992,-3.5992,-3.5992,-3.5992,-3.5992,-3.5992,-3.5992,-3.5992,-3.5992,-3.5992,-3.5992,-3.5992,-3.5953,-3.5174,-3.4315,-3.3474,-3.3357,-3.2616,-3.0937,-3.1602,-3.168,-3.0839,-3.0865,-3.0907,-3.0907,-3.0892,-3.0892,-3.0907,-3.0823,-3.08,-3.08,-3.08,-3.0798,-3.1935,0.0,0.0,0.0,0.0,0.0,0.0,0.0,0.0,0.0,0.0,0.0,0.0,0.0,0.0,0.0,0.0,0.0,0.0,0.0,0.0,0.0,0.0,0.0,0.0,0.0,0.0,0.0,-4.0301,-4.0301,-4.0301,-4.0301,-4.0301,-4.0301,-4.0301,-4.0301,-4.0301,-4.0301,-4.0291,-4.0307,-4.0307,-4.0379,-4.0502,-4.0502,-4.0507,-4.0496,-4.0496,-4.0496,-4.0496,-4.0496,-4.0496,-4.0496,-4.0496,-4.0496,-4.0439,-3.9842,-3.9496,-3.9304,-3.9304,-3.9304,-3.94,-3.9977,-4.0323,-4.0496,-4.0496,-4.0092,-3.9534,-3.9073,-3.8488,-3.7757,-3.6654,-3.5942,-3.5494,-3.5515,-3.5629,-3.5702,-3.5749,-3.5883,-3.5992,-3.5992,-3.5992,-3.5992,-3.5992,-3.5992,-3.5992,-3.5992,-3.5992,-3.5992,-3.5992,-3.5992,-3.5758,-3.5135,-3.4276,-3.365,-3.3416,-3.2245,-3.1582,-3.1738,-3.1368,-3.1055,-3.08,-3.0865,-3.0907,-3.0907,-3.0892,-3.0892,-3.0907,-3.0887,-3.0845,-3.08,-3.08,-3.0793,-3.1519,-3.1965,-3.2737,0.0,0.0,0.0,0.0,-3.5496,0.0,0.0,0.0,0.0,0.0,0.0,0.0,0.0,0.0,0.0,0.0,0.0,0.0,0.0,0.0,0.0,0.0,0.0,0.0,-4.0301,-4.0301,-4.0301,-4.0301,-4.0301,-4.0301,-4.0301,-4.0301,-4.0301,-4.0301,-4.0301,-4.0301,-4.029,-4.0298,-4.0362,-4.0449,-4.0493,-4.0507,-4.0496,-4.0496,-4.0496,-4.0477,-4.015,-4.0208,-4.0496,-4.0496,-4.0496,-4.04,-3.9611,-3.9073,-3.8757,-3.8757,-3.8757,-3.8892,-3.9727,-4.0227,-4.0439,-4.0092,-3.9669,-3.915,-3.8411,-3.7603,-3.6834,-3.6327,-3.5846,-3.5514,-3.5541,-3.5607,-3.5683,-3.5776,-3.5869,-3.5976,-3.5989,-3.5992,-3.5992,-3.5992,-3.5992,-3.5992,-3.5992,-3.5992,-3.5992,-3.5992,-3.5992,-3.566,-3.4783,-3.4256,-3.3651,-3.2929,-3.2264,-3.1796,-3.1563,-3.1426,-3.1172,-3.082,-3.0867,-3.0891,-3.0891,-3.0895,-3.0896,-3.0891,-3.0908,-3.0865,-3.08,-3.0823,-3.0832,-3.1328,-3.1453,-3.2177,-3.2914,0.0,0.0,-3.4836,-3.475,0.0,0.0,0.0,0.0,0.0,0.0,0.0,0.0,0.0,0.0,0.0,0.0,0.0,0.0,0.0,0.0,0.0,-4.0307,-4.0308,-4.0301,-4.031,-4.0263,-4.0148,-4.0148,-4.011,-4.0014,-4.0014,-4.0053,-4.0148,-4.0148,-4.0205,-4.0301,-4.0299,-4.0344,-4.0407,-4.0458,-4.0487,-4.0496,-4.0496,-4.0496,-4.0439,-3.9631,-3.9727,-4.0362,-4.0265,-4.0227,-4.015,-3.9419,-3.8604,-3.7873,-3.8084,-3.8027,-3.8027,-3.9092,-3.9785,-4.0112,-3.9496,-3.9169,-3.8681,-3.7142,-3.6173,-3.5635,-3.5635,-3.5577,-3.5515,-3.5581,-3.5596,-3.5645,-3.5824,-3.5875,-3.5894,-3.5955,-3.5985,-3.5988,-3.5988,-3.5988,-3.5988,-3.5988,-3.6009,-3.5992,-3.5992,-3.5992,-3.5621,-3.4666,-3.4569,-3.3886,-3.2247,-3.2714,-3.2498,-3.1034,-3.1582,-3.1602,-3.0839,-3.085,-3.0894,-3.0894,-3.0898,-3.0898,-3.0894,-3.089,-3.0865,-3.0801,-3.0866,-3.0874,-3.3563,-3.3106,-3.276,-3.2962,0.0,0.0,-3.2538,-3.2364,0.0,0.0,0.0,0.0,0.0,0.0,0.0,0.0,0.0,0.0,0.0,0.0,0.0,0.0,0.0,0.0,0.0,-4.0325,-4.0307,-4.0289,-4.031,-3.9995,-3.9298,-3.926,-3.8935,-3.8228,-3.8209,-3.8534,-3.926,-3.926,-3.9623,-4.0301,-4.0291,-4.0346,-4.0407,-4.0415,-4.0455,-4.0496,-4.0496,-4.0496,-4.0439,-3.9631,-3.94,-3.9457,-3.8757,-3.8488,-3.8469,-3.8315,-3.77,-3.7161,-3.8565,-3.8123,-3.7315,-3.9534,-3.9457,-3.8584,-3.913,-3.8315,-3.7142,-3.6788,-3.6596,-3.6462,-3.6462,-3.5981,-3.5507,-3.5515,-3.5552,-3.5599,-3.5645,-3.5696,-3.5749,-3.5764,-3.5852,-3.5924,-3.5924,-3.5924,-3.5924,-3.5924,-3.5974,-3.5992,-3.5992,-3.5992,-3.5407,-3.3826,-3.365,-3.3222,-3.2189,-3.1602,-3.1465,-3.1816,-3.1348,-3.0976,-3.08,-3.0866,-3.0891,-3.0894,-3.0895,-3.0895,-3.0894,-3.0847,-3.0844,-3.0887,-3.0888,-3.0891,-3.3801,-3.3262,-3.2954,-3.2954,0.0,0.0,0.0,0.0,-3.1545,0.0,0.0,0.0,0.0,0.0,0.0,0.0,0.0,0.0,0.0,0.0,0.0,0.0,0.0,0.0,0.0,-4.0021,-3.9738,-3.9695,-4.0061,-3.9919,-3.9049,-3.9011,-3.861,-3.7731,-3.7693,-3.8113,-3.8992,-3.9011,-3.9451,-4.0301,-4.0301,-4.0328,-4.0342,-3.994,-3.9799,-3.9823,-3.9389,-3.9223,-3.9181,-3.8354,-3.8007,-3.8007,-3.8007,-3.8007,-3.795,-3.7507,-3.7084,-3.6827,-3.77,-3.743,-3.6981,-3.87,-3.8681,-3.8007,-3.8007,-3.7103,-3.6096,-3.6096,-3.6096,-3.6096,-3.6096,-3.5808,-3.55,-3.55,-3.5534,-3.5571,-3.5596,-3.563,-3.566,-3.5689,-3.5741,-3.5757,-3.5794,-3.5801,-3.5811,-3.5886,-3.5931,-3.5953,-3.5991,-3.5992,-3.5329,-3.3591,-3.3396,-3.2869,-3.1563,-3.1055,-3.0995,-3.1426,-3.1036,-3.08,-3.08,-3.0865,-3.089,-3.0894,-3.0892,-3.0892,-3.0894,-3.0868,-3.0865,-3.0907,-3.0892,-3.0894,0.0,0.0,0.0,0.0,0.0,-3.2056,0.0,0.0,0.0,-3.2235,0.0,0.0,0.0,0.0,0.0,0.0,0.0,0.0,0.0,0.0,0.0,0.0,0.0,0.0,0.0,-3.9465,-3.906,-3.9312,-3.9631,-3.9508,-3.8782,-3.8744,-3.8285,-3.7254,-3.7215,-3.7712,-3.8744,-3.8744,-3.9279,-4.0301,-4.0129,-4.0061,-4.0039,-3.9225,-3.8884,-3.8908,-3.8216,-3.7932,-3.793,-3.7065,-3.6692,-3.675,-3.7296,-3.7526,-3.745,-3.6904,-3.6596,-3.6519,-3.6846,-3.6731,-3.6635,-3.768,-3.7892,-3.7584,-3.6731,-3.6019,-3.55,-3.55,-3.55,-3.55,-3.55,-3.55,-3.55,-3.55,-3.55,-3.5515,-3.557,-3.5574,-3.5602,-3.5645,-3.5614,-3.5607,-3.5674,-3.5672,-3.5717,-3.5824,-3.5843,-3.5889,-3.5947,-3.5933,-3.5272,-3.3562,-3.3388,-3.2687,-3.0956,-3.08,-3.08,-3.08,-3.08,-3.08,-3.08,-3.0865,-3.091,-3.0893,-3.0891,-3.0891,-3.0893,-3.0892,-3.089,-3.089,-3.0895,-3.0897,0.0,0.0,0.0,0.0,-3.3417,0.0,0.0,0.0,-3.1391,-3.0814,0.0,0.0,0.0,0.0,0.0,0.0,0.0,0.0,0.0,0.0,0.0,0.0,0.0,0.0,0.0,0.0,-3.8629,-4.0067,-3.8873,-3.8006,-3.7865,-3.7846,-3.712,-3.5534,-3.5477,-3.6241,-3.7827,-3.7846,-3.8667,-4.0282,-3.9527,-3.9172,-3.9206,-3.8336,-3.7983,-3.8043,-3.7936,-3.7932,-3.793,-3.7065,-3.6692,-3.6635,-3.6019,-3.5788,-3.5865,-3.6462,-3.625,-3.5846,-3.7334,-3.6892,-3.5904,-3.7488,-3.7488,-3.6692,-3.5885,-3.5577,-3.55,-3.55,-3.55,-3.55,-3.55,-3.55,-3.55,-3.55,-3.55,-3.5507,-3.5501,-3.5508,-3.5508,-3.5528,-3.5515,-3.5534,-3.5607,-3.5609,-3.5609,-3.5625,-3.5683,-3.5733,-3.5725,-3.5725,-3.5109,-3.3473,-3.3303,-3.2636,-3.0934,-3.08,-3.08,-3.08,-3.08,-3.08,-3.08,-3.0865,-3.0908,-3.0908,-3.0892,-3.0892,-3.0908,-3.0894,-3.0896,-3.0896,-3.0897,-3.0898,0.0,0.0,0.0,0.0,0.0,0.0,-3.1506,0.0,-3.0987,0.0,0.0,0.0,0.0,0.0,0.0,0.0,0.0,0.0,0.0,0.0,0.0,0.0,0.0,0.0,0.0,0.0,0.0,0.0,0.0,-3.7037,-3.7009,-3.7003,-3.6451,-3.5248,-3.5209,-3.5783,-3.6986,-3.7005,-3.7617,-3.8782,-3.8419,-3.8265,-3.8263,-3.7428,-3.7067,-3.711,-3.6653,-3.6491,-3.6519,-3.6154,-3.6,-3.5962,-3.5635,-3.55,-3.5538,-3.5885,-3.5788,-3.5596,-3.6308,-3.6096,-3.5615,-3.6327,-3.6288,-3.5942,-3.5596,-3.55,-3.55,-3.55,-3.55,-3.55,-3.55,-3.55,-3.55,-3.55,-3.55,-3.55,-3.55,-3.55,-3.55,-3.55,-3.55,-3.5501,-3.5541,-3.5534,-3.5559,-3.5596,-3.5625,-3.5655,-3.5689,-3.5698,-3.5069,-3.341,-3.3273,-3.2601,-3.089,-3.0773,-3.08,-3.08,-3.08,-3.08,-3.08,-3.0823,-3.0844,-3.0844,-3.0847,-3.0867,-3.0907,-3.0891,-3.0894,-3.0896,-3.0898,-3.0898,-3.6058,0.0,0.0,0.0,0.0,0.0,0.0,0.0,0.0,0.0,0.0,0.0,0.0,0.0,0.0,0.0,0.0,0.0,0.0,0.0,0.0,0.0,0.0,0.0,0.0,0.0,0.0,0.0,0.0,0.0,-3.6468,-3.6266,-3.5851,-3.5229,-3.5209,-3.5621,-3.6481,-3.65,-3.6901,-3.7693,-3.7483,-3.7368,-3.733,-3.6539,-3.6197,-3.6217,-3.5659,-3.5446,-3.55,-3.55,-3.55,-3.55,-3.55,-3.55,-3.55,-3.55,-3.55,-3.55,-3.55,-3.55,-3.55,-3.55,-3.55,-3.55,-3.55,-3.55,-3.55,-3.55,-3.55,-3.5507,-3.5509,-3.5515,-3.5488,-3.5515,-3.5508,-3.55,-3.55,-3.55,-3.55,-3.55,-3.55,-3.55,-3.55,-3.55,-3.5515,-3.5564,-3.5575,-3.5585,-3.5645,-3.5655,-3.5006,-3.3311,-3.3423,-3.2809,-3.0864,-3.098,-3.1055,-3.082,-3.08,-3.08,-3.08,-3.08,-3.08,-3.08,-3.0822,-3.0844,-3.0866,-3.0889,-3.0891,-3.0893,-3.0897,-3.0898,0.0,0.0,0.0,-3.3564,0.0,0.0,0.0,0.0,-3.1679,0.0,0.0,0.0,0.0,0.0,0.0,0.0,0.0,0.0,0.0,0.0,0.0,0.0,0.0,0.0,0.0,0.0,0.0,0.0,0.0,0.0,-3.6372,-3.5693,-3.5229,-3.5209,-3.5209,-3.5621,-3.6481,-3.65,-3.6901,-3.7693,-3.6901,-3.6538,-3.65,-3.5709,-3.5346,-3.5346,-3.5391,-3.5446,-3.55,-3.55,-3.55,-3.55,-3.55,-3.55,-3.55,-3.55,-3.55,-3.55,-3.55,-3.55,-3.55,-3.55,-3.55,-3.55,-3.55,-3.55,-3.55,-3.55,-3.55,-3.5515,-3.5587,-3.5547,-3.5515,-3.5574,-3.5547,-3.55,-3.55,-3.55,-3.55,-3.55,-3.55,-3.55,-3.55,-3.55,-3.55,-3.5507,-3.5507,-3.5507,-3.5514,-3.5514,-3.4867,-3.3193,-3.3817,-3.3377,-3.0918,-3.1528,-3.1699,-3.0859,-3.08,-3.08,-3.08,-3.08,-3.08,-3.08,-3.0865,-3.0865,-3.0801,-3.0871,-3.0892,-3.0908,-3.0895,-3.0897,0.0,0.0,-3.5558,-3.4122,0.0,0.0,0.0,0.0,0.0,0.0,0.0,0.0,0.0,0.0,0.0,0.0,0.0,0.0,0.0,0.0,0.0,0.0,0.0,0.0,0.0,0.0,0.0,0.0,-3.3511,0.0,0.0,-3.5139,-3.5253,-3.5209,-3.5209,-3.5335,-3.5641,-3.5641,-3.5783,-3.605,-3.5783,-3.5641,-3.563,-3.5388,-3.5293,-3.5315,-3.5412,-3.5486,-3.55,-3.55,-3.55,-3.55,-3.55,-3.55,-3.55,-3.55,-3.55,-3.55,-3.55,-3.55,-3.55,-3.55,-3.55,-3.55,-3.55,-3.55,-3.55,-3.55,-3.5534,-3.5552,-3.5547,-3.5574,-3.5629,-3.5547,-3.5553,-3.5559,-3.5501,-3.55,-3.55,-3.55,-3.55,-3.55,-3.55,-3.55,-3.55,-3.55,-3.55,-3.55,-3.55,-3.55,-3.5059,-3.3916,-3.4116,-3.3557,-3.167,-3.1334,-3.1114,-3.082,-3.08,-3.08,-3.08,-3.08,-3.08,-3.08,-3.0822,-3.0822,-3.08,-3.0824,-3.0825,-3.0823,-3.0889,-3.0893,-3.5417,-3.5383,0.0,-3.4224,-3.3551,0.0,-3.2185,0.0,0.0,0.0,0.0,0.0,0.0,0.0,0.0,0.0,0.0,0.0,0.0,0.0,0.0,0.0,0.0,0.0,0.0,0.0,-3.2987,-3.3333,-3.2494,0.0,0.0,0.0,-3.5269,-3.5209,-3.5488,-3.5507,-3.5209,-3.5209,-3.5209,-3.5209,-3.5209,-3.5209,-3.5209,-3.527,-3.5308,-3.5315,-3.5446,-3.55,-3.55,-3.55,-3.55,-3.55,-3.55,-3.55,-3.55,-3.55,-3.55,-3.55,-3.55,-3.55,-3.55,-3.55,-3.55,-3.55,-3.55,-3.55,-3.5494,-3.5528,-3.5564,-3.5607,-3.5632,-3.5645,-3.5645,-3.5593,-3.5564,-3.5553,-3.5501,-3.5467,-3.546,-3.546,-3.5488,-3.5494,-3.5467,-3.5494,-3.5534,-3.5507,-3.55,-3.55,-3.55,-3.55,-3.5173,-3.4302,-3.4563,-3.4156,-3.2561,-3.1439,-3.08,-3.08,-3.08,-3.08,-3.08,-3.08,-3.08,-3.08,-3.08,-3.08,-3.08,-3.08,-3.08,-3.08,-3.0844,-3.0867]},{"header":{"parameterUnit":"m.s-1","parameterCategory":1,"la1":30.6,"la2":29.2853,"lo1":-89.7004,"lo2":-87.6739,"dy":0.0162,"dx":0.0183,"nx":112,"ny":82,"refTime":"2026-04-15T00:00:00:Z","depth":0,"parameterNumber":3,"parameterNumberName":"V-component_of_WINDS"},"data":[0.0,0.0,0.0,0.0,0.0,0.0,0.0,0.0,0.0,0.0,0.0,0.0,0.0,0.0,0.0,0.0,0.0,0.0,0.0,0.0,0.0,0.0,0.0,0.0,0.0,0.0,0.0,0.0,0.0,0.0,0.0,0.0,0.0,0.0,0.0,0.0,0.0,0.0,0.0,0.0,0.0,0.0,0.0,0.0,0.0,0.0,0.0,0.0,0.0,0.0,0.0,0.0,0.0,0.0,0.0,0.0,0.0,0.0,0.0,0.0,0.0,0.0,0.0,0.0,0.0,0.0,0.0,0.0,0.0,0.0,0.0,0.0,0.0,0.0,0.0,0.0,0.0,0.0,0.0,0.0,0.0,0.0,0.0,0.0,0.0,0.0,0.0,0.0,0.0,0.0,0.0,-0.8788,-0.9488,-1.0627,-1.2208,-1.3564,-1.4277,-1.4287,0.0,0.0,0.0,0.0,0.0,0.0,0.0,0.0,0.0,0.0,0.0,0.0,0.0,0.0,0.0,0.0,0.0,0.0,0.0,0.0,0.0,0.0,0.0,0.0,0.0,0.0,0.0,0.0,0.0,0.0,0.0,0.0,0.0,0.0,0.0,0.0,0.0,0.0,0.0,0.0,0.0,0.0,0.0,0.0,0.0,0.0,0.0,0.0,0.0,0.0,0.0,0.0,0.0,0.0,0.0,0.0,0.0,0.0,0.0,0.0,0.0,0.0,0.0,0.0,0.0,0.0,0.0,0.0,0.0,0.0,0.0,0.0,0.0,0.0,0.0,0.0,0.0,0.0,0.0,0.0,0.0,0.0,0.0,0.0,0.0,0.0,0.0,0.0,0.0,0.0,0.0,0.0,0.0,0.0,0.0,0.0,0.0,0.0,0.0,0.0,0.0,0.0,0.0,0.0,-0.813,-0.9344,-0.9703,-1.0454,-1.2078,-1.3213,-1.3918,-1.4107,0.0,0.0,0.0,0.0,0.0,0.0,0.0,0.0,0.0,0.0,0.0,0.0,0.0,0.0,0.0,0.0,0.0,0.0,0.0,0.0,0.0,0.0,0.0,0.0,0.0,0.0,0.0,0.0,0.0,0.0,0.0,0.0,0.0,0.0,0.0,0.0,0.0,0.0,0.0,0.0,0.0,0.0,0.0,0.0,0.0,0.0,0.0,0.0,0.0,0.0,0.0,0.0,0.0,0.0,0.0,0.0,0.0,0.0,0.0,0.0,0.0,0.0,0.0,0.0,0.0,0.0,0.0,0.0,0.0,0.0,0.0,0.0,0.0,0.0,0.0,0.0,0.0,0.0,0.0,0.0,0.0,0.0,0.0,0.0,0.0,0.0,0.0,0.0,0.0,0.0,0.0,0.0,0.0,0.0,0.0,0.0,0.0,0.0,0.0,0.0,0.0,0.0,0.0,-0.7943,-0.8438,-0.9384,-0.9618,-1.0003,-1.0715,-1.2524,-1.3275,-1.2602,-1.4241,0.0,0.0,0.0,0.0,0.0,0.0,0.0,0.0,0.0,0.0,0.0,0.0,0.0,0.0,0.0,0.0,0.0,0.0,0.0,0.0,0.0,0.0,0.0,0.0,0.0,0.0,0.0,0.0,0.0,0.0,0.0,0.0,0.0,0.0,0.0,0.0,0.0,0.0,0.0,0.0,0.0,0.0,0.0,0.0,0.0,0.0,0.0,0.0,0.0,0.0,0.0,0.0,0.0,0.0,0.0,0.0,0.0,0.0,0.0,0.0,0.0,0.0,0.0,0.0,0.0,0.0,0.0,0.0,0.0,0.0,0.0,0.0,0.0,0.0,0.0,0.0,0.0,0.0,0.0,0.0,0.0,0.0,0.0,0.0,0.0,0.0,0.0,0.0,0.0,0.0,0.0,0.0,0.0,0.0,0.0,0.0,0.0,0.0,0.0,0.0,0.0,0.0,-0.8391,-0.8781,-0.9273,-0.9462,-0.954,-0.9503,-1.1543,-1.2408,-1.1341,-1.3197,0.0,0.0,0.0,0.0,0.0,0.0,0.0,0.0,0.0,0.0,0.0,0.0,0.0,0.0,0.0,0.0,0.0,0.0,0.0,0.0,0.0,0.0,0.0,0.0,0.0,0.0,0.0,0.0,0.0,0.0,0.0,0.0,0.0,0.0,0.0,0.0,0.0,0.0,0.0,0.0,0.0,0.0,0.0,0.0,0.0,0.0,0.0,0.0,0.0,0.0,0.0,0.0,0.0,0.0,0.0,0.0,0.0,0.0,0.0,0.0,0.0,0.0,0.0,0.0,0.0,0.0,0.0,0.0,0.0,0.0,0.0,0.0,0.0,0.0,0.0,0.0,0.0,0.0,0.0,0.0,0.0,0.0,0.0,0.0,0.0,0.0,0.0,0.0,0.0,0.0,0.0,0.0,0.0,0.0,0.0,0.0,0.0,0.0,0.0,0.0,0.0,0.0,-0.8384,-0.8974,-0.9207,-0.9306,-0.934,-0.9255,-1.0235,-1.0977,-1.1111,-1.1844,0.0,0.0,0.0,0.0,0.0,0.0,0.0,0.0,0.0,0.0,0.0,0.0,0.0,0.0,0.0,0.0,0.0,0.0,0.0,0.0,0.0,0.0,0.0,0.0,0.0,0.0,0.0,0.0,0.0,0.0,0.0,0.0,0.0,0.0,0.0,0.0,0.0,0.0,0.0,0.0,0.0,0.0,0.0,0.0,0.0,0.0,0.0,0.0,0.0,0.0,0.0,0.0,0.0,0.0,0.0,0.0,0.0,0.0,0.0,0.0,0.0,0.0,0.0,0.0,0.0,0.0,0.0,0.0,0.0,0.0,0.0,0.0,0.0,0.0,0.0,0.0,0.0,0.0,0.0,0.0,0.0,0.0,0.0,0.0,0.0,0.0,0.0,0.0,0.0,0.0,0.0,0.0,0.0,0.0,0.0,0.0,0.0,0.0,0.0,0.0,0.0,0.0,-0.814,-0.8686,0.0,-0.9123,-0.9083,-0.9025,-1.0067,-1.0711,-1.0665,0.0,0.0,0.0,0.0,0.0,0.0,0.0,0.0,0.0,0.0,0.0,0.0,0.0,0.0,0.0,0.0,0.0,0.0,0.0,0.0,0.0,0.0,0.0,0.0,0.0,0.0,0.0,0.0,0.0,0.0,0.0,0.0,0.0,0.0,0.0,0.0,0.0,0.0,0.0,0.0,0.0,0.0,0.0,0.0,0.0,0.0,0.0,0.0,0.0,0.0,0.0,0.0,0.0,0.0,0.0,0.0,0.0,0.0,0.0,0.0,0.0,0.0,0.0,0.0,0.0,0.0,0.0,0.0,0.0,0.0,0.0,0.0,0.0,0.0,0.0,0.0,0.0,0.0,0.0,0.0,0.0,0.0,0.0,0.0,0.0,0.0,0.0,0.0,0.0,0.0,0.0,0.0,0.0,0.0,0.0,0.0,0.0,0.0,0.0,0.0,0.0,0.0,-0.7461,-0.7963,-0.8494,0.0,-0.8852,-0.8794,-0.8794,-0.9354,-0.9778,-0.9875,0.0,0.0,0.0,0.0,0.0,0.0,0.0,0.0,0.0,0.0,0.0,0.0,0.0,0.0,0.0,0.0,0.0,0.0,0.0,0.0,0.0,0.0,0.0,0.0,0.0,0.0,0.0,0.0,0.0,0.0,0.0,0.0,0.0,0.0,0.0,0.0,0.0,0.0,0.0,0.0,0.0,0.0,0.0,0.0,0.0,0.0,0.0,0.0,0.0,0.0,0.0,0.0,0.0,0.0,0.0,0.0,0.0,0.0,0.0,0.0,0.0,0.0,0.0,0.0,0.0,0.0,0.0,0.0,0.0,0.0,0.0,0.0,0.0,0.0,0.0,0.0,0.0,0.0,0.0,0.0,0.0,0.0,0.0,0.0,0.0,0.0,0.0,0.0,0.0,0.0,0.0,0.0,0.0,0.0,0.0,0.0,0.0,0.0,0.0,0.0,0.0,0.0,-0.7378,-0.7948,-0.8378,-0.8465,-0.8479,-0.8479,-0.8479,-0.794,-0.7926,0.0,0.0,0.0,0.0,0.0,0.0,0.0,0.0,0.0,0.0,0.0,0.0,0.0,0.0,0.0,0.0,0.0,0.0,0.0,0.0,0.0,0.0,0.0,0.0,0.0,0.0,0.0,0.0,0.0,0.0,0.0,0.0,0.0,0.0,0.0,0.0,0.0,0.0,0.0,0.0,0.0,0.0,0.0,0.0,0.0,0.0,0.0,0.0,0.0,0.0,0.0,0.0,0.0,0.0,0.0,0.0,0.0,0.0,0.0,0.0,0.0,0.0,0.0,0.0,0.0,0.0,0.0,0.0,0.0,0.0,0.0,0.0,0.0,0.0,0.0,0.0,0.0,0.0,0.0,0.0,0.0,0.0,0.0,0.0,0.0,0.0,0.0,0.0,0.0,0.0,0.0,0.0,0.0,0.0,0.0,0.0,0.0,0.0,0.0,0.0,0.0,0.0,0.0,-0.7378,-0.7948,-0.8378,-0.8465,-0.8391,-0.8385,-0.8385,-0.7974,-0.7945,-0.8476,0.0,0.0,0.0,0.0,0.0,0.0,0.0,0.0,0.0,0.0,0.0,0.0,0.0,0.0,0.0,0.0,0.0,0.0,0.0,0.0,0.0,0.0,0.0,0.0,0.0,0.0,0.0,0.0,0.0,0.0,0.0,0.0,0.0,0.0,0.0,0.0,0.0,0.0,0.0,0.0,0.0,0.0,0.0,0.0,0.0,0.0,0.0,0.0,0.0,0.0,0.0,0.0,0.0,0.0,0.0,0.0,0.0,0.0,0.0,0.0,0.0,0.0,0.0,0.0,0.0,0.0,0.0,0.0,0.0,0.0,0.0,0.0,0.0,0.0,0.0,0.0,0.0,0.0,0.0,0.0,0.0,0.0,0.0,0.0,0.0,0.0,0.0,0.0,0.0,0.0,0.0,0.0,0.0,0.0,0.0,0.0,0.0,0.0,0.0,0.0,0.0,0.0,-0.7149,-0.7716,-0.8143,-0.8289,-0.8228,-0.8177,-0.8177,-0.7902,-0.7699,-0.7712,0.0,0.0,0.0,0.0,0.0,0.0,0.0,0.0,0.0,0.0,0.0,0.0,0.0,0.0,0.0,0.0,0.0,0.0,0.0,0.0,0.0,0.0,0.0,0.0,0.0,0.0,0.0,0.0,0.0,0.0,0.0,0.0,0.0,0.0,0.0,0.0,0.0,0.0,0.0,0.0,0.0,0.0,0.0,0.0,0.0,0.0,0.0,0.0,0.0,0.0,0.0,0.0,0.0,0.0,0.0,0.0,0.0,0.0,0.0,0.0,0.0,0.0,0.0,0.0,0.0,0.0,0.0,0.0,0.0,0.0,0.0,0.0,0.0,0.0,0.0,0.0,0.0,0.0,0.0,0.0,0.0,0.0,0.0,0.0,0.0,0.0,0.0,0.0,0.0,0.0,0.0,0.0,0.0,0.0,0.0,0.0,0.0,0.0,0.0,0.0,0.0,0.0,-0.6829,-0.7444,-0.7868,-0.7975,-0.7988,-0.7985,-0.7971,-0.776,-0.7343,-0.6739,0.0,0.0,0.0,0.0,0.0,0.0,0.0,0.0,0.0,0.0,0.0,0.0,0.0,0.0,0.0,0.0,0.0,0.0,0.0,0.0,0.0,0.0,0.0,0.0,0.0,0.0,0.0,0.0,0.0,0.0,0.0,0.0,0.0,0.0,0.0,0.0,0.0,0.0,0.0,0.0,0.0,0.0,0.0,0.0,0.0,0.0,0.0,0.0,0.0,0.0,0.0,0.0,0.0,0.0,0.0,0.0,0.0,0.0,0.0,0.0,0.0,0.0,0.0,0.0,0.0,0.0,0.0,0.0,0.0,0.0,0.0,0.0,0.0,0.0,0.0,0.0,0.0,0.0,0.0,0.0,0.0,0.0,0.0,0.0,0.0,0.0,0.0,0.0,0.0,0.0,0.0,0.0,0.0,0.0,0.0,0.0,0.0,0.0,0.0,0.0,0.0,0.0,-0.6829,-0.7444,-0.7868,-0.7975,-0.7988,-0.7941,-0.7872,-0.7699,-0.7343,-0.6739,-0.6433,0.0,0.0,0.0,0.0,0.0,0.0,0.0,0.0,0.0,0.0,0.0,0.0,0.0,0.0,0.0,0.0,0.0,0.0,0.0,0.0,0.0,0.0,0.0,0.0,0.0,0.0,0.0,0.0,0.0,0.0,0.0,0.0,0.0,0.0,0.0,0.0,0.0,0.0,0.0,0.0,0.0,0.0,0.0,0.0,0.0,0.0,0.0,0.0,0.0,0.0,0.0,0.0,0.0,0.0,0.0,0.0,0.0,0.0,0.0,0.0,0.0,0.0,0.0,0.0,0.0,0.0,0.0,0.0,0.0,0.0,0.0,0.0,0.0,0.0,0.0,0.0,0.0,0.0,0.0,0.0,0.0,0.0,0.0,0.0,0.0,0.0,0.0,0.0,0.0,0.0,0.0,0.0,0.0,0.0,0.0,0.0,0.0,0.0,0.0,0.0,0.0,-0.6458,-0.6962,-0.737,-0.7614,-0.7627,-0.7649,-0.7716,-0.7577,-0.7265,-0.6732,-0.6278,0.0,0.0,0.0,0.0,0.0,0.0,0.0,0.0,0.0,0.0,0.0,0.0,0.0,0.0,0.0,0.0,0.0,0.0,0.0,0.0,0.0,0.0,0.0,0.0,0.0,0.0,0.0,0.0,0.0,0.0,0.0,0.0,0.0,0.0,0.0,0.0,0.0,0.0,0.0,0.0,0.0,0.0,0.0,0.0,0.0,0.0,0.0,0.0,0.0,0.0,0.0,0.0,0.0,0.4282,0.2881,0.2428,0.1116,0.0351,0.0058,0.0,0.0,0.0,0.0,0.0,0.0,0.0,0.0,0.0,0.0,0.0,0.0,0.0,0.0,0.0,0.0,0.0,0.0,0.0,0.0,0.0,0.0,0.0,0.0,0.0,0.0,0.0,0.0,-0.5981,-0.5906,0.0,0.0,0.0,0.0,0.0,0.0,0.0,0.0,0.0,0.0,0.0,0.0,-0.6033,-0.6449,-0.6826,-0.7104,-0.7167,-0.7255,-0.747,-0.7398,-0.7136,-0.6729,-0.6325,-0.5918,0.0,0.0,0.0,0.0,0.0,0.0,0.0,0.0,0.0,0.0,0.0,0.0,0.0,0.0,0.0,0.0,0.0,0.0,0.0,0.0,0.0,0.0,0.0,0.0,0.0,0.0,0.0,0.0,0.0,0.0,0.0,0.0,0.8777,0.847,0.0,0.0,0.0,0.0,0.0,0.0,0.0,0.0,0.0,0.0,0.0,0.0,0.0,0.8974,0.9232,0.8275,0.7098,0.5837,0.4351,0.2947,0.1657,0.0869,0.0499,0.0436,0.0122,0.0,0.0,0.0,0.0,0.0,0.0,0.0,0.0,0.0,0.0,0.0,0.0,0.0,0.0,0.0,0.0,0.0,0.0,0.0,0.0,0.0,0.0,0.0,0.0,0.0,-0.6124,-0.5972,-0.5925,-0.5879,0.0,-0.568,-0.5557,-0.518,0.0,0.0,0.0,0.0,0.0,0.0,0.0,0.0,-0.5958,-0.642,-0.6783,-0.692,-0.6938,-0.6982,-0.705,-0.7067,-0.6961,-0.6729,-0.6519,-0.6271,-0.5919,-0.5549,0.0,0.0,0.0,0.0,0.0,0.0,0.0,0.0,0.0,0.0,0.0,0.0,0.0,0.0,0.0,0.0,0.0,0.0,0.0,0.0,0.0,0.0,0.0,0.0,0.0,0.0,0.0,0.0,0.0,1.0883,0.9927,0.9678,0.9112,0.8564,0.0,0.0,0.0,0.0,0.0,0.0,0.0,0.0,0.0,0.9205,0.9357,0.9537,0.9754,0.9409,0.8952,0.84,0.7022,0.5905,0.5104,0.3229,0.2251,0.1976,0.0818,0.0365,0.052,0.017,0.0,0.0,0.0,0.0,0.0,0.0,0.0,0.0,0.0,0.0,0.0,0.0,0.0,0.0,0.0,0.0,0.0,0.0,0.0,0.0,0.0,0.0,0.0,-0.6015,-0.6005,-0.5972,-0.5855,-0.5833,-0.5738,0.0,-0.537,-0.5278,-0.4881,0.0,0.0,0.0,0.0,0.0,-0.5585,-0.5801,-0.6019,-0.621,-0.6216,-0.628,-0.6483,-0.6477,-0.6406,-0.6263,-0.6192,-0.6057,-0.5847,-0.5611,-0.5376,0.0,0.0,0.0,0.0,0.0,0.0,0.0,0.0,0.0,0.0,0.0,0.0,0.0,0.0,0.0,0.0,0.0,0.0,0.0,0.0,0.0,0.0,0.0,0.0,0.0,0.0,0.0,0.0,1.1775,1.1054,1.0405,0.9776,0.9179,0.0,0.0,0.0,0.0,0.0,0.0,0.904,0.9283,0.9565,0.9771,0.9917,1.0066,1.0156,1.0337,1.0249,1.0022,0.8972,0.8144,0.7457,0.5279,0.3913,0.3213,0.1777,0.106,0.0853,0.0236,0.0057,0.0109,0.0053,0.0,0.0,0.0,0.0,0.0,0.0,0.0,0.0,0.0,0.0,0.0,0.0,0.0,0.0,0.0,0.0,-0.273,-0.3411,-0.4617,-0.558,-0.561,-0.5803,-0.6013,-0.5877,-0.5834,-0.5773,0.0,-0.5586,-0.5453,-0.5076,0.0,0.0,0.0,0.0,-0.5254,-0.5286,-0.536,-0.5455,-0.5624,-0.5413,-0.541,-0.5657,-0.5488,-0.5309,-0.5229,-0.5255,-0.5212,-0.5052,-0.5129,-0.5068,-0.4824,0.0,0.0,0.0,0.0,0.0,0.0,0.0,0.0,0.0,0.0,0.0,0.0,0.0,0.0,0.0,0.0,0.0,0.0,0.0,0.0,0.0,0.0,0.0,0.0,0.0,0.0,0.0,0.0,0.0,1.0004,1.0357,0.0,0.0,0.0,0.0,0.9343,0.9476,0.9561,0.9574,0.9849,1.0142,1.0243,1.0385,1.0531,1.0683,1.0694,1.0031,0.8698,0.8632,0.7781,0.6245,0.5844,0.4822,0.3471,0.3043,0.1953,0.0503,0.0122,0.0177,0.0457,0.0112,0.0,0.0,0.0,0.0,0.0,0.0,0.0,0.0,0.0,0.0,0.0,0.0,0.0,0.0,0.0,-0.0841,-0.1659,-0.1709,-0.3225,-0.4643,-0.4291,-0.5083,-0.5866,-0.5634,-0.5684,-0.5659,0.0,-0.5497,-0.5383,-0.5053,0.0,-0.4963,-0.4828,-0.4925,-0.5056,-0.5205,-0.5331,-0.541,-0.541,-0.4655,-0.4277,-0.4564,-0.3809,-0.3359,-0.3445,-0.3476,-0.3444,-0.3251,-0.3786,-0.4075,-0.4065,-0.4418,0.0,0.0,0.0,0.0,0.0,0.0,0.0,0.0,0.0,0.0,0.0,0.0,0.0,0.0,0.0,0.0,0.0,0.0,0.0,0.0,0.0,0.0,0.0,0.0,0.0,0.0,0.0,0.0,1.2878,1.2061,0.0,1.0482,1.0558,1.0442,1.0046,1.0169,1.0221,1.0168,1.0276,1.0405,1.0558,1.0612,1.0666,1.0721,1.0721,1.0452,0.9978,0.9886,0.949,0.8918,0.7798,0.6485,0.5131,0.3847,0.2633,0.1431,0.0615,0.0363,0.0474,0.035,0.0342,0.0278,0.0056,0.0,0.0,0.0,0.0,0.0,0.0,0.0,0.0,0.0,0.0,0.0,0.0,-0.0765,-0.157,-0.1332,-0.232,-0.3322,-0.2912,-0.3162,-0.3477,-0.3571,-0.3638,-0.3687,-0.3789,-0.4726,-0.5419,-0.5175,-0.5127,-0.5059,-0.4825,-0.4901,-0.4833,-0.4351,-0.4349,-0.417,-0.3609,-0.3249,-0.3129,-0.3207,-0.2925,-0.2771,-0.2787,-0.2935,-0.2999,-0.291,-0.3158,-0.325,-0.3159,-0.3635,-0.3689,0.0,0.0,0.0,0.0,0.0,0.0,0.0,0.0,0.0,0.0,0.0,0.0,0.0,0.0,0.0,0.0,0.0,0.0,0.0,0.0,0.0,0.0,0.0,0.0,0.0,0.0,1.406,1.3699,1.2804,1.1957,1.1445,1.1425,1.1287,1.0802,1.0818,1.0746,1.0558,1.0568,1.0616,1.0717,1.0721,1.0721,1.0721,1.0721,1.0694,1.0639,1.0541,1.0439,1.0274,0.9218,0.7966,0.6609,0.4991,0.3603,0.2406,0.142,0.0859,0.0668,0.0538,0.0584,0.0571,0.0287,0.017,0.0111,0.0056,0.0,0.0,0.0,0.0,0.0,0.0,0.0,0.0,0.0099,-0.0391,-0.0864,-0.0524,-0.1218,-0.1927,-0.1618,-0.1832,-0.2144,-0.2235,-0.2355,-0.2467,-0.2608,-0.3729,-0.4574,-0.4369,-0.4376,-0.4398,-0.4459,-0.4301,-0.407,-0.383,-0.3558,-0.3127,-0.2543,-0.227,-0.2113,-0.2113,-0.1838,-0.166,-0.166,-0.1768,-0.1839,-0.1843,-0.2141,-0.2369,-0.2512,-0.321,-0.334,-0.282,0.0,0.0,0.0,0.0,0.0,0.0,0.0,0.0,0.0,0.0,0.0,0.0,0.0,0.0,0.0,0.0,0.0,0.0,0.0,0.0,0.0,0.0,0.0,1.2511,1.3126,1.3216,1.2246,1.2532,1.2714,1.2365,1.2158,1.1862,1.1534,1.1355,1.1052,1.0721,1.0721,1.0721,1.0721,1.0721,1.0721,1.0721,1.0721,1.0643,1.049,1.0487,1.0331,0.9987,0.998,0.9214,0.7795,0.6505,0.4977,0.3326,0.2406,0.1605,0.0986,0.0668,0.0657,0.0882,0.0637,0.0455,0.0336,0.0112,0.0,0.0,0.0,0.0,0.0,0.0,0.0,0.0051,0.0303,0.0398,0.0488,0.0719,0.0094,-0.0597,-0.0405,-0.1208,-0.192,-0.1745,-0.1937,-0.208,-0.2122,-0.2468,-0.2776,-0.2696,-0.2674,-0.2933,-0.3647,-0.301,0.0,-0.3593,-0.2968,-0.2461,-0.2423,-0.172,-0.1252,-0.1252,-0.0498,0.0,0.0,0.0,0.0,0.0,-0.069,-0.1396,-0.2059,-0.3179,-0.3405,-0.2708,0.0,0.0,0.0,0.0,0.0,0.0,0.0,0.0,0.0,0.0,0.0,0.0,0.0,0.0,0.0,0.0,0.0,0.0,0.0,0.0,0.0,1.4187,1.4536,1.4427,1.424,1.4093,1.4196,1.3649,1.3133,1.2901,1.2855,1.2632,1.2115,1.1816,1.1449,1.1049,1.085,1.0721,1.0721,1.0721,1.0721,1.0721,1.0721,1.0643,1.049,1.0388,1.0236,0.9984,0.9872,0.912,0.785,0.6498,0.5113,0.3628,0.2194,0.1651,0.1667,0.1352,0.1086,0.0883,0.0821,0.0632,0.0336,0.0112,0.0,0.0,0.0,0.0,0.0,0.0,0.0152,0.0303,0.0404,0.0543,0.072,0.0955,0.079,0.0677,0.0853,0.0672,0.0403,0.0314,0.0221,0.0087,-0.0085,-0.0251,-0.0783,-0.2032,-0.2197,-0.2206,-0.2387,-0.2345,0.0,-0.1756,-0.1639,-0.1373,-0.0764,-0.0497,-0.0344,-0.0344,-0.0149,0.0,0.0,0.0,0.0,0.0,-0.0197,-0.0655,-0.1352,-0.2031,-0.2456,0.0,0.0,0.0,0.0,0.0,0.0,0.0,0.0,0.0,0.0,0.0,0.0,0.0,0.0,0.0,0.0,0.0,0.0,0.0,0.0,0.0,0.0,1.3582,1.4038,1.4274,1.392,1.3849,1.4302,1.3709,1.3214,1.3104,1.3031,1.2813,1.2316,1.1978,1.1648,1.1247,1.085,1.0721,1.0721,1.0721,1.0721,1.0721,1.0656,1.0551,1.0402,1.0253,1.0103,0.9889,0.9863,0.9361,0.0,0.7175,0.5858,0.4506,0.3022,0.213,0.0,0.0,0.0,0.0,0.0,0.0855,0.0561,0.0449,0.0277,0.0164,0.0161,0.0105,0.0,0.0,0.0202,0.0404,0.0556,0.0737,0.1001,0.1192,0.1249,0.1256,0.139,0.1391,0.1387,0.1241,0.1176,0.1109,0.0959,0.0,0.0,-0.048,-0.079,-0.0978,-0.1291,-0.1164,-0.0959,-0.0832,-0.0674,-0.0372,0.0074,0.0112,0.0075,0.0,0.0,0.0,0.0,0.0,0.0,0.0,-0.0287,0.0,0.0,0.0,0.0,0.0,0.0,0.0,0.0,-0.3583,-0.3622,0.0,0.0,0.0,0.0,0.0,0.0,0.0,0.0,0.0,0.0,0.0,0.0,0.0,0.0,0.0,0.0,1.275,1.291,1.3143,1.2974,1.299,1.3331,1.3189,1.3063,1.3063,1.2925,1.2704,1.2375,1.1978,1.1648,1.1317,0.0,0.0,0.0,0.0,1.0711,1.0694,1.0561,1.0412,1.0253,1.0114,0.9906,0.9822,0.9822,0.9744,0.9549,0.8227,0.6908,0.559,0.4272,0.2855,0.154,0.1476,0.1631,0.1879,0.1476,0.1121,0.0953,0.0897,0.0,0.0,0.0376,0.0211,0.0,0.0,0.0202,0.0505,0.0758,0.0983,0.1192,0.1431,0.1435,0.1391,0.1391,0.1387,0.1378,0.1396,0.1365,0.1293,0.1308,0.1318,0.1296,0.1296,0.0943,0.0432,-0.0274,0.0192,0.0341,-0.0414,0.0074,0.0473,0.0327,0.0,0.0,0.0073,0.0036,0.0035,0.0035,0.0,0.0,0.0,-0.0722,-0.0805,-0.0124,-0.2004,-0.2709,-0.2125,-0.3322,-0.3911,-0.3919,-0.3727,-0.3735,0.0,0.0,0.0,0.0,0.0,0.0,0.0,0.0,0.0,0.0,0.0,0.0,0.0,0.0,0.0,1.3525,1.3774,1.4072,1.3403,1.3161,1.3124,1.3344,1.3084,1.2885,1.2885,1.279,1.277,1.2704,1.2111,1.178,1.1714,1.1052,0.0,1.0721,1.0721,1.066,1.0538,1.0507,1.0358,1.0031,0.0,0.0,0.9822,0.9822,0.9744,0.9549,0.8289,0.6968,0.559,0.4392,0.3079,0.1816,0.1554,0.16,0.1879,0.1476,0.129,0.1177,0.0953,0.0666,0.0382,0.0376,0.0211,0.0,0.0,0.0354,0.0,0.0808,0.1081,0.1431,0.1478,0.1435,0.1391,0.1391,0.1416,0.1397,0.1391,0.1349,0.1309,0.1303,0.1318,0.1296,0.1296,0.1218,0.11,0.0942,0.09,0.0769,0.0627,0.0585,0.0542,0.046,0.0459,0.0459,0.0423,0.0316,0.0241,0.0231,0.0098,0.0,0.0,-0.0705,-0.1022,-0.0894,-0.2275,-0.2923,-0.2801,-0.3536,-0.3954,-0.4046,-0.3903,-0.386,0.0,0.0,0.0,0.0,0.0,0.0,0.0,0.0,0.0,0.0,0.0,1.7715,1.6546,0.0,1.5989,1.4385,1.4099,1.3929,1.3535,1.3348,1.3267,1.336,1.3055,1.277,1.277,1.277,1.277,1.277,1.2177,1.178,1.178,1.1118,1.0721,1.0721,1.0646,1.0568,1.049,1.0344,1.0195,0.9984,0.9909,0.9893,0.9819,0.9747,0.9635,0.9493,0.8843,0.7477,0.5467,0.3661,0.2521,0.1905,0.1699,0.1688,0.1799,0.1642,0.157,0.1513,0.1388,0.115,0.0862,0.0847,0.0624,0.0409,0.0405,0.0657,0.101,0.101,0.1229,0.1478,0.1478,0.1435,0.1391,0.1391,0.1412,0.1386,0.1372,0.1334,0.1298,0.1283,0.1307,0.1296,0.1296,0.1296,0.1291,0.1237,0.1145,0.1046,0.1006,0.0918,0.0802,0.0654,0.0653,0.0619,0.0515,0.0447,0.0408,0.0397,0.0297,0.023,0.0162,-0.0548,-0.0998,-0.1094,-0.241,-0.3107,-0.3117,-0.3764,-0.4148,-0.4208,-0.4145,-0.4086,0.0,0.0,0.0,0.0,0.0,0.0,0.0,0.0,1.7463,1.7851,1.8426,1.8476,1.7246,1.6555,1.5804,1.4636,1.3809,1.3368,1.3518,1.3409,1.3319,1.3319,1.3035,1.277,1.277,1.277,1.277,1.277,1.2177,1.178,1.178,1.1118,1.0707,1.0677,1.0558,1.0463,1.0405,1.0105,0.9974,0.9943,0.988,0.9822,0.9815,0.9676,0.9527,0.9381,0.8852,0.746,0.5371,0.2937,0.191,0.1874,0.185,0.178,0.1828,0.1804,0.1795,0.1791,0.1815,0.1567,0.1275,0.1305,0.1077,0.0808,0.0808,0.101,0.1211,0.1207,0.1323,0.1477,0.1519,0.143,0.1391,0.1391,0.1408,0.1376,0.1311,0.1319,0.1286,0.1302,0.1296,0.1296,0.1296,0.1296,0.1286,0.1216,0.1191,0.1162,0.1125,0.1099,0.1049,0.0876,0.0843,0.0775,0.0573,0.0573,0.0539,0.0506,0.0506,0.0434,0.0293,-0.0552,-0.1039,-0.1104,-0.2628,-0.3346,-0.3215,-0.3928,-0.43,-0.43,-0.43,-0.43,1.1518,1.1466,1.18,1.3261,1.3763,1.449,0.0,0.0,1.7121,1.7894,1.8358,1.8003,1.5877,1.5783,1.5301,1.3221,1.3021,1.3133,1.3153,1.3137,1.3124,1.3124,1.2954,1.277,1.277,1.277,1.277,1.277,1.2177,1.178,1.178,1.1118,1.066,1.0521,1.05,1.0365,1.0038,1.0004,0.992,0.9846,0.9829,0.9822,0.9815,0.9676,0.9527,0.9262,0.692,0.5915,0.5638,0.3011,0.1838,0.1788,0.1784,0.1824,0.18,0.1796,0.1795,0.1791,0.1815,0.1567,0.1275,0.1305,0.1077,0.0808,0.0808,0.101,0.1208,0.1188,0.1358,0.152,0.1493,0.1461,0.1391,0.1391,0.135,0.1309,0.1306,0.1303,0.1301,0.1297,0.1296,0.1296,0.1296,0.1296,0.1286,0.1216,0.1209,0.1186,0.1093,0.1083,0.1106,0.1079,0.1076,0.0976,0.0775,0.0776,0.0674,0.0506,0.0506,0.0438,0.0302,-0.1036,-0.1569,-0.1104,-0.3141,-0.3849,-0.3215,-0.3928,-0.43,-0.43,-0.43,-0.43,1.185,1.195,1.2249,1.3186,1.4037,1.5032,1.6212,1.689,1.7396,1.773,1.8197,1.8121,1.6819,1.6218,1.552,0.0,1.3523,1.3133,1.3242,1.3161,1.3059,1.2958,1.2881,1.277,1.277,1.277,1.277,1.277,1.2177,1.178,1.178,1.103,1.0558,1.0493,1.0324,1.0112,0.9987,0.9899,0.9883,0.9822,0.9822,0.9778,0.9693,0.9544,0.9442,0.9316,0.7311,0.6246,0.5688,0.3703,0.2487,0.1814,0.1814,0.1806,0.1795,0.1795,0.1795,0.1788,0.174,0.1661,0.1538,0.1496,0.1373,0.1263,0.1263,0.1364,0.1409,0.1432,0.1453,0.1519,0.1489,0.1458,0.1391,0.1391,0.1347,0.1305,0.1305,0.13,0.1296,0.1296,0.1296,0.1296,0.1296,0.1281,0.1144,0.0781,0.1,0.1164,0.1102,0.1095,0.1089,0.1111,0.1109,0.1076,0.0976,0.0976,0.0942,0.0841,0.0572,0.0404,0.0404,-0.084,-0.1411,-0.1109,-0.2785,-0.352,-0.3215,-0.3928,-0.43,-0.43,-0.43,-0.43,1.2029,1.2323,1.2704,1.3075,1.4172,1.522,1.5452,1.631,1.7036,1.7103,1.745,1.7491,1.6601,1.5898,1.5195,1.456,1.3648,1.3072,1.3206,1.3063,1.2901,1.2775,1.2722,1.271,1.2755,1.2808,1.277,1.277,1.2177,1.178,1.178,1.0967,1.0473,1.0436,1.0185,0.9967,0.9923,0.9876,0.9822,0.9822,0.9781,0.9707,0.9605,0.9452,0.9381,0.9316,0.7525,0.6383,0.5687,0.3869,0.2617,0.1795,0.1795,0.1795,0.1795,0.1795,0.179,0.1775,0.1722,0.1699,0.1684,0.1633,0.1566,0.1465,0.1465,0.146,0.1398,0.1371,0.1344,0.1318,0.1291,0.1225,0.1211,0.13,0.126,0.1221,0.1305,0.13,0.1296,0.1296,0.1139,0.1021,0.1021,0.0847,0.0601,0.0183,0.0579,0.0922,0.0879,0.1008,0.1042,0.0908,0.0874,0.0807,0.0672,0.0672,0.0672,0.0672,0.0302,0.0101,0.0135,-0.074,-0.1244,-0.1244,-0.248,-0.3149,-0.3215,-0.3928,-0.43,-0.43,-0.43,-0.4317,1.1935,1.2422,1.3108,1.3112,1.3819,1.459,1.4806,1.5274,1.5689,1.5757,1.5768,1.5389,1.4161,1.4047,1.3804,1.2838,1.2731,1.2782,1.2852,1.2698,1.258,1.2637,1.2426,1.2389,0.0,1.2731,1.277,1.277,1.2177,1.178,1.178,1.0967,1.0429,1.029,1.0134,0.9916,0.9829,0.9822,0.9822,0.9819,0.9683,0.9612,0.9605,0.9452,0.9381,0.9262,0.674,0.5689,0.557,0.2949,0.1822,0.1795,0.1795,0.1795,0.1795,0.1795,0.1776,0.1801,0.1715,0.1686,0.171,0.1627,0.1415,0.1212,0.1212,0.1047,0.0832,0.0816,0.08,0.0783,0.0722,0.0718,0.0807,0.1031,0.1043,0.1053,0.1263,0.13,0.1296,0.1296,0.0786,0.0314,0.0314,-0.0115,-0.0488,-0.0549,-0.0071,0.0312,0.0337,0.0773,0.0908,0.037,0.0336,0.0101,-0.0403,-0.0437,-0.0437,-0.0437,-0.047,-0.0571,-0.0739,-0.0975,-0.1244,-0.158,-0.2515,-0.3082,-0.3215,-0.3928,-0.43,-0.43,-0.43,-0.436,1.0637,1.1425,1.2421,1.2747,1.3718,1.4599,1.4809,1.4933,1.4948,1.4953,1.4789,1.4318,1.3438,1.3296,1.3134,1.25,1.254,1.2698,1.282,1.2783,1.2657,1.2422,1.2552,0.0,0.0,0.0,0.0,1.2762,1.2177,1.1732,1.1685,1.0816,1.0283,1.0131,0.9978,0.9873,0.9822,0.9822,0.9822,0.9819,0.9574,0.9459,0.9449,0.9201,0.9195,0.9313,0.7396,0.6232,0.5537,0.375,0.2534,0.1795,0.1795,0.1795,0.1793,0.1828,0.1746,0.1718,0.1707,0.1686,0.1709,0.1626,0.1516,0.1415,0.1263,0.1147,0.1027,0.0863,0.0799,0.0783,0.0721,0.0718,0.0718,0.0807,0.0835,0.0858,0.1056,0.1069,0.0961,0.067,0.0471,0.0118,-0.0392,-0.0691,-0.0708,-0.0322,0.0069,0.0441,0.0774,0.0975,0.0908,0.037,0.0168,-0.0101,-0.0638,-0.0807,-0.0908,-0.0908,-0.1244,-0.1344,-0.1143,-0.1446,-0.1614,-0.1614,-0.2249,-0.2683,-0.2885,-0.3692,-0.4097,-0.4097,-0.4097,-0.4157,0.972,1.0457,1.1292,1.1748,1.2836,1.3773,1.3821,1.4015,1.4156,1.4138,1.384,1.3402,1.2779,1.2768,1.2656,1.2233,1.2357,1.2556,1.2738,1.2779,1.2653,1.2426,1.2548,1.2584,0.0,0.0,0.0,1.2726,1.2215,1.1747,1.152,1.0785,1.0277,0.999,0.99,0.9822,0.9822,0.9822,0.9768,0.9659,0.9469,0.9327,0.9218,0.9079,0.912,0.9232,0.7392,0.6181,0.5492,0.3663,0.2521,0.1795,0.1795,0.1795,0.1791,0.1816,0.1785,0.1703,0.1692,0.167,0.1643,0.1623,0.1516,0.1413,0.1152,0.0987,0.0871,0.0569,0.0511,0.0502,0.045,0.0449,0.0494,0.0583,0.0571,0.0643,0.0929,0.0945,0.084,0.067,0.0471,0.0118,-0.0392,-0.0686,-0.0662,-0.0035,0.0205,0.0504,0.1042,0.0941,0.0605,0.0067,-0.0336,-0.0773,-0.1311,-0.1546,-0.1679,-0.1679,-0.1982,-0.2083,-0.1814,-0.1849,-0.1985,-0.2185,-0.2316,-0.2618,-0.3088,-0.3658,-0.3928,-0.3928,-0.3968,-0.4047,0.9062,0.9454,0.987,1.0215,1.1239,1.2161,1.1987,1.2644,1.3287,1.3199,1.2954,1.2682,1.2122,1.2204,1.2239,1.1992,1.2166,1.243,1.2722,1.2686,1.2641,0.0,0.0,0.0,0.0,0.0,0.0,1.254,0.0,1.1766,1.1288,1.0816,1.0353,0.9974,0.9897,0.9822,0.9822,0.9815,0.9666,0.9381,0.9371,0.9222,0.8898,0.9083,0.9204,0.9037,0.6633,0.5604,0.537,0.2875,0.1795,0.1795,0.1795,0.1794,0.1789,0.1814,0.1782,0.1698,0.1721,0.1641,0.1617,0.1617,0.1415,0.1158,0.0889,0.063,0.038,0.0093,0.0,0.0,0.0,0.0,0.0045,0.0314,0.0348,0.0422,0.0884,0.0895,0.0944,0.1179,0.0668,0.0196,0.0196,-0.0226,-0.0397,0.0176,0.0308,0.0538,0.1042,0.0672,0.0134,-0.0403,-0.1109,-0.1783,-0.2322,-0.2587,-0.272,-0.272,-0.2686,-0.2686,-0.272,-0.2185,-0.2321,-0.3159,-0.2686,-0.2885,-0.3758,-0.3792,-0.3792,-0.3794,-0.3861,-0.3966,0.6784,0.7556,0.8466,0.8547,0.9589,1.0743,1.1292,1.1608,1.1974,1.2372,1.2196,1.1742,1.108,1.1351,0.0,1.1453,1.1922,0.0,1.2722,1.2795,0.0,1.258,0.0,1.2666,1.2572,1.2523,0.0,0.0,1.2055,1.166,1.1179,1.0754,1.0304,0.9883,0.9842,0.9822,0.9822,0.9717,0.9568,0.9381,0.9323,0.9228,0.9096,0.9025,0.9052,0.903,0.6551,0.5452,0.5282,0.2806,0.1795,0.1795,0.1795,0.1781,0.1813,0.1727,0.1697,0.1669,0.1639,0.1624,0.1617,0.1617,0.1566,0.146,0.1185,0.1065,0.0902,0.0419,0.0319,0.0269,0.0045,0.0,0.0,0.009,0.0088,0.0129,0.0423,0.0453,0.0401,0.0158,-0.0549,-0.1131,-0.1112,-0.0744,-0.0397,-0.0246,0.0411,0.0941,0.1076,0.0975,0.0706,0.0168,-0.0571,-0.1277,-0.1985,-0.2587,-0.2956,-0.3058,-0.2618,-0.2517,-0.2922,-0.2252,-0.2253,-0.3025,-0.2922,-0.3023,-0.336,-0.3496,-0.3563,-0.3563,-0.359,-0.3653,0.5592,0.6132,0.6712,0.683,0.7682,0.8826,0.9578,1.0084,1.0578,1.1347,1.1235,1.0884,1.0438,1.0845,1.1151,0.0,0.0,0.0,1.2666,1.2787,1.28,0.0,1.2775,0.0,1.2694,1.2544,1.241,0.0,1.2043,1.1608,1.1003,1.0746,1.04,0.9822,0.9822,0.9791,0.973,0.9649,0.95,0.9337,0.9251,0.9176,0.9055,0.8977,0.8984,0.894,0.0,0.5864,0.525,0.3358,0.2298,0.1793,0.178,0.182,0.1799,0.1701,0.1676,0.171,0.1627,0.1617,0.1617,0.1617,0.1617,0.1558,0.1271,0.1106,0.0948,0.0506,0.0317,0.018,0.0045,0.0,0.0,0.0,0.0,0.0043,0.0253,0.0287,0.0239,0.0118,-0.0314,-0.0623,-0.0646,-0.0185,0.0181,0.0176,0.0684,0.1109,0.1109,0.0908,0.0638,0.0336,-0.0571,-0.1344,-0.185,-0.2587,-0.2922,-0.2787,-0.2417,-0.2283,-0.252,-0.2217,-0.2351,-0.2989,-0.3058,-0.3125,-0.3192,-0.3328,-0.3362,-0.3364,-0.3438,-0.3485,0.4954,0.5011,0.5015,0.5071,0.5784,0.6654,0.7436,0.8323,0.9172,1.014,1.0247,1.0154,0.9951,1.0391,1.0803,1.0894,0.0,1.2101,1.2571,1.2702,1.2808,1.277,1.277,1.2762,1.2804,1.2503,1.2296,1.2272,1.2101,1.162,1.0857,1.0789,1.0486,0.9822,0.9802,0.9734,0.9612,0.9568,0.9415,0.921,0.919,0.9059,0.8885,0.8885,0.8885,0.8826,0.0,0.0,0.5528,0.4137,0.2967,0.2015,0.1871,0.1802,0.1791,0.1735,0.1712,0.1652,0.1626,0.1617,0.1617,0.1617,0.1617,0.1555,0.1303,0.1097,0.0851,0.059,0.0314,0.0135,0.009,0.0045,0.0045,0.0,0.0,0.0042,0.021,0.0244,0.0314,0.0471,0.051,0.0545,0.0568,0.0703,0.0866,0.0876,0.1024,0.1109,0.1109,0.0706,0.0403,0.0403,-0.0638,-0.1446,-0.1715,-0.2353,-0.2552,-0.2181,-0.208,-0.1947,-0.1749,-0.1981,-0.235,-0.2855,-0.3058,-0.3192,-0.3192,-0.3192,-0.3192,-0.3194,-0.3309,-0.3381,0.4009,0.3985,0.401,0.3963,0.426,0.4811,0.5958,0.693,0.0,0.8606,0.9178,0.9444,0.9112,0.9616,1.0151,1.0469,1.1126,1.1817,1.2471,1.2592,1.2666,0.0,1.277,1.2779,1.2625,0.0,0.0,0.0,0.0,1.1558,1.0849,1.0789,1.0486,0.9822,0.9707,0.9635,0.9608,0.9357,0.9262,0.9207,0.9032,0.8908,0.8885,0.8885,0.8885,0.8826,0.0,0.0,0.6649,0.4472,0.3469,0.3185,0.2201,0.1788,0.1708,0.1727,0.1646,0.1624,0.1619,0.1617,0.1617,0.1617,0.1617,0.1605,0.1496,0.1431,0.1324,0.1044,0.0942,0.0808,0.0448,0.0314,0.0269,0.0045,0.0,0.0,0.0042,0.0041,0.0079,0.0079,0.0118,0.0155,0.0333,0.0475,0.061,0.0786,0.0979,0.1109,0.1109,0.1008,0.0975,0.0975,0.037,-0.0302,-0.0941,-0.1109,-0.1412,-0.1916,-0.1378,-0.1041,-0.1008,-0.1445,-0.1816,-0.2085,-0.2721,-0.3092,-0.3192,-0.3192,-0.3192,-0.3192,-0.321,-0.325,0.3789,0.3614,0.3547,0.3601,0.3696,0.3986,0.5224,0.0,0.0,0.7642,0.824,0.8583,0.869,0.9194,0.9697,0.9969,1.0615,1.1297,1.1922,1.217,1.2389,1.2661,1.2779,1.2767,0.0,0.0,0.0,0.0,0.0,1.153,1.0849,1.0486,1.0087,0.9713,0.9646,0.9534,0.9374,0.9282,0.9173,0.9042,0.8971,0.8885,0.8885,0.8885,0.8885,0.8881,0.8269,0.0,0.6985,0.5252,0.4171,0.3417,0.2225,0.1708,0.1679,0.165,0.1629,0.1617,0.1617,0.1617,0.1617,0.1617,0.1606,0.1585,0.154,0.142,0.126,0.1131,0.0987,0.0852,0.0628,0.0538,0.0493,0.0269,0.0087,0.0,0.0,0.0,0.0,0.0,0.0079,0.0193,0.0294,0.051,0.0716,0.0782,0.0976,0.1109,0.1109,0.1109,0.1109,0.1109,0.0605,0.0101,-0.0336,-0.0638,-0.084,-0.0908,-0.0571,-0.0336,-0.0235,-0.0571,-0.1076,-0.1715,-0.2284,-0.2753,-0.3092,-0.3159,-0.3192,-0.3192,-0.3192,-0.3192,0.3537,0.3356,0.3141,0.3311,0.3343,0.3566,0.4505,0.4974,0.5541,0.6867,0.7423,0.7825,0.8504,0.898,0.9328,0.9583,1.0128,1.0733,1.1354,1.1715,1.2065,0.0,1.2637,0.0,0.0,0.0,0.0,0.0,0.0,0.0,1.0849,1.0155,0.9724,0.9612,0.9547,0.9398,0.921,0.918,0.9052,0.8885,0.8885,0.8885,0.8885,0.8885,0.8885,0.8885,0.8885,0.0,0.0,0.6222,0.5005,0.3735,0.2503,0.1891,0.171,0.1628,0.1617,0.1617,0.1617,0.1617,0.1615,0.1609,0.1591,0.1566,0.1535,0.1363,0.1198,0.1173,0.1031,0.0852,0.0807,0.0807,0.0716,0.0532,0.0302,0.0166,0.0119,0.0118,0.0118,0.0118,0.0275,0.0387,0.0404,0.0692,0.0896,0.0883,0.1009,0.1109,0.1109,0.1109,0.1109,0.1109,0.0739,0.037,0.0101,-0.0234,-0.03,0.0033,-0.0066,0.0,0.0266,-0.02,-0.0802,-0.158,-0.2082,-0.2551,-0.2989,-0.3125,-0.3192,-0.3192,-0.3261,-0.3228,0.2763,0.2734,0.2742,0.2729,0.2839,0.3083,0.3453,0.0,0.5062,0.6111,0.6757,0.7469,0.8436,0.8731,0.9035,0.9494,0.9815,1.0262,1.1126,1.1419,1.1744,1.2268,0.0,0.0,0.0,0.0,0.0,0.0,0.0,0.0,1.0781,1.0056,0.9625,0.9608,0.934,0.9238,0.921,0.9025,0.8895,0.8885,0.8885,0.8885,0.8885,0.8885,0.8885,0.8885,0.0,0.0,0.0,0.726,0.6053,0.4837,0.3606,0.2545,0.171,0.1628,0.1617,0.1617,0.1617,0.1617,0.1612,0.1585,0.1623,0.1566,0.1535,0.1505,0.1428,0.1399,0.1345,0.13,0.1121,0.1076,0.0977,0.0727,0.0633,0.0624,0.0556,0.055,0.055,0.055,0.055,0.0619,0.0809,0.0875,0.0931,0.1051,0.1076,0.1109,0.1109,0.1109,0.1109,0.1109,0.1042,0.0807,0.0302,0.0625,0.0648,0.0194,-0.0221,-0.0252,0.0194,-0.1164,-0.1801,-0.1613,-0.2284,-0.2753,-0.2989,-0.3125,-0.3192,-0.3192,-0.3395,-0.3362,0.2615,0.2449,0.2382,0.2529,0.2694,0.2861,0.3074,0.3592,0.4252,0.5052,0.557,0.6251,0.7672,0.7989,0.8264,0.8995,0.9198,0.9518,1.0306,1.0672,1.1098,1.1744,1.2008,0.0,0.0,0.0,0.0,0.0,0.0,0.0,1.0726,1.0087,0.9662,0.9622,0.9329,0.9169,0.9025,0.8967,0.8885,0.8885,0.8885,0.8885,0.8885,0.8885,0.8885,0.8885,0.0,0.0,0.0,0.7405,0.6216,0.4962,0.3789,0.2626,0.1634,0.1622,0.1617,0.1617,0.1617,0.1605,0.1588,0.1624,0.1595,0.1515,0.1502,0.1478,0.1451,0.1394,0.1391,0.1391,0.13,0.1211,0.1065,0.0936,0.08,0.0665,0.0595,0.0589,0.0589,0.0589,0.0707,0.0816,0.09,0.0994,0.108,0.111,0.1087,0.1109,0.1109,0.1109,0.1109,0.1109,0.1109,0.1002,0.0756,0.0877,0.0801,0.0283,0.0032,-0.0159,-0.0322,-0.0933,-0.1392,-0.1671,-0.2064,-0.2489,-0.2881,-0.31,-0.3192,-0.3192,-0.3295,-0.3261,0.2426,0.2271,0.214,0.2365,0.2593,0.2755,0.2751,0.3136,0.363,0.4365,0.4652,0.5275,0.6823,0.7088,0.7405,0.8336,0.8503,0.8819,0.9663,1.0079,1.0517,0.0,0.0,0.0,0.0,0.0,0.0,0.0,0.0,0.0,0.0,1.0185,0.9727,0.9603,0.9279,0.9042,0.8885,0.8885,0.8885,0.8885,0.8885,0.8885,0.8885,0.8885,0.8885,0.8881,0.0,0.0,0.0,0.7683,0.6587,0.5384,0.4206,0.3058,0.2019,0.1718,0.1617,0.1615,0.1607,0.159,0.1617,0.1599,0.1515,0.1479,0.147,0.1453,0.1391,0.1391,0.1391,0.1391,0.1391,0.13,0.1154,0.1107,0.0969,0.0873,0.0833,0.0825,0.0825,0.0825,0.0904,0.1014,0.0989,0.1113,0.1192,0.1125,0.1095,0.1109,0.1109,0.1109,0.1109,0.1109,0.0968,0.0926,0.1014,0.1006,0.08,0.0313,0.0063,-0.0315,-0.0921,-0.1103,-0.1423,-0.1965,-0.2158,-0.2457,-0.2868,-0.3094,-0.3192,-0.3192,-0.3261,-0.3295,0.1945,0.1998,0.2012,0.1985,0.2352,0.2651,0.2435,0.2773,0.3329,0.4129,0.43,0.4699,0.5894,0.6113,0.6468,0.7612,0.7822,0.8219,0.9457,0.9778,0.0,0.0,0.0,0.0,0.0,0.0,0.0,0.0,0.0,0.0,0.0,1.0243,0.9724,0.9596,0.9123,0.8885,0.8885,0.8885,0.8885,0.8885,0.8885,0.8885,0.8885,0.8885,0.8885,0.0,0.0,0.0,0.0,0.8333,0.7519,0.6287,0.5229,0.4124,0.3074,0.1969,0.1617,0.1613,0.1582,0.1621,0.161,0.1501,0.1481,0.1475,0.14,0.1391,0.1391,0.1391,0.1391,0.1391,0.1391,0.1391,0.1376,0.1319,0.1305,0.129,0.131,0.1296,0.1296,0.1296,0.1296,0.1286,0.1217,0.1187,0.1192,0.1125,0.1095,0.1109,0.1109,0.1109,0.1109,0.1109,0.0689,0.0588,0.1073,0.105,0.0774,0.0225,-0.0304,-0.0864,-0.1477,-0.2005,-0.2367,-0.2579,-0.2736,-0.2872,-0.2989,-0.3125,-0.3192,-0.3192,-0.3395,-0.3498,0.1862,0.189,0.1835,0.1885,0.2239,0.259,0.2377,0.2746,0.3184,0.3495,0.354,0.3849,0.487,0.5092,0.5692,0.7429,0.7611,0.8027,0.0,0.0,0.0,0.0,0.0,0.0,0.0,0.0,0.0,0.0,0.0,0.0,0.0,1.0456,1.0125,0.9724,0.9182,0.8885,0.8885,0.8885,0.8885,0.8885,0.8885,0.8885,0.8885,0.8885,0.0,0.0,0.0,0.0,0.0,0.8381,0.7566,0.6284,0.5227,0.4124,0.3074,0.2019,0.1617,0.1613,0.1582,0.1558,0.1534,0.1493,0.1467,0.1448,0.1393,0.1391,0.1391,0.1391,0.1391,0.1391,0.1391,0.1391,0.1376,0.1319,0.1305,0.129,0.131,0.1296,0.1296,0.1296,0.1296,0.1293,0.1284,0.1217,0.1187,0.1157,0.1126,0.1099,0.1112,0.1109,0.1109,0.1109,0.0967,0.0926,0.1015,0.0382,-0.0094,-0.0281,-0.0939,-0.1635,-0.2224,-0.2518,-0.2748,-0.293,-0.2995,-0.3039,-0.3067,-0.3162,-0.3192,-0.3192,-0.3261,-0.3295,0.178,0.1806,0.1806,0.1919,0.2256,0.249,0.2473,0.2788,0.308,0.308,0.3094,0.3272,0.3939,0.4117,0.469,0.6422,0.656,0.7086,0.0,0.0,0.0,1.0428,0.0,0.0,0.0,0.0,0.0,0.0,0.0,0.0,0.0,1.0524,1.0258,0.982,0.9377,0.9102,0.8885,0.8885,0.8885,0.8885,0.8885,0.8885,0.8885,0.8885,0.0,0.0,0.0,0.0,0.0,0.8265,0.7469,0.6284,0.5227,0.4124,0.3074,0.2019,0.1609,0.1595,0.1565,0.1534,0.1504,0.1473,0.1451,0.1391,0.1391,0.1391,0.1391,0.1391,0.1391,0.1391,0.1391,0.1382,0.1362,0.1317,0.1298,0.1317,0.1307,0.1296,0.1296,0.1296,0.1296,0.1296,0.1296,0.126,0.1188,0.1206,0.1131,0.1097,0.1112,0.1109,0.1109,0.1109,0.0933,0.0792,0.0755,0.0161,-0.0415,-0.0893,-0.1412,-0.1997,-0.2641,-0.2802,-0.2957,-0.3089,-0.3091,-0.3107,-0.3142,-0.3166,-0.3192,-0.3192,-0.3192,-0.3192,0.0,0.1788,0.1842,0.2113,0.2273,0.2452,0.2661,0.2849,0.0,0.2931,0.292,0.2964,0.3144,0.3186,0.3588,0.4815,0.4992,0.5692,0.0,0.8243,0.0,0.0,0.0,0.0,0.0,0.0,0.0,0.0,0.0,0.0,0.0,1.0488,1.0213,0.9871,0.9689,0.9416,0.8885,0.8885,0.8885,0.8885,0.8885,0.8885,0.8885,0.8885,0.0,0.0,0.0,0.0,0.0,0.8157,0.7388,0.6284,0.5227,0.4124,0.3074,0.2019,0.1598,0.1567,0.1536,0.1506,0.1476,0.14,0.1391,0.1391,0.1391,0.1391,0.1391,0.1391,0.1391,0.1391,0.1391,0.1412,0.1383,0.1312,0.1283,0.1294,0.1303,0.1296,0.1296,0.1296,0.1296,0.1296,0.1296,0.1248,0.1208,0.1203,0.1153,0.1114,0.111,0.1109,0.1109,0.1109,0.0723,0.0425,0.0302,0.0235,-0.0335,-0.1513,-0.1706,-0.2099,-0.2775,-0.2955,-0.3045,-0.3099,-0.3099,-0.3142,-0.3192,-0.3192,-0.3192,-0.3192,-0.3192,-0.3192,0.1569,0.0,0.1628,0.1924,0.2157,0.2371,0.0,0.284,0.2987,0.2931,0.292,0.2932,0.3021,0.2993,0.3417,0.4715,0.478,0.5506,0.783,0.0,0.0,1.0733,0.0,0.0,0.0,0.0,0.0,0.0,0.0,0.0,0.0,1.077,1.0616,1.0205,1.0025,0.964,0.8885,0.8885,0.8885,0.8885,0.8885,0.8885,0.8885,0.8885,0.0,0.0,0.0,0.0,0.8306,0.8116,0.7388,0.6284,0.5227,0.4124,0.3074,0.2019,0.1598,0.1567,0.1536,0.1506,0.1476,0.14,0.1391,0.1391,0.1391,0.1391,0.1391,0.1391,0.1391,0.1391,0.1391,0.1412,0.1383,0.1312,0.1283,0.1294,0.1303,0.1296,0.1296,0.1296,0.1296,0.1296,0.1296,0.1284,0.1258,0.121,0.119,0.1163,0.1116,0.1109,0.1109,0.1109,0.1003,0.0768,0.0336,-0.056,-0.1215,-0.1578,-0.2304,-0.276,-0.2961,-0.3074,-0.3173,-0.316,-0.316,-0.3172,-0.3192,-0.3192,-0.3192,-0.3192,-0.3192,-0.3192,0.1624,0.1705,0.1789,0.2078,0.2303,0.2519,0.2775,0.2913,0.2949,0.2889,0.2899,0.292,0.2922,0.2943,0.322,0.4034,0.4096,0.0,0.0,0.0,1.0444,0.0,0.0,0.0,0.0,0.0,0.0,0.0,0.0,0.0,0.0,1.0789,1.0687,1.0312,1.0231,0.9846,0.9161,0.8992,0.8885,0.8885,0.8885,0.8885,0.8881,0.8811,0.8791,0.0,0.0,0.0,0.831,0.8102,0.7388,0.6284,0.5227,0.4124,0.307,0.2,0.1577,0.1547,0.1516,0.1485,0.1457,0.1395,0.1391,0.1391,0.1391,0.1391,0.1391,0.1391,0.1381,0.1414,0.1414,0.1382,0.1346,0.1289,0.1304,0.1317,0.13,0.1296,0.1296,0.1296,0.1296,0.1296,0.1296,0.1284,0.1259,0.121,0.1191,0.1129,0.1116,0.1109,0.1109,0.1109,0.1109,0.0874,0.0336,-0.0398,-0.1025,-0.1578,-0.2151,-0.2654,-0.2989,-0.3125,-0.3192,-0.3192,-0.3192,-0.3192,-0.3192,-0.3192,-0.3192,-0.3192,-0.3192,-0.3192,0.1763,0.1933,0.2106,0.2377,0.249,0.27,0.2977,0.2992,0.2904,0.2808,0.2838,0.2908,0.283,0.2943,0.306,0.3276,0.0,0.0,0.6867,0.8949,0.0,0.0,0.0,0.0,0.0,0.0,0.0,0.0,0.0,0.0,0.0,1.0692,1.0582,1.0366,1.0312,1.0036,0.9489,0.9158,0.8937,0.8885,0.8885,0.8871,0.8844,0.8771,0.8686,0.0,0.0,0.0,0.8225,0.8092,0.7388,0.6284,0.5227,0.4168,0.3054,0.1975,0.1549,0.1515,0.1484,0.1457,0.1391,0.1391,0.1391,0.1391,0.1391,0.1391,0.1389,0.1385,0.141,0.1388,0.1384,0.1343,0.1303,0.1303,0.1319,0.1296,0.1296,0.1296,0.1296,0.1296,0.1296,0.1296,0.1257,0.1236,0.1207,0.1172,0.1144,0.1115,0.1114,0.1109,0.1109,0.1109,0.1109,0.0908,0.047,0.0269,-0.0269,-0.1277,-0.1648,-0.2118,-0.2857,-0.2991,-0.3092,-0.3159,-0.3192,-0.3192,-0.3192,-0.3192,-0.3192,-0.3192,-0.3192,-0.3192,0.1873,0.2166,0.2375,0.2443,0.2531,0.264,0.2867,0.2932,0.2915,0.2907,0.2913,0.2947,0.3039,0.3027,0.3055,0.0,0.0,0.6408,0.0,0.0,0.0,0.0,0.0,0.0,0.0,0.0,0.0,0.0,0.0,0.0,0.0,0.0,1.0692,1.0637,1.0421,1.0147,0.9761,0.9489,0.9158,0.8885,0.8885,0.8814,0.8747,0.872,0.8574,0.0,0.0,0.8197,0.8022,0.8002,0.7388,0.6284,0.5227,0.4134,0.3048,0.2014,0.1536,0.1483,0.1453,0.1394,0.1391,0.1391,0.1391,0.1391,0.1391,0.1391,0.1385,0.1404,0.1393,0.1384,0.1318,0.1328,0.1303,0.1303,0.1319,0.1296,0.1296,0.1296,0.1296,0.1296,0.1296,0.1218,0.0982,0.1135,0.1193,0.0991,0.109,0.1175,0.1117,0.1109,0.1109,0.1109,0.1109,0.1076,0.0975,0.0941,0.0605,-0.0202,-0.0975,-0.1681,-0.2288,-0.2452,-0.2686,-0.3023,-0.3125,-0.3192,-0.3192,-0.3192,-0.3192,-0.3192,-0.3192,-0.3192,0.1941,0.2166,0.2371,0.2667,0.2805,0.2948,0.2984,0.2992,0.3005,0.2972,0.2992,0.3022,0.3043,0.0,0.3202,0.3661,0.0,0.0,0.0,0.0,0.0,0.0,0.0,0.0,0.0,0.0,0.0,0.0,0.0,0.0,0.0,0.0,1.0692,1.0692,1.0582,1.0312,0.9816,0.9651,0.9379,0.8885,0.8885,0.8804,0.8706,0.8625,0.8472,0.8316,0.0,0.8106,0.7988,0.7988,0.769,0.7135,0.6082,0.5019,0.3853,0.2155,0.1494,0.1454,0.1395,0.1391,0.1391,0.1391,0.1391,0.1391,0.1391,0.1391,0.1381,0.1337,0.1378,0.138,0.1335,0.1313,0.1299,0.1282,0.1307,0.1296,0.1296,0.1296,0.1296,0.1296,0.1296,0.1218,0.0943,0.1139,0.1198,0.0955,0.1057,0.118,0.1117,0.1109,0.1109,0.1109,0.1109,0.1109,0.1109,0.1009,0.0639,-0.0101,-0.0874,-0.158,-0.2188,-0.2318,-0.2584,-0.2989,-0.3125,-0.3192,-0.3192,-0.3192,-0.3192,-0.3192,-0.3192,-0.3192,0.198,0.218,0.2339,0.2817,0.3042,0.3162,0.3094,0.3093,0.3087,0.3054,0.3086,0.3104,0.3057,0.3209,0.0,0.4155,0.6771,0.0,0.0,0.0,0.0,0.0,0.0,0.0,0.0,0.0,0.0,0.0,0.0,0.0,0.0,0.0,1.0692,1.0692,1.0692,1.0417,0.9816,0.9816,0.9485,0.8885,0.8848,0.8804,0.8652,0.8503,0.8353,0.8211,0.8092,0.7988,0.7988,0.7988,0.7988,0.7885,0.6802,0.5515,0.4131,0.2185,0.1455,0.1391,0.1391,0.1391,0.1391,0.1391,0.1391,0.1391,0.1391,0.1391,0.138,0.1329,0.1373,0.1375,0.1309,0.1292,0.1286,0.1303,0.1296,0.1296,0.1296,0.1296,0.1296,0.1296,0.1296,0.1218,0.0943,0.1094,0.1192,0.0925,0.1056,0.1175,0.1093,0.1114,0.1109,0.1109,0.1109,0.1076,0.1043,0.0808,0.0438,-0.0135,-0.0639,-0.1244,-0.1918,-0.2116,-0.2452,-0.2922,-0.3092,-0.3192,-0.3192,-0.3192,-0.3192,-0.3192,-0.3192,-0.3226,0.2052,0.2183,0.2355,0.2914,0.3054,0.3007,0.3066,0.3093,0.3112,0.3116,0.3081,0.3083,0.3078,0.373,0.424,0.4304,0.0,0.0,0.0,0.0,0.0,0.0,0.0,0.0,0.0,0.0,0.0,0.0,0.0,0.0,0.0,0.0,0.0,1.0692,1.0692,1.0417,0.9816,0.9816,0.9485,0.8881,0.8794,0.8648,0.8492,0.835,0.8201,0.8005,0.7995,0.7988,0.7988,0.7988,0.7988,0.7875,0.6703,0.4934,0.2916,0.1812,0.1392,0.1391,0.1391,0.1391,0.1391,0.1391,0.1391,0.1391,0.1391,0.1391,0.1384,0.1396,0.1388,0.137,0.1323,0.13,0.1299,0.1297,0.1296,0.1296,0.1296,0.1296,0.1296,0.1296,0.1296,0.1218,0.0943,0.108,0.1137,0.0945,0.1015,0.1088,0.1118,0.1093,0.1109,0.1109,0.1109,0.1009,0.0843,0.0539,0.0303,0.027,0.0202,-0.0236,-0.1143,-0.148,-0.1982,-0.272,-0.3025,-0.3192,-0.3192,-0.3192,-0.3192,-0.3192,-0.3192,-0.3295,0.1956,0.2147,0.2296,0.2782,0.2996,0.3094,0.3168,0.3207,0.3337,0.3758,0.3824,0.3912,0.4222,0.0,0.5716,0.5415,0.0,0.0,0.0,0.0,0.0,0.0,0.0,0.0,0.0,0.0,0.0,0.0,0.0,0.0,0.0,0.0,0.0,1.0367,1.0473,1.0205,0.9602,0.966,0.9392,0.8798,0.8737,0.8584,0.8398,0.8347,0.8184,0.7988,0.7988,0.7988,0.7988,0.7988,0.7934,0.7677,0.5868,0.4997,0.4503,0.2212,0.1793,0.224,0.1614,0.1391,0.1391,0.1391,0.1391,0.1391,0.1391,0.1391,0.1381,0.1335,0.1321,0.1352,0.1299,0.1286,0.1281,0.1301,0.1296,0.1296,0.1296,0.1296,0.1296,0.1296,0.1296,0.1218,0.0943,0.1092,0.1195,0.0948,0.1043,0.1164,0.1091,0.1111,0.1097,0.1111,0.0976,0.0842,0.064,0.0404,0.0236,0.0135,0.0101,-0.0337,-0.1379,-0.1547,-0.2051,-0.2989,-0.3261,-0.3328,-0.3192,-0.346,-0.3493,-0.3395,-0.3527,-0.3627,0.1896,0.2084,0.2244,0.2714,0.2962,0.3111,0.3224,0.3292,0.3448,0.4063,0.431,0.4523,0.4932,0.0,0.0,0.0,0.0,0.0,0.0,0.0,0.0,0.0,0.0,0.0,0.0,0.0,0.0,0.0,0.0,0.0,0.0,0.0,0.0,0.0,1.0282,1.0077,0.9595,0.9541,0.9253,0.8676,0.8623,0.8465,0.832,0.8221,0.814,0.7988,0.7988,0.7988,0.7985,0.7938,0.7851,0.7462,0.531,0.5048,0.5463,0.2475,0.2017,0.2777,0.1749,0.1391,0.1391,0.1391,0.1391,0.1391,0.1391,0.1391,0.138,0.1332,0.1313,0.1299,0.1311,0.1296,0.1283,0.1302,0.1296,0.1296,0.1296,0.1296,0.1296,0.1296,0.1296,0.1257,0.1061,0.1171,0.12,0.1036,0.1134,0.1186,0.1154,0.1097,0.1075,0.1012,0.0775,0.0573,0.0438,0.0303,0.0135,0.0,0.0,-0.0472,-0.1547,-0.1816,-0.2353,-0.3192,-0.3395,-0.3431,-0.3295,-0.3625,-0.3725,-0.3596,-0.3725,-0.3825,0.1902,0.2018,0.2125,0.2755,0.2962,0.307,0.3266,0.3322,0.3408,0.3801,0.4304,0.4713,0.4973,0.5236,0.0,0.0,0.0,0.0,0.0,0.0,0.0,0.0,0.0,0.0,0.0,0.0,0.0,0.0,0.0,0.0,0.0,0.0,0.0,0.0,1.0208,1.0056,0.969,0.9429,0.909,0.8674,0.8422,0.832,0.8313,0.8109,0.7988,0.7988,0.7988,0.7988,0.7975,0.7872,0.7634,0.7187,0.5252,0.5006,0.5361,0.2463,0.2062,0.2777,0.1749,0.1391,0.1391,0.1391,0.1391,0.1391,0.1391,0.139,0.1384,0.1398,0.1369,0.1299,0.131,0.132,0.1296,0.1296,0.1296,0.1296,0.1296,0.1296,0.1296,0.1296,0.1296,0.1296,0.1296,0.1232,0.1223,0.1292,0.1243,0.1215,0.1208,0.1122,0.1006,0.0811,0.0506,0.0303,0.0303,0.0101,0.0,0.0,0.0,-0.0505,-0.1547,-0.2318,-0.2855,-0.3192,-0.3395,-0.3498,-0.3498,-0.3694,-0.3792,-0.3792,-0.3792,-0.3859,0.1818,0.2017,0.2246,0.2714,0.2981,0.318,0.3294,0.3354,0.3578,0.4419,0.4969,0.5478,0.5961,0.0,0.0,0.0,0.0,0.0,0.0,0.0,0.0,0.0,0.0,0.0,0.0,0.0,0.0,0.0,0.0,0.0,0.0,0.0,0.0,0.0,0.9904,0.9867,0.956,0.9303,0.9028,0.8674,0.8261,0.8109,0.8106,0.8012,0.7988,0.7988,0.7988,0.7928,0.7858,0.7604,0.7451,0.7269,0.5893,0.5883,0.634,0.3489,0.3044,0.3666,0.1972,0.1391,0.1391,0.1391,0.1391,0.1391,0.1391,0.1421,0.1397,0.1326,0.1297,0.1309,0.1319,0.1303,0.1296,0.1296,0.1296,0.1296,0.1296,0.1296,0.1296,0.1296,0.1296,0.1296,0.1296,0.1289,0.1286,0.1295,0.1281,0.1256,0.1221,0.1074,0.0902,0.0811,0.0506,0.0303,0.0303,0.0101,0.0,0.0,-0.0471,-0.1143,-0.1913,-0.208,-0.2651,-0.3727,-0.3828,-0.3794,-0.3727,-0.3997,-0.4064,-0.3961,-0.4097,-0.4097,0.1779,0.2041,0.2283,0.2684,0.2983,0.3208,0.3367,0.3492,0.3831,0.0,0.5027,0.5402,0.6053,0.5938,0.0,0.0,0.0,0.0,0.0,0.0,0.0,0.0,0.0,0.0,0.0,0.0,0.0,0.0,0.0,0.0,0.0,0.0,0.0,0.0,0.973,0.9682,0.9531,0.9284,0.8981,0.8726,0.8332,0.8088,0.7988,0.7988,0.7988,0.7985,0.7924,0.7831,0.7624,0.7444,0.7336,0.7178,0.6106,0.6251,0.6782,0.4336,0.3801,0.4065,0.2552,0.1749,0.1391,0.1391,0.1391,0.1388,0.1421,0.1405,0.1382,0.13,0.1317,0.1296,0.1305,0.1296,0.1296,0.1296,0.1296,0.1296,0.1296,0.1296,0.1296,0.1296,0.1296,0.1296,0.1296,0.1296,0.1296,0.1296,0.1218,0.1119,0.11,0.0827,0.0632,0.0609,0.0337,0.0169,0.0169,0.0067,0.0,0.0,-0.0404,-0.0975,-0.1678,-0.2114,-0.2852,-0.3995,-0.3995,-0.3961,-0.3892,-0.4097,-0.4131,-0.3995,-0.4064,-0.4028,0.173,0.1951,0.2237,0.2616,0.2937,0.3283,0.345,0.3753,0.4019,0.4357,0.0,0.4802,0.5391,0.0,0.0,0.0,0.0,0.0,0.0,0.0,0.0,0.0,0.0,0.0,0.0,0.0,0.0,0.0,0.0,0.0,0.0,0.0,0.0,0.0,0.9579,0.9579,0.9579,0.9335,0.9072,0.0,0.8524,0.8273,0.7951,0.7978,0.7982,0.7961,0.7841,0.7621,0.7415,0.7402,0.7265,0.7007,0.6163,0.634,0.6871,0.509,0.4376,0.4156,0.3223,0.224,0.1391,0.1391,0.1391,0.1385,0.1399,0.1388,0.1374,0.1318,0.1301,0.1292,0.1304,0.1296,0.1296,0.1296,0.1296,0.1296,0.1296,0.1296,0.1296,0.1296,0.1296,0.1296,0.1296,0.1296,0.1296,0.1296,0.1061,0.0888,0.0883,0.0547,0.0286,0.0306,0.0135,0.0,0.0,0.0,0.0,0.0,0.0,-0.0337,-0.1076,-0.2284,-0.3224,-0.3925,-0.3995,-0.4028,-0.4028,-0.3995,-0.3995,-0.3995,-0.3859,-0.3792,0.1619,0.1799,0.2007,0.2516,0.2937,0.3324,0.3412,0.3494,0.3625,0.3946,0.4054,0.4242,0.0,0.0,0.0,0.0,0.0,0.0,0.0,0.0,0.0,0.0,0.0,0.0,0.0,0.0,0.0,0.0,0.0,0.0,0.0,0.0,0.0,0.9579,0.9579,0.9579,0.9579,0.9335,0.9019,0.0,0.8474,0.8161,0.7702,0.7884,0.7924,0.7845,0.758,0.7477,0.7409,0.7241,0.7125,0.7095,0.6874,0.6918,0.6962,0.5808,0.4914,0.4156,0.3223,0.224,0.1391,0.1391,0.1391,0.1385,0.1399,0.1374,0.1307,0.1313,0.1286,0.1305,0.1298,0.1296,0.1296,0.1296,0.1296,0.1296,0.1296,0.1296,0.1296,0.1296,0.1296,0.1296,0.1296,0.1296,0.1296,0.1296,0.1061,0.0894,0.0905,0.0553,0.0288,0.0314,0.0137,0.0,0.0,0.0,0.0,0.0,0.0,-0.0337,-0.1076,-0.188,-0.2649,-0.3351,-0.3928,-0.4233,-0.4233,-0.4064,-0.3995,-0.3995,-0.3859,-0.3727,0.1463,0.1688,0.1987,0.2596,0.0,0.318,0.3345,0.3413,0.3466,0.3573,0.365,0.0,0.0,0.0,0.0,0.0,0.0,0.0,0.0,0.0,0.0,0.0,0.0,0.0,0.0,0.0,0.0,0.0,0.0,0.0,0.0,0.9579,0.9579,0.9579,0.9579,0.9587,0.9498,0.9352,0.9071,0.8661,0.8457,0.8078,0.7604,0.7756,0.7746,0.759,0.7438,0.7329,0.7255,0.7129,0.7095,0.7095,0.7095,0.7095,0.7051,0.6564,0.5761,0.4825,0.389,0.2955,0.2017,0.1569,0.1381,0.1408,0.1379,0.1307,0.132,0.1289,0.1309,0.1296,0.1296,0.1571,0.1766,0.1375,0.1296,0.1296,0.1296,0.1296,0.1296,0.1296,0.1296,0.1296,0.1296,0.1296,0.1296,0.1296,0.1061,0.0857,0.076,0.0481,0.0253,0.0176,0.0069,0.0,0.0,0.0,0.0,0.0,0.0,-0.0168,-0.0572,-0.1243,-0.1946,-0.2648,-0.3387,-0.3758,-0.3758,-0.3928,-0.3961,-0.3892,-0.3727,-0.3563,0.1261,0.1623,0.2017,0.2576,0.2776,0.0,0.3209,0.3275,0.3314,0.3264,0.0,0.0,0.0,0.0,0.0,0.0,0.0,0.0,0.0,0.0,0.0,0.0,0.0,0.0,0.0,0.0,0.0,0.0,0.0,0.0,0.9579,0.96,0.9579,0.9579,0.9551,0.9462,0.9359,0.9359,0.9123,0.8664,0.8312,0.7948,0.756,0.7533,0.7465,0.7415,0.7343,0.7258,0.7095,0.7095,0.7095,0.7095,0.7095,0.7095,0.7095,0.7095,0.6517,0.5586,0.4823,0.3935,0.3001,0.1973,0.1635,0.1601,0.1356,0.1285,0.1296,0.1305,0.1296,0.1296,0.1296,0.1805,0.2119,0.1453,0.1296,0.1296,0.1296,0.1296,0.1296,0.1296,0.1296,0.1296,0.1296,0.1296,0.1296,0.1296,0.1061,0.0858,0.0688,0.0484,0.0291,0.0106,0.0103,0.0102,0.0067,0.0067,0.0034,0.0,0.0,0.0,0.0,-0.0539,-0.1109,-0.1678,-0.2547,-0.2982,-0.2982,-0.3456,-0.3625,-0.3556,-0.346,-0.3328,0.0988,0.0,0.1877,0.0,0.2275,0.2533,0.0,0.0,0.2946,0.0,0.0,0.0,0.0,0.0,0.0,0.0,0.0,0.0,0.0,0.0,0.0,0.0,0.0,0.0,0.0,0.0,0.0,0.0,0.0,0.0,0.9579,0.9478,0.9437,0.9437,0.9246,0.9157,0.9133,0.9133,0.895,0.8542,0.79,0.7548,0.7443,0.7261,0.7265,0.7409,0.7227,0.7115,0.7095,0.7095,0.7095,0.7095,0.7095,0.7095,0.7095,0.7095,0.6517,0.5675,0.5542,0.4914,0.3978,0.2999,0.2649,0.2464,0.1568,0.1285,0.1296,0.1305,0.1296,0.1296,0.1296,0.1375,0.1414,0.1335,0.1296,0.1296,0.1296,0.1296,0.1296,0.1296,0.1296,0.1296,0.1296,0.1296,0.1296,0.1296,0.1061,0.0903,0.086,0.0689,0.056,0.0509,0.0531,0.0449,0.027,0.027,0.0202,0.0,0.0,0.0,0.0,0.0067,0.0067,-0.0034,-0.1376,-0.2079,-0.2079,-0.2248,-0.2449,-0.2584,-0.2922,-0.3125,0.0944,0.1294,0.1635,0.0,0.2029,0.2184,0.2522,0.0,0.0,0.0,0.0,0.0,0.0,0.0,0.0,0.0,0.0,0.0,0.0,0.0,0.0,0.0,0.0,0.0,0.0,0.0,0.0,0.0,0.0,0.9332,0.9332,0.9254,0.921,0.921,0.9137,0.9047,0.8946,0.8942,0.8716,0.8317,0.7934,0.7627,0.7472,0.7218,0.7132,0.7238,0.7125,0.7095,0.7095,0.7095,0.7095,0.7095,0.7095,0.7095,0.7095,0.7095,0.683,0.6428,0.5897,0.545,0.4914,0.3979,0.3587,0.3399,0.2947,0.2744,0.2699,0.271,0.2702,0.2702,0.2702,0.3054,0.3249,0.282,0.2702,0.2585,0.208,0.161,0.1296,0.1296,0.1296,0.1296,0.1296,0.1296,0.1296,0.1296,0.1218,0.1061,0.0904,0.0808,0.0716,0.0597,0.061,0.0558,0.0483,0.0442,0.0371,0.027,0.027,0.027,0.027,0.0371,0.0404,0.0404,-0.0605,-0.1108,-0.1108,-0.1576,-0.1811,-0.1811,-0.2281,-0.2551,0.0,0.0,0.1355,0.1621,0.1745,0.1902,0.0,0.0,0.0,0.0,0.0,0.0,0.0,0.0,0.0,0.0,0.0,0.0,0.0,0.0,0.0,0.0,0.0,0.0,0.0,0.0,0.0,0.0,0.0,0.9096,0.9096,0.9051,0.9027,0.9027,0.8986,0.8897,0.8755,0.8755,0.8552,0.8113,0.8028,0.7764,0.7415,0.7279,0.7143,0.7095,0.7095,0.7095,0.7095,0.7095,0.7095,0.7095,0.7095,0.7095,0.7095,0.7095,0.7095,0.7007,0.6296,0.6074,0.5897,0.4959,0.4533,0.4395,0.4143,0.3987,0.3897,0.3872,0.3866,0.3862,0.3798,0.4261,0.4535,0.3947,0.3791,0.3521,0.2431,0.1727,0.1296,0.1296,0.1296,0.1296,0.1296,0.1296,0.1296,0.1296,0.1296,0.1218,0.1021,0.1005,0.0953,0.0758,0.0764,0.0741,0.0666,0.0616,0.0539,0.0506,0.0506,0.0506,0.0506,0.0539,0.0573,0.0573,0.0135,-0.0134,-0.0168,-0.0805,-0.1073,-0.0972,-0.1509,-0.1913,0.0,0.0816,0.0,0.1097,0.1324,0.0,0.0,0.0,0.0,0.0,0.0,0.0,0.0,0.0,0.0,0.0,0.0,0.0,0.0,0.0,0.0,0.0,0.0,0.0,0.0,0.0,0.0,0.0,0.0,0.9096,0.9096,0.893,0.8836,0.8836,0.8678,0.8637,0.8624,0.8624,0.8396,0.7896,0.8113,0.7801,0.7139,0.737,0.7323,0.7095,0.7095,0.7095,0.7095,0.7095,0.7095,0.7095,0.7095,0.7095,0.7095,0.7095,0.7095,0.7095,0.7051,0.7007,0.6874,0.5941,0.5635,0.5443,0.4491,0.4168,0.4161,0.4029,0.4004,0.3943,0.3814,0.383,0.3869,0.3791,0.3791,0.3363,0.1727,0.1335,0.1296,0.1296,0.1296,0.1296,0.1296,0.1296,0.1296,0.1296,0.1296,0.1296,0.1296,0.1295,0.1244,0.1177,0.1183,0.1081,0.0913,0.0821,0.0708,0.0506,0.0506,0.0506,0.0506,0.0674,0.0776,0.0776,0.0942,0.0908,0.0741,0.037,0.0101,-0.0067,-0.0605,-0.1244,0.0,0.0,0.0,0.1044,0.1257,0.1475,0.0,0.0,0.0,0.0,0.0,0.0,0.0,0.0,0.0,0.0,0.0,0.0,0.0,0.0,0.0,0.0,0.0,0.0,0.0,0.0,0.0,0.0,0.0,0.0,0.8759,0.8694,0.8658,0.8658,0.8645,0.8612,0.8612,0.8612,0.8432,0.8072,0.8028,0.7764,0.737,0.7279,0.7187,0.7095,0.7095,0.7095,0.7095,0.7095,0.7095,0.7095,0.7095,0.7095,0.7095,0.7095,0.7095,0.7095,0.7095,0.7095,0.7051,0.6697,0.6561,0.6408,0.6058,0.5881,0.5794,0.5661,0.5623,0.5556,0.5427,0.5395,0.5279,0.4691,0.4183,0.3482,0.2314,0.1649,0.1296,0.1296,0.1296,0.1296,0.1296,0.1296,0.1296,0.1296,0.1296,0.1296,0.1296,0.1296,0.1292,0.1281,0.1234,0.1161,0.1115,0.1036,0.0976,0.0875,0.0875,0.0875,0.0875,0.0942,0.0976,0.0976,0.1076,0.1076,0.0976,0.0874,0.0773,0.0706,0.0168,-0.0302,0.097,0.0,0.0,0.0,0.0,0.1373,0.0,0.0,0.0,0.0,0.0,0.0,0.0,0.0,0.0,0.0,0.0,0.0,0.0,0.0,0.0,0.0,0.0,0.0,0.0,0.0,0.0,0.0,0.0,0.0,0.8612,0.8612,0.8612,0.8612,0.8612,0.8612,0.8612,0.8612,0.8472,0.8201,0.8072,0.7808,0.7507,0.7323,0.7187,0.7095,0.7095,0.7095,0.7095,0.7095,0.7095,0.7095,0.7095,0.7095,0.7095,0.7095,0.7065,0.7024,0.7024,0.7024,0.7024,0.7024,0.6994,0.6957,0.6957,0.6886,0.6807,0.6607,0.6549,0.6545,0.6351,0.63,0.6064,0.5198,0.4377,0.356,0.2705,0.1884,0.1296,0.1296,0.1296,0.1296,0.1296,0.1296,0.1296,0.1296,0.1296,0.1296,0.1296,0.1296,0.1296,0.1296,0.125,0.1215,0.1203,0.1165,0.1132,0.1111,0.1085,0.1087,0.1109,0.1043,0.1009,0.1009,0.0942,0.0942,0.1009,0.1076,0.1109,0.1076,0.0739,0.0269,0.0,0.0,0.0,0.0,0.0,0.0,0.0,0.0,0.0,0.0,0.0,0.0,0.0,0.0,0.0,0.0,0.0,0.0,0.0,0.0,0.0,0.0,0.0,0.0,0.0,0.0,0.0,0.0,0.0,0.8612,0.8612,0.8612,0.8612,0.8612,0.8612,0.8612,0.8612,0.8612,0.8472,0.8201,0.8201,0.794,0.7507,0.7507,0.737,0.7095,0.7095,0.7095,0.7095,0.7095,0.7095,0.7095,0.7095,0.7095,0.7095,0.7092,0.7004,0.6886,0.6886,0.6886,0.6886,0.6889,0.6984,0.7095,0.7095,0.7092,0.7031,0.679,0.6705,0.6634,0.6381,0.6303,0.6103,0.5237,0.4416,0.356,0.2705,0.1884,0.1296,0.1296,0.1296,0.1296,0.1296,0.1296,0.1296,0.1296,0.1296,0.1296,0.1296,0.1296,0.1296,0.1295,0.1228,0.1198,0.1206,0.1201,0.1175,0.1114,0.1104,0.1106,0.1111,0.0909,0.0809,0.0809,0.0607,0.0607,0.0809,0.1009,0.1109,0.1109,0.1109,0.0437,0.2478,0.0,0.0,0.0,0.0,0.0,0.0,0.0,0.0,0.0,0.0,0.0,0.0,0.0,0.0,0.0,0.0,0.0,0.0,0.0,0.0,0.0,0.0,0.0,0.0,0.0,0.0,0.0,0.8612,0.8612,0.8612,0.8612,0.8612,0.8612,0.8612,0.8612,0.8612,0.8612,0.8472,0.8201,0.8201,0.794,0.7507,0.7507,0.737,0.7095,0.7095,0.7095,0.7095,0.7095,0.7095,0.7095,0.7095,0.7095,0.7085,0.698,0.692,0.6886,0.6886,0.6886,0.6903,0.7004,0.7065,0.7095,0.7095,0.7024,0.6927,0.6846,0.6787,0.6658,0.6504,0.6378,0.6219,0.5983,0.4849,0.3752,0.3482,0.2313,0.1296,0.1296,0.1296,0.1296,0.1296,0.1296,0.1296,0.1296,0.1296,0.1296,0.1296,0.1296,0.1288,0.1227,0.1197,0.1212,0.1203,0.1161,0.1103,0.1108,0.1095,0.1084,0.1109,0.0909,0.0809,0.0809,0.0607,0.0607,0.0809,0.0843,0.0942,0.1109,0.1109,0.0706,0.3556,0.343,0.3369,0.0,0.0,0.0,0.0,0.3457,0.0,0.0,0.0,0.0,0.0,0.0,0.0,0.0,0.0,0.0,0.0,0.0,0.0,0.0,0.0,0.0,0.0,0.0,0.0,0.8612,0.8612,0.8612,0.8612,0.8612,0.8612,0.8612,0.8612,0.8612,0.8612,0.8612,0.852,0.838,0.8245,0.8028,0.768,0.7551,0.737,0.7095,0.7095,0.7095,0.7092,0.7034,0.7045,0.7095,0.7095,0.7095,0.7078,0.694,0.6846,0.6834,0.6834,0.6834,0.6858,0.696,0.7048,0.7085,0.7024,0.695,0.6859,0.6773,0.663,0.6495,0.6446,0.6361,0.6222,0.5828,0.5004,0.4105,0.3405,0.2508,0.1689,0.1375,0.1296,0.1296,0.1296,0.1296,0.1296,0.1296,0.1296,0.1296,0.1296,0.1296,0.1284,0.1215,0.1196,0.1175,0.115,0.1162,0.1145,0.1102,0.1097,0.1089,0.111,0.0842,0.0674,0.0674,0.0438,0.0404,0.0674,0.0776,0.0909,0.1109,0.1009,0.0673,0.4962,0.4525,0.4129,0.4224,0.0,0.0,0.3585,0.3652,0.0,0.0,0.0,0.0,0.0,0.0,0.0,0.0,0.0,0.0,0.0,0.0,0.0,0.0,0.0,0.0,0.0,0.8201,0.8292,0.852,0.8568,0.8604,0.858,0.858,0.8571,0.8551,0.8551,0.8559,0.858,0.858,0.8592,0.8612,0.8336,0.8116,0.79,0.7635,0.7367,0.7095,0.7095,0.7095,0.7085,0.6943,0.696,0.7071,0.7055,0.7048,0.7034,0.6906,0.6807,0.6678,0.6715,0.6705,0.6705,0.6849,0.697,0.7028,0.692,0.6862,0.682,0.6549,0.6419,0.6323,0.6323,0.6313,0.6103,0.5318,0.5082,0.4574,0.3095,0.2705,0.2431,0.1727,0.1492,0.1414,0.1414,0.1414,0.1414,0.1414,0.1375,0.1296,0.1296,0.1296,0.1283,0.1211,0.1207,0.1183,0.1091,0.1142,0.117,0.1118,0.1103,0.1104,0.1111,0.074,0.0539,0.0506,0.0202,0.0202,0.0506,0.0708,0.0909,0.1076,0.0876,0.0539,0.5579,0.5466,0.5409,0.5258,0.0,0.0,0.519,0.5162,0.0,0.0,0.0,0.0,0.0,0.0,0.0,0.0,0.0,0.0,0.0,0.0,0.0,0.0,0.0,0.0,0.0,0.8113,0.8201,0.8288,0.8476,0.8547,0.8353,0.8345,0.8276,0.8126,0.8122,0.8191,0.8345,0.8345,0.8422,0.8612,0.8564,0.83,0.79,0.7856,0.7544,0.7095,0.7095,0.7095,0.7085,0.6943,0.6903,0.6913,0.6834,0.6787,0.6783,0.6756,0.6647,0.6552,0.68,0.6722,0.658,0.6927,0.6913,0.6803,0.6856,0.6756,0.6549,0.6528,0.6494,0.647,0.647,0.6385,0.6261,0.6103,0.5512,0.4924,0.4574,0.3988,0.3482,0.3326,0.2743,0.2276,0.2276,0.2276,0.2276,0.2276,0.1728,0.1296,0.1296,0.1296,0.1275,0.1218,0.1212,0.116,0.1089,0.1104,0.1099,0.1111,0.1095,0.1116,0.1109,0.0876,0.0674,0.0506,0.0438,0.0438,0.0506,0.0875,0.0976,0.0843,0.0809,0.0674,0.5808,0.5716,0.5663,0.5663,0.0,0.0,0.0,0.0,0.5562,0.0,0.0,0.0,0.0,0.0,0.0,0.0,0.0,0.0,0.0,0.0,0.0,0.0,0.0,0.0,0.0,0.7734,0.7859,0.8076,0.8424,0.8531,0.83,0.8292,0.8207,0.802,0.8012,0.8101,0.8288,0.8292,0.8385,0.8612,0.8612,0.8388,0.8025,0.7945,0.7646,0.7201,0.7078,0.7004,0.6909,0.6763,0.6702,0.6702,0.6702,0.6702,0.6692,0.6614,0.6539,0.6535,0.6647,0.66,0.6562,0.6824,0.682,0.6702,0.6702,0.6542,0.6405,0.6405,0.6405,0.6405,0.6405,0.6354,0.63,0.63,0.5986,0.5515,0.5082,0.4691,0.43,0.3869,0.3756,0.36,0.321,0.3132,0.3015,0.2549,0.2158,0.1766,0.1335,0.1296,0.1272,0.121,0.1203,0.1184,0.1102,0.1084,0.1116,0.1097,0.1084,0.1109,0.1109,0.0909,0.0708,0.0506,0.0607,0.0607,0.0506,0.0808,0.0909,0.0809,0.064,0.0506,0.0,0.0,0.0,0.0,0.0,0.5472,0.0,0.0,0.0,0.5467,0.0,0.0,0.0,0.0,0.0,0.0,0.0,0.0,0.0,0.0,0.0,0.0,0.0,0.0,0.0,0.7314,0.746,0.7998,0.8288,0.8398,0.8243,0.8235,0.8138,0.7918,0.791,0.8016,0.8235,0.8235,0.8349,0.8612,0.8575,0.8424,0.8146,0.7936,0.7646,0.7211,0.7083,0.6902,0.6688,0.6536,0.6511,0.6521,0.6576,0.6617,0.6603,0.6549,0.6494,0.648,0.6538,0.6518,0.6501,0.6644,0.6681,0.6627,0.6518,0.6392,0.63,0.63,0.63,0.63,0.63,0.63,0.63,0.63,0.63,0.6103,0.5395,0.5237,0.5043,0.4416,0.4807,0.5004,0.4183,0.4025,0.3793,0.3095,0.286,0.251,0.1884,0.1765,0.1694,0.1465,0.1421,0.1356,0.1115,0.1109,0.1109,0.1109,0.1109,0.1109,0.1109,0.0909,0.0708,0.0573,0.0674,0.0674,0.0573,0.064,0.0708,0.0708,0.0438,0.027,0.0,0.0,0.0,0.0,0.5855,0.0,0.0,0.0,0.5535,0.5433,0.0,0.0,0.0,0.0,0.0,0.0,0.0,0.0,0.0,0.0,0.0,0.0,0.0,0.0,0.0,0.0,0.7421,0.8106,0.7997,0.7948,0.8048,0.8044,0.789,0.7553,0.7541,0.7703,0.804,0.8044,0.8219,0.8608,0.8402,0.8192,0.7932,0.7799,0.7469,0.7051,0.6988,0.6902,0.6688,0.6536,0.6511,0.6501,0.6392,0.6351,0.6364,0.647,0.6433,0.6361,0.6583,0.6505,0.6371,0.661,0.661,0.6511,0.6368,0.6313,0.63,0.63,0.63,0.63,0.63,0.63,0.63,0.63,0.63,0.6261,0.618,0.6141,0.6141,0.6025,0.6103,0.5867,0.5004,0.4846,0.4846,0.473,0.4105,0.3638,0.3519,0.3519,0.3187,0.2341,0.2256,0.196,0.1182,0.1109,0.1109,0.1109,0.1109,0.1109,0.1109,0.0909,0.0776,0.0776,0.0607,0.0607,0.0776,0.0506,0.0371,0.0371,0.0303,0.0202,0.0,0.0,0.0,0.0,0.0,0.0,0.5555,0.0,0.5464,0.0,0.0,0.0,0.0,0.0,0.0,0.0,0.0,0.0,0.0,0.0,0.0,0.0,0.0,0.0,0.0,0.0,0.0,0.0,0.0,0.7619,0.7656,0.7781,0.7748,0.7492,0.7484,0.7606,0.7862,0.7866,0.7996,0.8243,0.8166,0.8046,0.7959,0.7657,0.7373,0.7046,0.6835,0.664,0.648,0.6416,0.6388,0.6381,0.6323,0.63,0.6306,0.6368,0.6351,0.6317,0.6443,0.6405,0.632,0.6446,0.6439,0.6378,0.6317,0.63,0.63,0.63,0.63,0.63,0.63,0.63,0.63,0.63,0.63,0.63,0.63,0.63,0.63,0.63,0.63,0.618,0.5828,0.5747,0.5592,0.5082,0.473,0.4338,0.3869,0.3791,0.3609,0.3107,0.2655,0.2208,0.172,0.131,0.1109,0.1109,0.1109,0.1109,0.1109,0.1009,0.0976,0.0976,0.0875,0.0842,0.0809,0.0674,0.0539,0.0404,0.0202,0.0067,0.6399,0.0,0.0,0.0,0.0,0.0,0.0,0.0,0.0,0.0,0.0,0.0,0.0,0.0,0.0,0.0,0.0,0.0,0.0,0.0,0.0,0.0,0.0,0.0,0.0,0.0,0.0,0.0,0.0,0.0,0.7378,0.7585,0.7661,0.7488,0.7484,0.7612,0.7796,0.78,0.7886,0.8012,0.7967,0.7943,0.7935,0.7517,0.7241,0.704,0.673,0.649,0.63,0.63,0.63,0.63,0.63,0.63,0.63,0.63,0.63,0.63,0.63,0.63,0.63,0.63,0.63,0.63,0.63,0.63,0.63,0.63,0.63,0.6261,0.6022,0.6103,0.6257,0.5983,0.6141,0.63,0.63,0.63,0.63,0.63,0.63,0.63,0.63,0.63,0.6103,0.5434,0.5356,0.516,0.4574,0.4496,0.4337,0.3869,0.3181,0.2582,0.2124,0.1488,0.1084,0.111,0.1109,0.1109,0.1109,0.1109,0.1109,0.1109,0.1043,0.0976,0.0876,0.0775,0.0674,0.0573,0.0236,0.0067,0.0,0.0,0.0,0.5918,0.0,0.0,0.0,0.0,0.5586,0.0,0.0,0.0,0.0,0.0,0.0,0.0,0.0,0.0,0.0,0.0,0.0,0.0,0.0,0.0,0.0,0.0,0.0,0.0,0.0,0.0,0.7359,0.7465,0.7488,0.7484,0.7484,0.7612,0.7796,0.78,0.7886,0.8012,0.7886,0.7808,0.78,0.7387,0.7111,0.6911,0.6679,0.649,0.63,0.63,0.63,0.63,0.63,0.63,0.63,0.63,0.63,0.63,0.63,0.63,0.63,0.63,0.63,0.63,0.63,0.63,0.63,0.63,0.63,0.6103,0.5279,0.567,0.6103,0.5237,0.567,0.63,0.63,0.63,0.63,0.63,0.63,0.63,0.63,0.63,0.63,0.6261,0.6261,0.6261,0.6222,0.6222,0.5835,0.4776,0.4077,0.3251,0.2196,0.148,0.1107,0.1111,0.1109,0.1109,0.1109,0.1109,0.1109,0.1109,0.0909,0.0909,0.1076,0.0707,0.0607,0.0776,0.0438,0.0303,0.0,0.0,0.631,0.6017,0.0,0.0,0.0,0.0,0.0,0.0,0.0,0.0,0.0,0.0,0.0,0.0,0.0,0.0,0.0,0.0,0.0,0.0,0.0,0.0,0.0,0.0,0.0,0.0,0.6211,0.0,0.0,0.7149,0.7373,0.7484,0.7484,0.7551,0.7616,0.7616,0.7606,0.7663,0.7606,0.7616,0.7573,0.72,0.698,0.6865,0.6563,0.6377,0.63,0.63,0.63,0.63,0.63,0.63,0.63,0.63,0.63,0.63,0.63,0.63,0.63,0.63,0.63,0.63,0.63,0.63,0.63,0.63,0.5867,0.5512,0.5789,0.5237,0.4849,0.567,0.5631,0.5592,0.618,0.63,0.63,0.63,0.63,0.63,0.63,0.63,0.63,0.63,0.63,0.63,0.63,0.63,0.6103,0.56,0.4947,0.412,0.3049,0.1814,0.1087,0.111,0.1109,0.1109,0.1109,0.1109,0.1109,0.1109,0.1043,0.1043,0.1109,0.0975,0.0942,0.1009,0.0741,0.0573,0.6644,0.6718,0.0,0.6846,0.6826,0.0,0.6183,0.0,0.0,0.0,0.0,0.0,0.0,0.0,0.0,0.0,0.0,0.0,0.0,0.0,0.0,0.0,0.0,0.0,0.0,0.0,0.5817,0.5878,0.5912,0.0,0.0,0.0,0.7296,0.7484,0.7584,0.7588,0.7484,0.7484,0.7484,0.7484,0.7484,0.7484,0.7484,0.7096,0.6903,0.6865,0.649,0.63,0.63,0.63,0.63,0.63,0.63,0.63,0.63,0.63,0.63,0.63,0.63,0.63,0.63,0.63,0.63,0.63,0.63,0.63,0.6219,0.5906,0.5434,0.5004,0.4968,0.4574,0.4416,0.524,0.5434,0.5631,0.618,0.6374,0.6412,0.6412,0.6257,0.6219,0.6374,0.6219,0.6106,0.6261,0.63,0.63,0.63,0.63,0.6242,0.601,0.5127,0.4043,0.2741,0.1682,0.1109,0.1109,0.1109,0.1109,0.1109,0.1109,0.1109,0.1109,0.1109,0.1109,0.1109,0.1109,0.1109,0.1109,0.0976,0.0842]}]]